GFSSGP_700_spd_000.txt.gz
Wind_Speed
3 4 8 10 7 12 9 12 14 6 3 4 4 5 6 12 11 4 7 8 8 7 6 6 4 5 2 3 4 6 8 12 10 12 12 8 6 8 11 12 13 15 18 19 19 20 19 19 30
6 11 13 7 7 16 16 13 15 13 10 7 10 10 6 8 14 8 8 12 11 9 6 4 4 4 7 10 11 12 14 15 15 13 13 11 6 7 9 10 13 15 16 16 16 16 22 28 29
17 16 8 13 22 17 14 9 10 10 4 2 7 8 11 11 10 5 13 12 10 7 3 2 7 10 12 13 15 15 17 17 15 13 14 10 6 7 9 9 11 12 12 13 15 15 14 22 35
15 12 14 16 20 15 11 7 4 5 2 2 7 5 7 7 7 9 8 8 7 3 2 5 7 10 12 14 15 15 16 16 17 17 15 12 10 11 12 13 15 13 14 14 13 16 19 17 21
10 11 13 7 14 12 9 9 9 8 5 3 8 7 4 8 8 5 3 2 1 3 4 6 10 13 16 17 17 16 16 17 17 18 18 18 17 15 16 16 19 16 15 14 14 14 16 14 17
14 13 11 11 10 7 5 5 5 7 7 4 8 7 6 7 2 5 3 3 4 7 10 12 14 16 18 19 19 20 21 22 21 21 21 21 20 18 17 19 20 18 17 15 12 12 15 18 18
15 15 12 13 12 10 9 4 1 6 4 6 8 6 4 8 9 12 9 9 10 11 12 15 14 14 16 17 18 19 22 23 23 23 23 23 21 19 18 18 16 15 14 15 12 10 12 16 19
12 13 4 13 10 13 6 4 1 6 9 5 10 8 8 6 6 10 11 13 14 16 16 16 13 15 17 17 17 20 22 22 19 18 17 17 16 15 14 14 12 12 12 13 12 9 10 13 17
7 12 15 15 11 11 5 5 2 8 7 6 9 7 8 7 8 11 11 14 18 17 15 17 20 20 20 22 24 24 19 16 15 12 18 17 15 14 13 13 13 12 12 9 10 12 14 16 13
9 9 6 4 5 6 5 2 4 6 4 6 9 8 10 12 14 11 9 15 17 17 16 22 25 23 25 26 23 15 16 14 14 14 15 15 15 15 15 16 16 16 15 14 12 13 15 15 11
3 2 1 2 7 10 10 7 7 5 2 6 7 12 16 19 17 10 8 10 13 15 19 20 20 20 21 22 16 17 18 17 17 18 19 18 17 17 17 18 18 19 19 19 19 17 14 14 13
3 1 5 11 10 4 2 2 7 10 11 10 13 15 18 16 12 11 10 10 13 16 18 18 18 21 21 16 13 17 19 19 19 19 21 21 21 21 21 21 21 20 20 20 21 21 20 17 16
5 7 6 6 9 16 9 9 9 5 1 6 6 14 15 15 13 11 12 14 14 16 18 19 19 20 19 17 17 20 22 23 24 24 25 26 27 27 26 25 26 25 25 25 25 25 25 23 20
4 2 5 5 7 12 16 8 7 7 6 4 7 12 12 14 13 13 13 15 17 18 20 21 21 20 21 20 20 23 25 28 27 27 28 29 30 31 32 31 30 28 28 27 28 29 29 28 26
7 7 8 10 4 6 8 7 3 10 11 8 9 12 12 11 11 11 12 14 16 18 18 20 22 20 21 23 23 25 27 28 27 28 29 31 33 34 34 34 32 31 31 30 30 30 30 30 29
6 8 10 17 3 5 11 15 16 9 10 11 13 16 14 11 12 11 13 15 17 21 22 25 25 22 22 22 25 27 25 27 29 29 30 30 31 33 33 33 31 31 30 29 30 31 30 31 31
7 5 13 10 7 6 10 21 19 10 12 12 14 14 12 11 15 13 14 15 17 21 24 26 27 27 25 24 24 28 29 28 26 25 24 26 27 27 27 27 29 30 31 30 30 31 32 32 33
10 10 9 1 7 15 19 23 16 9 9 7 9 13 13 15 18 18 18 18 18 20 22 26 28 28 26 27 27 25 25 26 26 26 24 21 22 25 27 29 30 31 31 30 31 32 32 31 32
7 10 10 10 12 20 13 15 7 14 12 11 11 6 9 13 13 14 11 17 16 18 22 22 25 25 24 23 26 28 28 27 27 27 28 29 26 24 26 29 29 30 31 32 30 29 28 30 32
10 14 10 14 15 15 10 14 8 7 8 12 12 7 6 4 4 8 11 13 15 15 15 26 24 20 22 32 29 32 33 30 29 27 29 31 32 31 31 31 30 32 35 36 34 33 36 36 37
11 14 14 17 19 3 15 5 8 8 12 14 14 11 9 11 13 14 15 19 17 17 24 32 36 27 28 38 37 43 40 35 31 29 31 33 36 36 36 35 31 33 35 37 38 42 41 39 41
13 12 14 18 13 5 16 4 7 9 12 15 12 14 16 12 14 20 26 31 27 28 30 39 41 34 34 40 40 43 46 44 37 34 35 37 39 40 39 39 39 38 40 42 45 46 44 42 43
18 19 19 12 5 4 16 3 3 11 15 16 13 14 13 15 17 23 26 26 26 29 33 37 39 36 35 33 38 46 50 44 42 38 37 41 45 45 41 39 41 44 45 47 45 42 45 46 42
14 18 8 1 2 2 4 17 2 15 9 13 11 9 11 17 21 22 24 25 27 30 34 38 38 39 36 34 37 48 42 41 40 37 38 42 49 48 46 43 44 46 45 50 51 51 49 47 53
18 20 8 4 4 4 13 12 8 12 13 6 6 9 15 14 18 23 26 32 33 33 39 33 33 32 37 37 46 41 37 38 37 38 41 42 45 53 50 46 49 49 52 51 53 52 59 54 57
13 18 5 1 0 8 9 3 5 7 21 18 12 16 16 21 26 30 31 32 34 34 31 30 37 34 36 48 51 42 40 41 40 41 44 45 39 48 51 49 52 53 52 55 59 61 58 52 49
7 14 7 3 3 2 7 3 8 9 19 19 9 29 21 25 32 39 40 40 37 30 29 31 38 44 52 59 50 47 46 41 41 45 45 44 41 40 49 57 52 55 57 48 38 42 42 44 45
6 10 5 7 2 3 7 14 15 13 24 19 34 34 36 30 32 39 41 39 38 40 41 43 48 52 52 48 49 49 48 50 48 47 41 37 35 36 45 49 49 43 40 47 42 40 40 41 41
5 6 8 6 5 3 2 8 19 31 19 37 34 30 27 28 32 28 28 28 33 39 45 54 50 48 49 50 50 52 53 52 49 43 33 33 33 37 40 43 41 38 40 41 38 37 38 39 40
2 10 20 9 7 21 22 29 21 9 36 32 21 17 29 30 32 38 38 39 42 50 56 46 48 48 48 49 53 54 53 51 42 36 33 36 31 34 35 33 34 35 35 37 38 39 39 39 40

GFSSGP_700_spd_003.txt.gz
Wind_Speed
5 5 12 14 7 10 18 13 10 2 1 9 10 9 11 13 6 2 7 13 9 9 6 10 8 8 5 1 2 4 9 11 7 5 4 3 3 5 9 11 12 16 16 19 18 17 15 17 22
6 17 15 12 17 20 12 12 10 9 8 6 8 7 8 8 10 6 7 9 10 11 8 7 6 5 5 4 5 8 9 10 8 7 6 5 5 7 9 11 16 16 16 16 14 14 15 19 26
21 17 14 18 17 14 11 9 8 7 6 7 7 7 8 9 9 8 9 9 10 7 5 5 4 6 9 11 11 11 12 12 13 12 11 10 8 9 11 14 16 18 18 17 14 14 14 19 22
13 16 18 20 19 16 12 8 8 5 4 7 9 4 8 8 9 8 9 9 6 2 1 3 8 10 11 13 12 13 14 14 15 15 15 15 14 12 12 13 15 17 16 17 16 16 17 20 19
12 15 14 18 17 14 12 9 7 3 3 3 7 7 6 6 8 6 2 2 0 2 3 7 9 9 9 12 13 14 16 17 18 18 18 18 18 16 15 16 16 17 16 17 14 14 16 17 18
13 11 12 15 13 8 5 5 1 2 3 5 6 7 4 7 7 4 3 2 1 5 8 11 11 12 14 17 18 18 20 21 21 20 18 17 17 15 14 14 13 12 10 10 10 8 12 17 16
15 11 14 13 12 8 4 2 3 6 6 6 6 7 6 9 5 4 6 7 6 8 9 13 14 14 17 18 19 21 21 21 20 18 17 17 15 13 10 10 9 7 7 6 5 4 4 6 10
12 10 16 12 8 7 7 2 3 4 7 1 5 6 7 8 8 6 9 12 13 12 12 8 8 12 15 16 18 18 13 13 11 9 11 13 13 13 12 12 11 10 10 9 7 7 8 11 12
12 12 17 11 6 6 4 2 3 6 6 2 3 5 7 8 8 12 11 13 13 12 9 7 9 14 15 18 20 13 11 9 10 8 8 9 11 12 12 11 12 12 12 10 11 13 13 15 16
13 14 10 7 5 5 3 2 6 7 4 2 3 4 8 11 12 11 10 11 13 7 6 10 16 20 21 23 21 8 11 13 13 13 13 15 14 14 14 16 16 16 15 13 13 14 17 17 16
5 3 1 3 3 7 9 9 12 10 6 5 6 8 11 11 7 6 9 10 8 10 12 15 19 23 23 23 18 12 12 14 16 16 16 17 18 19 18 19 19 19 18 18 17 17 16 19 19
5 12 13 8 7 5 4 4 4 4 3 4 6 11 13 14 11 8 6 9 13 12 14 17 20 22 22 21 18 16 17 19 20 21 20 20 21 22 24 24 23 23 23 22 22 22 21 21 21
9 9 7 6 4 7 6 5 7 4 5 3 7 9 10 12 13 12 10 11 10 12 15 16 17 19 18 19 20 20 22 23 24 24 22 22 23 25 26 26 26 27 27 27 26 25 25 25 25
4 2 4 4 2 4 7 5 3 6 8 4 5 7 6 11 12 12 10 11 10 11 11 13 17 21 20 21 22 22 24 26 26 25 27 28 27 27 28 29 29 28 28 27 27 27 28 28 28
2 2 3 7 5 2 5 4 3 9 10 6 4 8 7 9 10 11 11 11 12 11 13 16 20 23 23 24 24 23 24 26 29 30 29 29 30 30 30 30 29 28 27 26 26 27 28 29 29
3 2 8 6 6 1 10 13 12 11 9 7 6 7 6 8 10 15 13 14 13 12 13 16 20 24 26 26 25 25 26 26 25 25 26 27 28 28 28 27 27 27 26 26 26 27 27 28 29
3 4 8 1 2 3 9 22 17 16 12 7 6 8 7 11 13 12 12 15 15 13 14 16 20 24 26 24 22 22 23 24 25 26 26 25 26 27 27 27 29 31 31 29 28 28 28 29 31
4 9 8 5 9 14 17 20 13 11 11 6 4 5 10 14 14 11 10 12 10 12 14 17 16 23 25 18 22 24 24 27 28 29 27 25 25 26 27 28 29 31 29 27 26 26 27 27 28
7 11 13 7 9 20 16 16 11 11 12 4 6 7 4 10 11 10 7 5 9 10 16 17 17 25 28 29 31 31 32 29 31 32 32 30 27 27 28 29 29 30 31 30 29 28 27 26 27
8 11 15 11 12 15 8 9 11 10 4 3 5 4 1 2 6 7 8 13 11 10 15 15 21 28 28 29 32 35 38 34 36 34 31 31 32 32 31 31 32 33 35 35 35 34 33 32 32
9 10 13 16 17 5 11 2 9 9 4 6 5 3 4 8 9 10 13 17 17 15 14 21 27 32 34 33 35 36 41 38 41 35 31 32 34 36 37 38 39 40 40 38 38 38 38 36 37
11 14 15 15 13 2 8 2 10 6 6 9 10 9 8 10 12 16 21 24 28 28 31 32 33 35 38 37 41 40 42 41 47 42 36 35 35 36 37 39 42 46 46 41 42 43 43 42 43
16 14 15 13 7 4 6 2 8 9 7 11 12 12 10 15 20 24 27 30 31 31 31 33 35 36 35 37 38 39 42 42 50 44 42 40 40 42 42 41 45 45 42 47 40 43 42 45 48
12 12 4 1 2 1 3 13 9 11 9 8 8 7 13 17 21 24 26 28 31 30 33 35 36 36 39 39 39 38 44 50 50 43 43 45 44 43 44 45 44 49 46 53 43 47 52 52 50
14 9 3 3 3 4 7 6 3 9 16 9 5 5 16 18 19 23 27 31 29 29 29 32 35 36 38 41 43 47 49 45 43 45 45 44 45 47 46 45 42 51 55 56 53 55 59 59 62
12 13 5 3 1 7 10 1 4 9 19 9 7 18 19 17 21 27 24 28 27 25 30 36 37 37 42 48 52 47 45 45 45 46 47 49 50 48 48 45 40 51 52 55 54 63 67 64 62
4 7 7 1 1 3 7 1 8 14 15 7 18 25 19 23 23 19 27 28 29 33 35 40 44 48 53 49 46 48 47 46 49 50 50 49 45 40 36 34 35 43 53 58 61 63 56 49 40
4 4 4 6 2 3 7 16 14 14 22 31 27 20 19 16 17 26 28 31 34 36 38 44 52 53 48 48 45 47 51 53 53 51 48 40 32 28 29 30 31 39 46 44 44 41 42 46 46
2 2 4 2 2 3 2 8 11 24 26 22 25 20 16 22 30 33 36 37 36 40 44 49 48 47 47 47 49 50 53 56 58 54 47 33 30 31 31 29 29 37 43 42 39 37 38 39 40
6 6 12 4 5 12 16 17 5 9 23 26 25 29 28 30 31 35 39 41 43 44 45 45 47 48 45 46 48 53 54 53 52 50 42 33 32 33 28 27 29 32 35 36 38 40 42 44 43

GFSSGP_700_spd_006.txt.gz
Wind_Speed
5 8 16 12 8 13 15 11 6 5 14 15 12 10 5 6 2 2 8 13 14 15 14 13 12 11 3 4 1 2 5 6 7 8 6 7 9 9 9 12 12 14 15 15 16 20 20 18 20
12 21 13 10 19 21 15 14 13 11 10 9 9 7 7 8 8 6 11 9 13 13 12 12 10 9 5 5 5 5 6 8 9 9 9 8 8 9 10 13 15 17 19 19 18 22 20 20 23
21 17 16 17 17 16 11 12 11 12 11 10 8 8 9 9 7 5 7 9 12 11 8 8 9 7 8 7 8 8 9 9 9 9 8 6 7 9 12 14 17 19 19 20 21 20 20 20 21
17 15 16 19 21 16 12 10 11 11 13 12 8 3 10 8 8 8 9 9 8 7 7 9 10 10 11 12 12 12 13 14 15 13 12 11 10 11 13 17 19 19 19 20 21 22 22 22 22
18 19 23 22 21 18 15 11 8 5 7 10 8 8 8 6 8 6 5 5 5 5 5 7 9 11 12 14 15 16 17 18 17 15 14 14 14 14 13 15 17 18 17 17 19 18 18 20 20
16 16 20 21 18 15 12 7 1 1 4 4 5 4 6 9 7 3 3 2 1 3 6 7 8 8 10 13 15 15 15 14 11 8 7 6 7 7 7 9 10 12 11 11 10 11 13 14 15
14 17 17 17 14 10 6 4 3 3 3 2 4 3 5 5 5 6 6 4 4 5 6 6 4 8 10 10 12 14 12 10 9 6 4 7 9 6 4 2 3 6 9 9 7 7 5 5 9
14 15 16 12 9 7 4 1 3 4 5 5 3 2 5 5 6 3 6 6 6 6 6 2 5 7 9 11 14 13 8 7 9 8 7 10 11 12 11 9 8 8 9 8 7 6 8 9 10
12 16 12 7 5 5 3 2 4 7 3 3 1 1 4 3 2 3 2 1 3 4 1 2 4 8 11 14 15 9 6 7 8 7 8 9 11 11 12 11 12 13 14 13 13 12 13 13 14
10 11 7 4 1 2 2 3 7 8 3 2 2 4 7 7 7 7 6 7 5 3 2 5 12 17 17 17 16 11 9 10 12 11 11 11 12 12 12 13 14 15 15 15 16 16 16 17 16
9 6 5 4 2 5 6 7 10 8 3 2 5 12 13 12 10 8 6 6 5 7 8 10 15 15 16 16 14 14 14 15 15 16 16 16 15 16 17 18 19 19 19 20 20 20 19 19 20
15 14 9 8 4 4 3 1 3 4 4 9 9 10 11 12 11 9 8 8 8 9 10 13 12 16 18 18 18 18 17 18 20 20 20 19 19 20 21 22 23 24 25 25 25 25 24 24 23
11 8 5 3 3 3 2 2 3 4 5 3 5 6 7 9 10 13 12 11 8 8 9 10 12 16 18 20 22 21 20 21 23 24 24 23 24 25 26 26 26 27 27 27 27 27 27 27 27
6 3 3 1 3 1 2 2 1 6 7 2 2 3 4 5 7 9 8 8 8 6 7 10 14 18 21 23 23 21 21 22 23 24 25 26 26 27 28 29 29 29 29 28 28 28 28 28 29
4 2 2 2 2 5 4 3 2 7 7 3 3 0 1 4 5 6 7 7 7 5 7 10 14 18 23 25 25 22 20 22 23 24 25 26 28 28 28 29 29 29 29 29 28 27 28 29 29
2 1 1 3 2 3 7 8 6 11 14 10 6 4 3 6 7 7 8 8 9 8 9 11 15 17 19 22 19 18 20 21 24 25 25 26 29 30 30 30 30 30 29 29 28 29 29 30 30
1 1 5 3 2 4 8 20 16 12 14 6 7 7 8 8 9 10 9 9 10 11 12 15 16 16 19 21 20 24 26 26 33 28 28 27 26 28 29 30 30 31 31 32 32 32 31 31 31
5 7 9 8 13 13 16 19 14 12 9 3 5 6 9 10 11 12 12 12 8 11 14 17 19 17 21 26 25 29 28 31 32 32 34 35 29 28 29 29 29 30 29 28 29 30 31 31 31
7 10 13 12 11 18 16 12 8 5 8 6 4 5 6 9 13 14 12 6 7 7 12 18 18 22 26 29 28 27 29 30 30 31 32 34 31 30 29 30 31 33 34 31 30 29 29 29 29
9 11 12 9 11 15 8 3 7 8 6 2 2 2 5 6 10 10 10 11 16 16 10 14 15 21 27 30 33 32 31 31 31 34 35 37 36 35 35 35 35 36 38 37 37 38 37 37 34
9 7 13 14 14 7 8 2 3 3 2 4 4 2 3 6 7 7 12 15 19 19 16 17 22 27 28 30 31 33 35 38 39 39 41 45 43 36 39 41 42 42 42 42 41 43 44 41 41
11 12 14 13 10 1 8 3 10 4 2 5 6 4 6 8 9 12 17 22 22 23 22 25 25 26 29 32 34 36 39 41 43 45 48 48 39 38 40 45 46 45 44 44 41 44 46 45 48
10 13 15 11 5 2 3 1 3 8 6 6 7 6 8 11 17 23 22 22 23 23 24 25 26 29 33 33 35 38 40 44 51 49 45 44 45 44 45 46 48 49 48 48 44 48 47 50 50
13 13 5 3 2 2 2 10 4 4 7 8 4 3 6 15 20 18 20 25 24 23 26 27 27 30 33 34 36 39 45 48 45 45 46 46 47 47 48 49 51 52 53 52 50 54 54 56 56
10 7 3 3 4 3 5 6 2 3 1 2 1 7 12 16 20 21 25 27 23 25 27 28 30 33 36 36 41 45 42 42 44 46 47 45 46 48 49 50 51 53 52 51 48 50 58 59 58
10 10 5 2 1 6 5 4 5 4 1 2 8 12 18 22 20 22 26 22 27 26 29 31 34 36 38 42 40 40 45 47 46 43 46 50 50 50 49 50 48 45 40 36 36 45 60 62 68
4 5 6 1 2 3 5 3 7 18 10 10 20 24 21 16 17 21 20 25 25 28 31 35 41 44 45 44 45 47 47 43 45 49 51 52 50 50 46 38 34 31 29 32 36 47 48 55 43
2 1 2 4 2 3 7 13 8 17 20 26 31 24 18 14 16 24 25 27 31 37 43 48 50 53 53 49 47 42 44 50 53 55 56 54 51 47 36 31 30 29 29 30 33 40 45 43 40
2 2 1 2 2 3 2 6 9 17 23 26 25 27 29 29 27 29 31 35 41 49 52 56 53 48 44 41 41 45 51 56 57 55 55 53 47 39 31 30 31 33 28 32 34 34 35 35 36
5 4 7 2 2 8 11 19 18 12 23 30 28 36 34 29 29 34 38 44 47 51 52 50 46 42 39 41 46 51 56 54 57 55 51 47 39 32 33 34 35 30 29 30 31 32 32 35 38

GFSSGP_700_spd_009.txt.gz
Wind_Speed
4 9 17 16 9 15 16 16 16 16 14 12 13 9 7 5 2 1 11 12 15 16 17 16 14 10 6 4 3 1 3 6 6 5 7 8 9 10 11 13 13 13 14 15 17 19 20 23 23
13 19 15 13 20 19 14 17 15 15 16 15 10 10 8 7 8 7 11 11 14 14 13 12 10 10 10 7 5 5 5 6 6 7 9 9 9 11 13 16 16 16 17 18 19 19 20 22 23
20 19 17 19 21 18 15 14 13 13 13 11 11 12 10 8 8 10 10 13 15 13 9 9 9 7 6 6 7 7 8 8 8 9 9 9 10 11 14 17 19 18 18 19 20 21 21 22 24
18 16 17 21 20 17 16 14 13 14 13 10 8 4 10 8 10 12 12 12 9 8 6 5 3 3 5 7 8 8 8 8 10 9 9 8 9 12 15 17 18 18 18 19 21 23 22 23 24
18 20 25 24 22 19 16 14 13 9 10 8 7 6 6 7 10 11 10 8 8 5 1 2 5 5 6 7 7 9 11 12 12 11 9 8 8 10 12 14 15 16 16 17 18 19 21 22 23
25 19 24 25 24 19 16 13 10 5 4 3 4 4 8 11 11 9 9 6 4 3 1 4 3 3 5 6 8 10 11 9 8 6 5 4 6 7 7 7 8 9 9 10 11 11 12 14 15
19 22 21 21 19 16 14 11 6 2 1 2 3 6 10 7 9 8 7 2 2 1 3 1 0 4 5 6 7 9 4 5 6 4 1 3 5 5 6 5 5 6 7 7 7 8 7 8 8
21 15 19 16 13 12 9 6 6 4 4 7 4 6 6 7 7 7 8 6 4 5 5 2 3 3 4 6 9 8 3 4 6 5 5 6 6 7 7 7 8 9 10 11 10 10 11 11 13
17 19 14 12 8 7 6 4 5 6 5 4 4 5 5 3 2 3 6 7 6 5 4 2 1 6 9 10 10 7 5 7 8 10 10 11 11 11 11 11 12 12 14 14 14 15 16 16 16
14 13 10 7 4 5 3 1 5 6 5 5 5 7 6 5 6 6 8 8 6 5 3 1 2 8 11 12 11 9 5 7 9 11 12 13 13 13 14 15 16 18 18 18 18 17 18 19 20
13 9 7 5 3 3 2 1 6 5 5 7 9 11 10 9 7 6 6 7 6 5 4 4 9 12 14 14 13 12 11 11 12 14 15 16 16 16 17 18 20 22 23 23 23 23 23 23 24
17 13 11 9 7 6 5 5 6 7 10 11 11 10 9 10 10 8 6 6 7 8 6 7 10 13 15 17 17 16 14 13 14 16 17 18 19 21 22 23 24 26 27 28 29 29 28 27 28
13 10 9 6 6 5 4 5 6 5 6 7 8 7 6 7 8 7 8 7 6 5 5 5 8 11 14 15 16 16 15 14 16 18 21 22 23 23 24 26 27 27 29 30 31 31 31 30 30
9 6 3 2 2 2 3 3 2 1 2 5 5 4 3 3 4 5 7 7 5 3 1 2 5 9 13 14 16 15 15 18 20 23 25 22 22 23 24 26 27 28 29 30 30 30 30 30 31
7 5 2 3 5 6 5 7 2 4 4 2 9 6 4 3 2 2 3 3 1 2 3 5 7 10 12 14 19 19 22 21 21 24 26 25 26 27 27 26 26 27 28 29 29 29 29 29 29
4 3 1 2 2 5 6 9 2 12 12 11 8 11 8 6 5 5 3 2 3 6 8 7 10 14 15 16 20 20 21 19 20 21 23 24 26 26 26 26 26 27 27 28 29 29 29 30 31
1 1 1 4 3 5 9 10 14 15 9 7 10 10 9 9 8 9 8 7 8 9 9 11 13 15 19 22 24 24 24 22 22 24 24 27 28 29 29 27 26 27 27 28 29 30 31 32 32
0 1 3 5 8 10 10 11 12 8 5 7 7 8 10 12 12 13 11 11 11 7 9 14 17 18 20 24 25 24 23 23 24 26 26 30 32 33 34 30 31 32 33 32 32 33 33 33 32
2 5 7 8 6 10 9 8 4 1 5 8 7 7 7 12 13 12 12 10 6 9 8 10 13 16 17 21 24 25 25 24 25 28 30 32 35 37 39 36 31 32 36 36 37 38 39 39 35
6 6 7 5 7 10 5 1 3 7 6 6 4 4 7 8 6 7 7 9 12 13 8 6 11 14 18 22 25 28 30 30 31 33 36 39 42 41 41 40 39 38 39 40 40 41 44 43 42
7 5 10 12 11 6 3 3 1 3 5 4 2 1 2 3 3 5 9 12 15 14 11 9 12 16 21 25 27 29 32 35 37 37 39 42 41 39 39 40 41 42 44 46 45 45 45 47 46
8 9 12 13 7 2 2 4 6 3 3 1 1 2 5 4 6 8 13 14 14 16 14 14 17 22 26 29 31 33 36 37 39 43 47 43 42 44 45 42 41 41 44 46 48 49 49 49 51
7 14 13 8 4 5 1 1 2 5 2 1 4 5 5 6 9 15 14 16 19 18 15 17 22 26 29 32 35 38 40 41 44 48 44 43 46 46 42 42 46 48 47 48 51 54 55 53 51
12 12 3 3 4 3 2 3 1 2 3 3 4 4 5 9 14 17 18 20 20 22 21 25 29 31 34 37 40 41 45 48 49 44 45 46 43 43 47 47 48 47 50 52 52 53 56 56 54
9 6 1 1 2 1 3 5 4 3 3 4 7 6 9 13 16 20 20 22 22 24 26 30 32 35 38 41 45 47 49 50 47 45 42 46 49 50 51 51 52 52 52 55 53 49 47 45 44
11 10 4 1 2 5 9 1 4 8 6 8 5 10 16 21 22 19 22 24 28 29 34 36 35 37 44 48 49 45 41 41 41 39 43 49 52 52 52 54 56 54 52 46 41 36 35 33 36
5 5 6 3 4 3 4 0 6 13 12 8 14 20 17 15 15 18 22 26 31 34 35 37 44 44 45 46 43 40 40 41 41 43 47 49 49 48 51 53 51 43 39 35 31 32 31 36 31
3 3 3 4 2 3 7 7 6 10 16 16 22 21 20 20 19 22 25 28 32 38 44 49 49 50 48 47 45 44 41 41 43 45 49 52 51 50 46 42 37 33 32 31 31 34 33 35 37
2 2 1 2 1 2 3 7 13 19 24 18 25 26 29 27 25 27 30 35 41 46 50 49 47 48 48 47 46 46 46 46 50 52 54 54 50 43 36 32 29 30 33 33 29 29 31 30 34
2 4 5 2 3 6 8 18 8 7 16 22 31 31 26 27 28 29 36 41 43 40 40 45 44 44 45 47 47 41 48 51 53 55 56 52 44 34 29 28 28 34 34 37 32 30 31 30 31

GFSSGP_700_spd_012.txt.gz
Wind_Speed
8 10 18 19 6 10 14 11 13 13 9 14 11 7 5 5 5 3 13 14 14 15 14 14 12 7 4 4 3 1 1 1 3 5 8 9 10 13 14 15 14 15 17 18 20 20 22 22 23
11 19 20 13 11 17 14 12 12 10 15 13 12 10 7 4 6 12 16 14 16 16 16 14 11 9 9 6 3 1 3 5 7 10 12 12 12 13 16 17 17 17 17 18 18 19 20 21 22
21 19 12 11 12 16 17 13 15 15 13 12 11 10 6 6 8 15 15 15 17 15 13 11 9 7 4 2 1 3 5 8 10 11 13 13 14 15 16 17 18 17 18 18 19 21 22 22 23
21 19 17 14 16 14 15 15 13 13 12 14 8 3 6 8 12 15 17 17 14 12 9 7 4 2 2 4 5 6 7 10 12 12 11 10 11 12 14 17 18 18 18 19 20 22 23 22 23
19 16 17 18 17 15 14 13 11 8 9 8 5 4 6 11 16 18 16 13 11 9 6 2 2 6 8 8 9 10 11 10 10 10 9 8 8 9 11 13 14 14 15 16 17 18 18 19 19
14 15 19 19 17 14 13 13 9 7 6 4 5 4 11 13 13 13 12 10 7 6 3 3 7 9 8 7 8 7 7 5 5 5 5 5 6 8 9 10 9 9 10 11 13 14 14 14 14
14 14 16 19 17 13 11 11 8 6 5 2 6 8 13 13 13 12 10 7 5 4 4 5 7 5 6 6 6 7 1 2 5 4 3 5 9 9 11 10 9 9 10 11 12 12 12 13 12
19 13 18 16 12 12 10 7 6 5 5 5 8 6 11 10 9 9 8 5 6 5 5 5 4 5 4 6 6 5 3 3 5 6 7 9 11 12 12 13 13 13 14 14 15 16 17 17 17
15 12 12 12 10 10 10 7 3 6 7 5 6 8 9 9 10 10 9 9 9 7 5 4 3 3 5 6 6 5 3 5 6 8 9 11 13 16 17 17 17 18 18 18 18 19 20 21 21
10 9 9 11 9 9 7 7 4 7 6 5 5 6 6 6 8 9 9 9 7 7 7 4 1 6 7 8 7 6 6 7 10 11 12 13 16 17 19 20 22 23 24 24 24 24 24 25 26
12 9 10 9 10 10 8 5 6 7 7 7 7 7 7 7 8 9 10 10 9 8 5 4 5 6 7 8 8 8 7 7 8 10 12 13 15 16 18 20 23 24 26 27 28 28 28 29 29
13 11 8 9 9 8 7 8 5 8 7 12 12 9 8 6 7 8 9 9 9 7 6 4 4 4 8 11 12 12 11 9 9 10 12 15 16 17 18 20 22 23 25 26 27 28 29 31 31
12 12 12 9 8 7 9 8 7 8 11 12 11 8 7 5 6 6 7 11 10 7 6 2 1 3 7 8 8 10 10 11 11 12 14 16 16 17 19 22 24 25 26 26 26 26 26 28 29
12 9 6 5 4 5 7 6 7 4 5 8 9 7 5 5 5 5 6 9 8 7 5 3 4 6 7 8 9 12 12 14 13 15 17 18 18 20 22 24 26 27 28 29 28 27 27 27 27
10 6 4 3 8 6 4 3 4 4 3 3 11 10 9 9 6 5 7 8 8 7 6 7 8 10 11 12 13 16 19 22 20 20 20 21 22 21 21 22 23 25 27 27 28 29 29 29 31
8 5 5 2 4 4 4 7 5 8 12 13 9 15 14 12 10 10 8 6 4 7 9 11 12 14 13 15 18 22 23 23 21 22 22 23 23 25 25 25 25 27 27 27 27 27 28 29 29
4 4 3 3 4 3 4 4 9 17 14 16 18 16 17 16 15 13 9 7 8 10 12 13 14 16 16 19 20 21 23 23 23 23 24 24 25 27 28 27 25 29 29 30 30 30 33 33 34
3 2 1 2 5 7 5 6 12 11 7 10 14 16 18 18 18 15 13 12 12 12 11 13 15 19 20 19 19 20 21 22 22 24 26 29 30 33 35 34 31 31 31 30 32 34 36 39 38
2 1 2 4 7 2 3 3 5 4 8 12 11 12 14 18 16 15 13 13 12 11 11 13 15 16 18 18 20 23 25 26 27 27 29 32 34 36 38 38 36 35 38 37 36 37 38 38 39
3 3 2 4 4 5 3 2 2 3 7 10 8 9 8 10 12 12 11 12 12 13 13 12 13 16 17 21 24 27 29 30 32 35 35 37 40 42 45 43 39 39 39 38 36 37 40 43 42
6 2 4 5 8 4 2 3 3 5 7 7 4 4 7 9 9 9 10 11 14 15 16 17 17 18 21 24 27 31 35 37 38 39 40 41 43 47 44 43 44 41 37 39 40 42 45 48 48
4 6 11 9 4 5 8 6 3 6 5 5 5 7 8 8 7 7 10 14 15 18 18 16 19 23 26 28 31 34 38 40 42 45 47 49 51 48 43 40 40 42 44 45 45 46 47 49 51
4 11 10 6 5 4 4 6 4 6 4 4 8 9 8 7 8 11 14 16 18 18 18 20 23 27 29 32 35 39 40 44 50 54 54 54 48 44 39 40 42 44 43 46 47 48 51 54 57
8 9 3 2 3 5 2 4 6 5 3 2 10 11 11 12 12 14 17 18 20 21 21 22 25 29 31 37 39 42 44 49 52 50 49 48 46 39 42 42 41 46 48 50 50 53 55 58 57
8 3 3 2 3 1 3 5 3 5 8 9 11 12 13 13 15 19 20 20 23 25 25 27 29 35 42 43 46 51 51 51 49 49 48 48 44 46 42 49 54 53 54 55 59 59 57 54 51
8 7 3 3 2 4 4 4 5 9 9 11 12 12 14 18 19 17 19 23 26 28 29 33 37 39 43 48 47 45 46 47 47 48 48 48 48 45 54 54 55 54 54 54 52 47 46 41 40
4 4 4 2 4 3 2 2 7 10 8 12 12 16 19 17 20 23 24 26 29 32 36 37 42 44 43 44 47 47 46 45 45 47 47 44 48 54 55 54 53 50 46 42 39 34 34 38 39
2 2 2 3 2 4 4 10 10 9 8 17 19 19 21 24 23 22 23 26 28 32 37 38 40 43 44 44 44 44 45 45 44 42 48 52 54 54 53 47 42 37 33 29 34 35 34 31 31
2 1 0 0 2 3 4 8 7 5 12 13 17 24 30 29 28 27 24 26 32 35 38 42 43 42 44 40 37 38 38 42 44 47 51 53 50 45 39 34 30 29 26 31 37 39 34 29 29
5 4 3 3 2 5 5 14 10 3 16 21 23 28 27 30 23 29 30 35 39 42 40 42 45 39 33 31 33 40 43 46 48 51 50 43 38 34 31 29 27 26 34 39 36 36 33 31 30

GFSSGP_700_spd_015.txt.gz
Wind_Speed
7 10 18 19 5 9 10 7 10 10 8 7 8 5 5 3 3 3 10 8 9 10 10 13 15 11 9 7 5 2 2 4 5 8 10 12 13 15 15 16 16 17 17 18 20 21 21 21 21
10 17 20 7 9 13 13 10 12 9 11 11 10 8 5 6 6 4 11 11 12 13 14 15 13 8 5 4 3 2 3 6 8 12 13 14 15 15 17 17 17 18 19 19 19 20 22 22 21
14 20 11 6 12 10 11 11 10 12 10 7 4 8 5 5 7 11 13 14 15 14 13 11 9 7 6 5 4 5 8 10 12 13 14 14 14 15 15 17 19 20 20 20 20 22 24 24 23
23 16 8 10 11 9 13 12 12 9 6 7 6 3 2 8 9 14 17 17 15 13 10 9 7 5 5 6 8 10 10 11 12 11 11 12 12 12 13 14 15 16 17 19 20 22 23 23 23
20 10 10 10 12 11 12 11 8 7 5 5 4 3 4 9 14 17 18 16 13 10 8 6 5 6 8 10 12 11 11 10 9 8 8 8 9 10 12 13 13 13 13 14 16 18 18 17 16
5 9 11 13 14 12 11 9 8 7 7 3 6 7 7 11 15 16 14 11 10 8 6 5 6 10 11 10 9 8 7 3 4 5 6 7 9 12 13 15 14 14 13 13 14 15 15 15 16
8 8 12 14 12 11 9 7 6 7 6 4 7 5 10 13 13 13 11 9 7 6 5 8 9 8 8 7 7 8 3 4 5 7 7 9 12 14 15 16 15 15 16 16 17 18 18 18 17
6 7 12 12 12 10 7 7 6 6 6 6 8 2 12 14 12 11 10 8 6 7 9 9 7 6 6 5 6 5 5 6 8 9 10 11 13 16 18 18 18 19 19 20 20 21 21 21 21
9 11 10 8 8 8 7 5 5 7 6 6 6 9 13 12 11 11 10 9 11 9 9 4 3 4 3 3 3 4 5 7 9 10 12 14 16 18 21 19 22 23 24 24 25 25 25 25 25
3 5 10 5 4 7 7 6 4 7 6 5 7 10 12 11 12 11 11 11 10 8 6 6 4 3 1 2 4 6 6 8 9 11 12 14 15 17 19 21 22 24 25 27 28 28 28 29 29
3 4 5 4 7 7 7 5 6 6 5 6 7 8 12 8 10 11 10 9 8 8 6 5 6 4 1 3 6 6 7 6 7 6 8 11 14 16 18 20 23 24 26 26 28 30 29 29 29
3 5 6 7 9 8 6 5 3 6 8 9 7 9 11 8 10 11 10 10 8 6 6 6 6 3 0 4 6 7 7 8 10 12 13 16 18 20 20 22 23 25 28 29 29 28 30 29 29
7 9 8 7 7 6 8 5 4 6 5 8 9 9 10 11 9 10 11 10 9 8 9 7 6 4 4 4 4 7 9 12 14 16 19 20 21 21 22 23 24 25 26 27 27 28 29 30 30
9 8 7 6 5 6 7 5 5 7 9 9 10 10 9 9 9 10 10 10 10 9 10 10 8 8 9 10 10 13 14 16 19 21 22 23 23 25 23 22 23 22 23 25 26 26 26 26 27
9 7 4 5 5 4 5 9 5 6 6 9 11 10 10 10 9 9 9 12 12 9 9 13 11 14 14 15 17 17 18 19 21 25 26 25 25 24 24 25 24 23 23 25 27 27 27 27 27
7 7 10 6 6 7 7 13 11 7 6 8 10 14 13 12 11 10 9 9 10 10 11 13 15 17 18 20 20 20 22 22 23 25 26 24 23 24 24 24 25 26 25 26 29 31 32 32 32
8 13 5 5 7 6 8 1 7 8 12 13 15 11 12 13 14 13 13 11 10 10 14 15 19 18 22 25 23 23 23 21 22 24 25 29 28 30 30 31 30 32 31 31 32 30 33 35 36
8 5 7 4 4 5 9 10 11 11 14 11 12 14 14 14 14 14 16 18 17 18 17 19 21 22 24 25 23 23 23 25 28 30 31 33 33 35 37 38 39 38 40 37 37 37 35 35 35
1 3 4 3 7 4 8 7 7 4 1 7 8 10 11 12 20 27 20 20 20 19 18 17 17 19 21 23 22 24 25 29 32 35 39 38 40 42 44 44 46 47 48 41 40 37 36 35 35
2 4 3 6 4 3 6 6 3 2 7 7 7 8 11 15 16 20 20 18 15 12 12 14 15 16 19 23 24 26 29 32 35 38 41 41 45 44 47 50 52 53 49 45 40 36 37 39 39
4 4 4 7 9 11 9 11 7 5 7 9 11 11 10 9 6 13 13 13 13 15 17 19 22 23 22 25 29 31 33 36 38 40 42 43 46 51 53 53 53 49 44 42 40 41 43 43 41
7 4 9 10 8 8 9 5 10 8 8 9 9 8 7 6 7 9 11 12 15 17 20 23 24 24 25 29 33 34 37 40 41 44 49 53 55 53 49 48 49 49 44 46 47 43 44 48 49
5 10 8 7 8 9 10 12 12 11 8 5 6 5 4 10 11 12 14 16 18 21 24 26 27 29 30 33 35 38 42 45 46 51 55 52 52 51 50 48 48 45 46 48 46 51 54 55 57
5 7 6 4 4 6 2 8 10 9 8 6 6 4 4 10 15 16 17 21 25 25 24 25 27 30 33 33 39 44 47 50 50 50 51 51 51 51 50 50 50 50 51 51 59 59 58 59 60
7 6 6 3 4 1 2 7 4 4 6 7 5 3 6 15 15 16 17 13 22 27 27 27 27 30 38 44 45 47 49 47 47 47 48 49 51 51 51 51 51 51 56 63 63 61 59 59 50
6 4 4 4 3 6 3 6 8 6 4 6 5 5 9 17 18 20 21 22 24 29 31 32 33 33 39 44 46 45 45 46 47 47 46 47 47 46 47 50 55 59 57 52 51 46 41 39 42
4 3 1 1 2 3 6 4 6 8 5 3 3 3 5 6 9 11 13 15 29 31 33 34 34 35 40 42 42 42 41 42 42 43 43 44 46 50 53 54 54 51 49 43 38 34 33 37 37
2 1 4 3 3 4 3 12 6 7 6 6 7 9 11 12 13 16 18 21 27 33 34 40 44 45 45 40 37 38 39 40 42 44 47 50 52 53 52 47 40 40 35 33 31 32 37 38 33
4 2 3 5 4 4 5 7 4 5 7 7 10 14 16 15 16 19 22 24 27 27 33 38 41 41 36 36 40 40 41 44 46 49 50 52 50 46 37 33 28 29 30 31 32 35 37 37 36
2 3 4 4 4 6 7 15 6 2 8 12 14 14 17 18 16 19 23 25 29 36 42 42 37 33 35 36 37 39 43 46 46 49 50 50 45 34 31 34 34 34 36 35 32 31 34 36 31

GFSSGP_700_spd_018.txt.gz
Wind_Speed
5 9 15 17 5 9 16 6 8 6 5 8 10 12 8 3 3 12 13 7 10 10 11 13 13 12 8 5 4 3 3 3 4 7 10 13 14 14 14 15 15 17 19 19 20 20 20 22 23
8 12 18 12 12 21 7 12 8 11 10 12 12 3 5 6 6 3 12 10 7 7 12 13 15 10 7 5 5 5 5 7 8 11 13 14 14 15 15 16 17 18 19 20 20 20 20 21 22
11 14 19 5 14 26 15 10 13 10 11 6 4 8 9 12 8 7 10 10 9 8 11 12 9 6 4 5 5 7 10 11 12 14 15 13 12 11 12 13 15 16 17 18 19 20 21 22 23
17 18 10 10 9 11 17 14 12 8 6 4 3 2 9 6 8 9 11 11 10 11 10 8 5 4 6 8 10 13 14 14 14 13 10 8 8 8 10 12 14 16 16 15 15 16 17 18 19
21 16 12 12 7 11 11 10 8 8 5 6 3 12 9 7 7 13 13 12 10 9 6 5 5 6 9 11 12 12 11 10 7 5 6 7 7 8 12 13 15 16 17 16 15 15 15 16 15
18 8 13 12 13 8 9 7 3 5 8 5 5 9 7 6 9 12 12 12 7 6 5 4 6 10 11 10 7 7 7 3 4 6 7 8 9 11 13 15 16 17 18 18 19 20 20 20 18
8 9 22 15 12 8 6 5 4 3 3 5 7 6 8 11 9 12 10 7 4 4 5 7 10 11 8 5 7 7 4 4 7 9 9 10 12 14 15 17 19 19 20 20 20 21 22 22 21
11 17 18 10 10 12 7 5 6 5 9 10 3 6 9 13 10 10 8 6 6 8 9 10 10 5 3 6 6 6 6 6 8 9 11 13 14 16 16 16 18 19 20 21 23 23 24 25 24
7 13 10 9 9 10 7 6 7 6 3 4 6 2 14 8 9 10 9 9 8 9 9 10 6 5 8 3 5 5 6 8 9 11 12 15 15 17 20 18 20 21 22 24 25 25 27 28 27
6 8 12 9 9 8 6 5 3 7 4 5 6 8 14 12 11 11 10 9 8 8 7 4 5 3 3 5 5 4 6 6 9 11 12 15 16 18 20 23 23 23 23 24 25 26 26 27 28
3 9 8 9 5 5 7 3 7 6 3 5 7 12 7 11 10 9 5 3 2 4 2 11 5 3 3 2 3 6 9 10 12 12 14 17 19 22 23 25 27 29 29 30 29 28 28 27 25
1 3 5 7 13 7 5 5 4 4 10 7 8 10 9 7 6 7 7 7 2 10 8 15 4 6 4 3 3 3 7 10 13 16 18 20 22 24 25 26 26 26 26 26 25 24 25 26 26
3 5 7 8 12 8 7 5 3 6 9 9 8 9 10 7 6 7 7 10 7 7 10 15 12 9 6 4 6 8 12 15 18 21 22 22 24 26 27 29 28 27 26 25 24 25 26 27 28
7 7 8 7 6 5 9 4 6 7 7 9 10 6 6 5 7 6 10 11 12 11 13 17 19 11 6 10 12 15 17 19 21 24 24 25 26 26 25 24 24 24 23 21 21 22 23 24 25
8 7 6 6 4 1 6 8 7 10 9 8 8 8 8 6 8 11 11 13 10 8 12 19 24 20 14 15 17 19 23 21 22 25 24 24 24 23 25 26 27 27 27 26 26 27 31 32 31
7 6 7 8 7 6 7 8 13 9 6 7 9 9 11 10 10 12 12 14 12 7 13 7 16 27 21 19 22 23 26 23 23 27 28 30 31 28 27 29 31 34 34 33 33 34 35 34 33
7 10 8 7 7 6 8 10 10 5 8 10 10 12 12 12 13 12 11 11 14 13 16 18 21 28 23 23 24 26 26 25 25 25 25 33 35 35 35 36 37 38 41 41 41 41 41 41 40
14 8 3 6 7 4 7 9 5 6 9 14 14 15 11 11 12 18 22 21 20 22 19 17 22 24 25 23 23 26 28 27 29 29 32 36 36 38 40 41 42 45 46 47 49 48 48 45 44
7 5 3 8 2 10 9 11 8 9 5 4 8 11 11 15 20 24 24 28 21 19 20 24 19 16 19 23 24 26 27 29 28 31 34 38 41 40 42 45 46 49 53 52 49 47 46 44 43
4 4 6 4 8 5 6 9 10 2 4 6 8 10 15 19 24 26 25 25 19 16 12 14 16 17 19 23 24 26 29 31 32 34 44 43 47 48 47 52 54 53 49 47 46 45 46 45 42
5 4 4 4 10 13 13 12 11 6 8 10 11 12 12 18 23 26 24 14 12 13 14 17 21 23 24 24 28 28 31 32 37 42 44 48 48 48 50 50 49 50 50 50 47 46 44 46 44
6 2 6 9 10 14 14 12 13 11 10 11 14 17 12 10 8 7 9 11 13 15 18 20 25 30 30 29 31 33 37 39 41 44 45 49 48 48 49 48 49 50 51 51 50 49 49 50 53
5 11 9 8 10 11 13 11 21 15 13 11 10 10 11 10 8 9 11 17 19 19 21 24 27 31 34 31 32 34 37 40 43 44 46 47 48 48 50 49 50 50 50 50 51 53 53 53 53
5 8 9 8 8 6 12 3 6 8 13 12 9 8 5 2 9 12 15 18 24 27 29 27 26 27 30 38 39 39 40 42 46 47 48 49 49 48 47 48 49 49 51 52 53 54 56 58 58
8 8 8 3 5 1 2 3 10 10 10 10 7 5 6 5 6 3 2 7 16 25 29 29 29 29 32 35 40 44 48 51 50 48 45 43 44 45 45 48 51 53 57 58 58 56 51 44 38
5 4 4 4 4 6 5 4 11 10 8 13 13 7 3 4 8 8 13 17 21 26 30 29 31 32 35 40 45 49 51 47 41 42 42 42 45 47 50 52 53 53 53 52 47 41 40 37 36
4 4 3 3 3 3 7 10 11 7 6 6 4 2 3 5 8 11 11 18 26 33 34 32 34 37 40 43 45 42 40 43 42 40 43 45 46 46 49 50 52 52 48 37 33 34 32 33 36
6 3 3 4 2 3 11 9 7 5 4 5 4 2 6 10 11 14 19 18 25 35 37 34 39 44 47 43 38 41 40 41 43 43 44 45 47 49 49 48 44 34 35 36 36 36 35 35 32
3 2 3 4 3 2 3 1 8 5 4 4 8 10 13 12 13 18 22 30 36 34 40 35 44 44 41 38 41 40 39 41 42 46 46 47 48 48 44 40 33 35 36 37 36 37 34 30 31
2 1 3 1 4 5 6 16 14 2 5 8 11 13 10 8 16 29 29 32 37 41 39 43 41 41 37 43 39 38 38 41 43 46 45 45 45 42 40 37 36 32 32 33 36 37 37 35 32

GFSSGP_700_spd_024.txt.gz
Wind_Speed
11 12 12 13 7 2 9 4 11 8 13 10 16 15 12 14 15 7 13 12 9 11 15 13 11 12 10 4 6 8 5 4 5 9 14 15 17 17 15 12 10 10 11 13 14 15 15 15 16
14 15 14 11 6 10 9 8 11 15 2 3 4 3 6 8 7 8 14 15 8 12 13 12 10 10 8 6 5 4 6 8 11 15 17 16 13 9 6 6 7 8 11 12 13 13 12 12 12
11 10 10 4 7 14 11 11 17 12 7 8 6 5 1 5 9 9 10 10 13 12 11 10 10 10 6 4 5 8 11 15 16 16 13 9 6 5 6 7 9 11 12 13 13 12 11 12 12
6 10 10 5 9 8 20 20 14 12 9 6 3 2 5 7 8 6 13 13 13 11 10 10 10 7 4 5 10 13 13 12 10 7 3 4 6 8 9 12 13 14 14 14 14 14 13 13 12
12 11 8 3 16 25 16 17 15 15 11 8 3 6 6 7 5 5 12 13 13 13 12 10 7 4 6 10 11 7 5 4 2 4 6 9 10 12 13 13 14 14 15 15 16 15 16 16 16
16 12 9 2 11 10 10 13 12 9 9 8 3 5 6 4 5 11 13 14 14 11 9 6 5 6 9 8 3 5 5 3 5 8 11 12 13 13 14 14 15 16 17 18 18 18 17 17 18
16 11 9 7 17 21 15 15 5 7 4 9 1 1 5 5 12 13 14 14 11 9 6 4 6 8 6 3 5 5 5 6 8 10 10 10 11 13 15 17 19 19 20 21 21 21 21 20 18
13 6 4 9 15 14 10 12 12 12 12 8 3 4 4 4 11 12 13 11 9 7 4 6 7 5 4 5 4 5 6 5 6 8 10 11 12 13 15 17 19 20 21 23 23 23 22 21 20
4 4 7 8 22 20 18 11 11 8 4 3 2 5 6 9 12 13 11 10 7 6 6 6 4 3 4 3 3 3 5 8 10 10 12 14 18 20 20 20 21 22 23 23 24 23 23 21 19
7 7 4 16 19 23 15 11 6 5 7 10 8 9 4 8 8 8 9 7 6 6 2 3 2 0 3 5 6 7 7 8 10 13 15 18 22 24 24 24 23 23 24 24 23 22 21 20 18
1 6 10 16 16 12 10 11 6 9 3 2 8 11 6 6 6 8 7 5 2 7 10 12 9 7 5 4 3 2 4 7 12 15 18 21 22 24 25 24 23 24 25 22 21 22 23 22 21
11 9 10 13 12 9 9 9 8 5 3 1 3 4 1 5 9 10 7 4 3 10 11 14 12 9 7 8 7 9 10 12 13 17 20 22 25 25 26 26 24 25 25 23 22 24 25 25 25
11 5 8 17 16 10 14 14 5 4 9 5 3 2 3 1 5 8 6 3 2 7 7 10 10 9 8 9 12 10 15 16 16 17 19 21 24 25 29 27 26 27 26 25 26 26 26 27 28
9 8 9 13 16 15 13 9 7 5 5 6 6 4 2 5 7 4 6 3 5 7 6 12 14 16 16 11 13 15 18 22 18 18 20 23 24 27 29 28 29 29 29 30 32 34 34 33 33
2 3 8 12 16 14 11 11 9 11 8 6 4 2 3 2 3 4 3 5 7 11 10 13 10 13 12 6 8 17 18 22 22 24 25 26 26 28 28 29 30 32 33 36 39 40 41 41 38
6 4 4 6 9 10 11 7 14 13 12 6 1 1 3 4 3 3 8 10 7 11 12 13 16 14 12 11 16 19 17 20 25 26 28 31 30 30 30 32 37 38 40 42 45 42 44 44 43
10 9 15 9 9 5 6 3 17 18 12 5 2 6 6 11 10 13 14 15 14 16 16 16 20 18 15 21 22 18 17 20 25 27 28 28 29 32 33 36 38 43 44 45 46 46 45 45 44
11 13 19 18 15 10 7 3 10 20 12 5 10 17 17 19 19 21 22 21 20 19 19 20 19 18 22 23 19 17 19 23 27 31 33 34 35 37 37 38 44 45 48 50 48 47 46 46 47
2 8 13 18 14 13 7 3 15 15 17 17 18 18 23 21 25 26 28 24 22 21 21 22 24 25 20 15 17 19 23 26 29 32 32 34 35 37 39 46 44 47 49 51 52 52 51 50 50
7 14 15 14 14 5 3 11 18 19 18 15 15 14 17 23 27 28 25 22 22 21 27 22 22 16 14 16 19 21 23 26 27 29 32 36 38 39 42 44 47 51 52 50 49 49 49 47 48
7 14 15 7 4 1 2 13 15 13 17 16 14 12 14 22 25 26 24 25 26 21 14 18 18 18 21 24 27 28 27 27 30 32 34 35 37 41 47 51 51 49 47 47 48 48 48 48 49
4 3 1 4 7 2 3 6 17 19 17 17 17 17 18 20 19 19 19 21 17 16 18 18 20 23 25 28 26 24 26 26 27 30 35 38 41 44 45 46 48 50 50 49 49 49 49 49 50
2 3 2 5 3 2 4 6 16 18 18 18 17 19 19 17 18 20 19 16 18 22 24 24 24 28 27 28 29 31 34 36 39 42 41 41 41 42 45 47 48 49 51 51 50 51 51 51 52
2 2 3 4 3 2 8 7 24 21 18 15 13 13 14 18 17 14 12 14 15 18 17 24 27 30 33 35 35 37 37 41 46 44 43 42 43 46 47 47 48 48 49 49 50 50 50 49 48
3 2 2 3 2 3 4 4 5 18 19 18 20 18 17 15 16 16 18 24 24 21 25 31 33 35 38 43 44 44 43 45 49 47 44 46 43 43 45 49 50 50 51 50 49 49 47 45 41
6 7 4 4 2 3 1 5 6 10 19 18 14 13 6 15 18 19 16 19 20 25 26 31 33 35 39 46 46 45 45 45 44 44 49 45 44 46 46 48 49 47 47 48 48 47 45 43 41
4 7 6 4 2 1 4 11 9 8 10 11 15 18 8 10 14 14 15 18 21 22 25 29 34 39 46 46 43 44 43 43 45 46 44 43 43 45 49 48 43 41 44 47 47 45 42 41 40
7 7 2 3 2 1 2 6 6 12 8 10 7 12 13 13 12 15 18 20 23 27 28 33 42 41 42 42 44 42 41 44 46 47 45 44 42 49 48 46 46 44 42 45 44 45 41 37 36
6 4 3 2 1 4 2 3 3 13 13 14 12 10 7 12 15 16 22 25 30 31 34 44 45 42 43 42 41 41 44 45 46 48 48 48 49 50 42 47 44 35 35 37 41 42 40 38 35
4 4 3 2 3 3 1 4 5 4 12 17 11 15 18 22 26 31 24 27 34 39 42 46 40 42 42 40 40 42 45 47 49 50 51 54 46 47 49 50 34 30 34 35 40 39 35 32 31

GFSSGP_700_spd_027.txt.gz
Wind_Speed
9 11 14 13 9 7 8 9 8 16 14 14 16 14 13 13 13 4 15 15 13 12 13 12 11 10 10 5 4 6 4 4 6 9 13 17 19 17 12 8 7 7 10 12 13 13 10 8 8
12 9 11 15 6 11 2 16 15 3 16 15 11 8 11 10 2 2 15 17 16 13 14 12 11 10 9 6 7 5 6 8 11 14 18 18 13 7 6 8 10 11 13 13 13 13 13 12 11
7 8 14 7 10 15 1 11 13 10 9 6 2 5 4 6 6 12 15 14 15 16 14 12 10 9 7 6 5 8 11 14 16 16 13 8 6 8 10 11 12 13 13 13 14 14 14 14 14
6 13 14 9 8 15 10 17 17 14 11 8 6 8 5 8 7 8 11 15 17 16 14 12 9 9 7 6 9 13 14 10 7 6 5 7 9 10 11 13 14 14 14 14 14 14 14 14 15
7 12 12 6 5 5 14 17 9 11 15 9 6 9 1 9 9 12 14 17 15 14 13 11 10 8 5 7 12 7 6 4 5 6 7 8 9 11 12 11 12 14 14 14 15 15 15 15 15
9 11 10 3 7 15 16 16 17 14 10 9 7 5 4 11 9 13 15 16 16 12 12 10 8 3 6 8 3 3 3 4 5 7 8 11 12 13 14 15 14 15 15 16 17 16 16 15 14
16 14 12 10 9 11 16 14 12 7 8 5 4 4 7 12 16 15 16 17 16 13 9 6 3 5 6 3 1 3 5 6 8 10 11 14 15 15 16 17 17 17 18 19 19 19 19 17 15
20 12 10 7 12 11 9 5 6 8 5 3 0 3 7 11 16 15 16 14 12 8 5 5 6 5 3 1 3 5 6 7 9 11 13 13 14 16 18 19 19 19 20 21 22 21 20 18 17
15 10 9 9 14 15 11 13 16 11 6 6 2 3 6 6 14 14 13 10 7 4 5 7 6 2 3 4 4 6 6 7 9 9 10 12 16 19 22 23 24 24 24 24 24 21 19 19 17
11 8 5 12 22 18 20 23 17 10 4 4 4 5 7 9 11 10 9 7 5 3 3 2 1 2 4 4 4 6 6 6 6 8 11 15 18 20 22 25 26 26 25 25 25 24 23 24 23
6 1 6 21 17 9 22 14 6 4 1 1 3 4 3 9 11 10 9 7 5 10 9 8 6 5 5 5 3 4 4 7 10 12 15 17 19 21 23 26 28 28 27 26 24 23 24 26 26
6 12 13 17 20 18 14 11 8 5 2 3 6 7 4 6 7 8 10 9 8 7 11 10 14 9 7 4 2 4 7 10 13 16 17 17 19 22 22 27 27 28 28 27 26 27 28 30 30
14 12 8 12 12 14 12 10 4 4 5 2 2 5 6 5 2 5 9 10 8 7 9 13 11 10 4 10 7 5 12 14 15 18 20 21 22 24 25 27 26 28 31 31 31 32 33 36 38
14 12 11 17 16 12 11 10 4 5 6 2 2 5 6 9 12 8 6 5 4 5 4 8 6 9 13 14 11 10 16 17 17 19 21 23 23 25 28 29 29 31 34 36 37 37 41 43 42
10 9 13 16 17 15 11 7 8 6 3 3 7 6 6 5 6 6 4 5 4 6 4 5 7 8 8 9 13 16 19 19 17 19 21 23 26 28 31 34 35 37 38 39 40 42 44 44 45
8 5 11 17 14 13 11 10 9 8 10 5 5 4 6 9 8 9 9 6 5 5 11 13 11 11 10 13 13 19 22 21 21 23 25 29 31 33 34 35 37 38 40 43 46 45 46 46 46
8 5 5 6 10 9 12 2 14 15 12 6 7 8 9 12 14 14 14 12 13 15 18 19 16 17 12 14 17 22 22 21 23 26 29 31 33 34 35 37 39 40 43 45 50 49 52 53 53
8 10 12 13 8 11 8 8 7 20 15 11 11 11 13 16 17 17 17 17 16 17 19 19 17 18 15 25 21 20 20 22 25 27 29 31 32 34 36 36 39 43 47 50 53 54 54 56 58
5 10 14 10 15 15 11 11 11 21 19 16 17 18 19 20 22 21 20 19 15 15 18 19 19 21 23 17 17 20 21 25 26 27 29 30 32 35 38 42 45 49 51 53 56 57 55 52 52
3 3 13 13 11 10 8 11 15 25 24 20 21 23 25 27 27 27 23 19 20 21 19 21 21 17 16 17 20 22 24 23 24 26 28 31 35 39 42 45 47 51 52 51 51 52 54 54 55
13 12 17 14 10 4 8 13 14 17 19 20 18 19 20 22 24 24 20 19 18 19 18 14 13 13 14 16 19 21 23 24 26 29 29 33 37 40 42 44 46 49 51 52 53 53 53 53 52
10 12 9 6 7 6 11 4 8 13 16 16 16 16 16 17 18 11 12 8 9 9 10 12 14 17 20 18 17 18 21 26 29 33 38 41 43 44 45 47 50 51 51 51 51 53 54 55 56
5 6 4 4 3 5 3 5 12 17 18 18 17 14 13 11 9 8 7 8 6 8 14 13 16 21 24 27 31 33 36 37 39 40 42 44 46 46 47 51 51 51 52 54 54 53 52 51 51
7 7 7 6 3 2 2 5 17 26 25 22 18 15 12 12 10 8 7 9 10 14 16 19 23 27 31 36 39 41 43 41 40 42 45 46 46 48 50 50 50 48 46 48 50 45 43 43 45
4 8 3 1 1 4 1 3 5 24 20 19 17 14 13 8 8 12 15 24 21 27 27 25 28 30 33 39 42 42 41 41 43 44 46 46 46 46 45 46 47 47 49 47 44 43 44 45 44
3 3 4 5 3 3 1 1 2 18 17 19 16 15 15 11 11 19 30 25 24 28 25 26 29 33 35 42 48 44 43 45 45 45 45 46 45 44 42 43 46 49 45 44 40 39 36 38 40
3 3 4 5 3 2 2 3 3 5 16 20 16 12 16 27 27 24 23 23 26 23 24 29 34 39 42 46 48 44 45 44 43 44 45 45 46 46 49 49 42 44 46 49 41 37 35 38 41
6 5 1 2 2 1 3 6 6 18 18 16 18 22 22 19 19 21 23 24 24 28 29 31 36 41 44 46 43 42 41 42 43 43 45 49 50 49 52 49 46 46 51 47 28 33 34 36 37
7 2 2 3 2 5 1 5 12 14 19 17 17 17 16 16 18 21 24 27 31 29 29 35 42 44 43 41 40 39 41 43 44 46 48 52 54 53 56 54 46 45 45 26 27 33 37 37 36
6 4 3 1 3 4 2 5 11 10 14 17 19 18 17 19 21 24 27 28 30 29 35 39 41 41 40 40 39 41 43 45 46 49 51 52 57 60 49 42 41 43 44 33 30 32 35 38 34

GFSSGP_700_spd_030.txt.gz
Wind_Speed
8 8 7 7 7 17 13 5 2 4 13 16 25 13 11 9 5 2 17 18 17 17 17 15 13 11 10 7 1 4 3 3 5 8 11 15 16 12 8 9 10 11 12 13 13 13 13 12 12
10 8 8 12 9 12 10 10 5 9 7 12 11 2 6 9 7 8 13 12 17 17 16 15 12 10 9 4 4 3 5 7 10 13 15 12 7 7 8 11 12 12 13 13 14 14 14 14 14
10 12 12 7 11 14 2 8 9 20 18 11 15 11 7 6 4 6 13 16 15 16 17 14 12 9 6 2 2 6 10 13 11 8 5 6 7 9 11 12 12 12 13 13 13 14 14 15 15
8 10 9 7 8 11 11 11 17 13 15 11 12 12 8 4 3 8 14 14 17 18 16 13 10 8 5 2 5 10 10 5 5 8 8 8 10 11 12 12 13 13 13 14 14 14 15 16 16
8 8 8 7 1 7 15 14 14 4 9 9 7 8 4 10 11 12 15 18 18 16 14 12 9 7 3 4 8 5 3 5 6 7 9 10 11 12 13 13 13 14 14 14 14 14 14 14 14
10 10 8 5 12 7 16 16 13 4 11 6 10 5 10 15 14 13 17 18 17 13 12 12 9 5 3 6 4 1 5 6 7 9 12 13 14 15 15 15 15 16 16 16 17 18 17 16 14
11 10 9 12 12 16 16 14 13 6 9 8 6 6 6 18 21 16 19 18 17 15 13 9 5 3 4 2 2 5 6 8 10 11 11 11 12 13 15 16 17 17 17 19 20 22 21 19 18
12 13 9 9 16 16 8 15 8 8 2 8 8 2 3 13 20 19 19 18 17 14 10 5 3 3 1 4 6 8 9 10 9 9 9 10 11 13 15 17 20 21 22 22 21 20 19 18 18
11 10 9 11 14 19 7 6 5 14 14 11 4 4 4 13 18 18 15 15 12 9 5 5 4 4 6 6 7 9 9 8 7 7 7 10 13 15 17 18 21 25 24 24 24 22 20 20 21
13 13 9 9 17 11 1 2 15 19 11 5 5 2 5 10 14 13 11 9 7 4 6 5 5 7 8 9 9 7 7 5 4 7 10 14 16 17 19 19 22 25 25 24 24 23 23 23 24
9 9 11 12 17 19 18 16 17 11 3 2 3 5 11 12 13 12 11 10 6 5 7 6 7 9 9 9 7 5 3 4 6 9 12 14 17 19 21 21 21 24 26 27 26 25 25 26 27
7 3 6 21 15 13 16 14 18 8 2 5 11 8 7 9 9 10 10 7 10 9 13 13 12 11 12 6 4 2 2 8 11 13 14 15 17 19 22 21 22 25 27 28 30 30 30 32 32
7 9 5 19 12 12 15 11 5 5 3 2 8 12 11 8 9 10 9 12 9 10 12 10 11 10 8 7 1 1 3 10 13 16 18 18 18 21 24 25 27 28 29 30 31 33 35 36 38
12 10 12 16 14 12 10 10 5 5 4 1 8 12 17 17 13 11 7 8 6 6 5 6 3 4 2 1 4 5 7 12 15 19 21 21 22 24 28 29 30 31 32 33 36 37 39 42 43
11 11 14 17 15 13 11 9 7 4 3 7 9 12 12 12 13 12 10 10 7 4 6 8 7 8 6 4 6 7 11 17 19 20 20 20 23 27 29 31 32 34 35 38 39 41 44 46 47
9 7 13 13 15 12 10 6 6 3 4 7 8 10 8 8 10 12 9 8 5 8 11 15 16 15 12 6 11 13 22 18 20 20 21 23 26 30 31 32 34 37 40 42 43 48 50 51 52
9 8 5 13 12 11 12 1 7 7 7 4 6 7 10 11 10 10 10 9 9 10 14 21 22 24 18 14 15 15 14 18 20 23 25 26 28 30 32 33 37 41 43 45 51 52 54 56 56
9 8 6 7 10 7 7 11 8 8 13 11 10 11 13 13 14 14 13 15 12 13 17 24 28 26 24 18 15 16 15 18 21 24 26 27 29 30 31 37 41 44 48 50 52 54 55 58 59
3 5 9 10 14 10 13 11 10 12 18 17 15 15 17 16 17 18 18 17 17 17 18 20 22 20 19 20 18 14 15 19 23 27 28 30 31 34 37 41 44 48 50 52 52 52 53 56 58
2 3 1 7 10 14 14 14 14 14 18 20 18 18 21 22 22 23 22 20 21 16 13 13 16 16 13 11 15 20 23 24 24 25 28 32 36 39 41 44 46 48 49 51 53 56 56 56 57
5 6 10 9 10 8 9 11 11 14 18 21 20 23 24 25 25 22 18 12 14 16 14 11 9 11 14 17 19 19 21 22 26 28 30 33 36 39 42 46 49 51 52 53 54 54 55 55 53
9 8 5 6 6 4 8 6 12 14 19 22 23 21 16 14 12 9 6 8 9 4 4 8 10 11 12 15 20 27 30 33 36 36 36 38 41 44 46 47 49 50 51 52 53 55 56 56 54
7 8 7 6 5 5 8 5 10 14 16 17 18 15 11 8 8 6 5 8 5 1 8 12 15 20 23 26 28 35 35 39 41 38 40 42 44 45 46 48 50 52 54 55 54 54 52 49 46
7 8 7 5 3 2 4 8 9 18 20 19 17 13 11 11 9 15 11 5 6 17 22 23 22 23 26 28 32 35 39 43 39 39 41 42 44 45 47 49 50 49 49 50 48 48 47 44 44
5 6 0 1 1 4 3 6 11 15 19 18 16 15 14 13 12 11 12 17 28 19 16 20 23 26 27 32 36 39 42 40 38 40 42 43 45 47 48 48 49 49 51 50 52 46 45 46 45
4 8 5 5 3 3 3 5 5 9 20 17 16 16 18 13 10 16 26 29 26 19 22 25 28 29 31 35 40 42 41 40 41 43 46 48 49 49 50 51 53 53 55 52 45 43 45 37 33
5 4 5 2 1 1 3 6 8 8 21 19 23 23 17 13 19 26 24 20 23 26 27 28 30 29 32 38 42 40 41 43 44 47 48 48 49 52 54 55 55 54 38 37 41 43 26 27 30
7 6 2 2 2 3 4 7 12 9 13 20 23 20 15 17 19 21 21 22 24 27 29 33 34 30 35 42 41 40 41 42 44 45 48 50 52 54 54 56 50 45 41 44 42 37 34 29 33
9 5 3 3 2 4 1 5 8 12 12 12 14 16 18 19 19 20 22 25 26 29 33 31 31 32 38 38 38 39 40 42 44 47 48 50 53 56 53 49 47 45 42 41 38 38 32 29 32
9 8 7 3 4 4 2 7 7 9 12 14 15 18 20 22 23 24 25 27 28 32 29 33 37 40 34 37 37 39 41 44 45 48 52 55 55 51 49 44 41 39 37 34 31 34 28 33 35

GFSSGP_700_spd_033.txt.gz
Wind_Speed
9 8 8 5 5 6 13 1 0 8 6 10 14 17 11 13 12 3 11 22 20 19 21 20 17 13 11 7 3 3 3 2 3 6 9 13 9 6 8 9 10 9 10 10 10 11 12 11 11
12 9 10 9 6 6 12 7 11 8 6 20 12 10 9 12 11 14 20 10 12 22 20 18 16 13 10 5 1 2 3 5 8 10 9 3 5 7 8 9 9 10 10 10 11 11 11 12 12
12 10 11 6 12 10 8 5 8 11 17 11 13 12 3 5 11 7 8 19 22 23 20 17 14 12 9 4 2 3 6 8 5 1 5 8 8 8 9 10 12 12 12 12 13 13 13 13 13
12 13 12 9 6 7 7 11 15 22 12 5 6 11 12 3 1 7 16 21 22 23 19 15 12 12 9 4 1 5 4 3 7 8 8 9 10 11 11 12 12 13 14 14 15 16 16 16 15
14 15 12 7 4 7 11 16 17 19 12 5 4 4 6 3 9 15 21 20 20 22 18 15 13 11 7 2 2 1 4 7 7 9 11 12 11 11 12 12 12 13 14 15 16 18 19 18 17
15 13 8 7 6 7 12 21 19 16 4 9 6 7 3 11 15 18 18 20 23 19 17 14 12 9 4 1 1 4 7 8 10 12 11 11 11 11 12 13 14 15 17 18 19 19 20 19 18
12 9 9 12 16 14 16 23 12 9 7 5 6 8 6 13 15 15 20 22 20 18 16 14 11 6 2 3 6 8 9 11 12 10 9 8 9 10 11 12 14 17 18 19 20 19 18 18 18
12 9 13 13 13 17 13 9 10 8 4 8 7 7 2 15 17 17 21 20 19 18 16 13 8 4 5 7 8 10 12 12 10 7 6 6 8 9 11 13 15 18 19 20 20 18 17 17 17
12 9 11 13 13 9 8 4 3 3 7 9 9 5 3 13 17 19 19 18 18 16 12 8 6 7 9 10 11 12 11 8 6 4 4 6 9 10 13 14 17 20 22 21 21 20 19 19 19
15 12 10 5 6 10 12 5 7 10 8 14 10 6 10 17 17 18 17 16 14 11 7 6 7 10 12 13 14 11 8 5 2 3 6 8 12 13 13 16 19 21 24 23 22 23 23 23 24
10 10 7 6 12 8 6 17 7 8 10 5 5 5 10 19 20 18 16 13 9 5 7 10 12 13 16 15 13 10 6 3 1 5 9 11 13 14 15 18 19 22 23 23 23 24 26 29 29
10 7 8 8 5 20 16 19 9 6 5 7 8 5 15 18 18 17 12 8 11 14 16 14 17 14 14 13 12 10 8 4 3 6 10 13 15 15 18 20 22 24 24 24 25 27 29 32 34
8 3 2 18 14 17 14 13 9 9 5 5 12 16 14 16 15 14 14 15 13 14 12 14 16 12 12 13 12 10 8 4 7 10 13 15 15 17 19 22 25 26 27 27 28 31 34 36 36
6 5 7 19 16 18 14 13 11 10 7 8 18 20 18 16 14 12 13 14 13 9 9 10 11 11 9 9 10 7 5 9 17 14 15 15 17 18 22 25 28 30 31 32 33 35 38 39 40
9 7 11 16 14 16 16 13 6 8 9 13 17 16 18 18 17 14 13 13 12 9 10 11 12 12 12 8 7 8 6 17 21 16 16 16 18 21 25 28 30 32 35 37 39 40 42 43 46
10 9 14 13 13 15 15 10 8 7 10 12 7 9 11 12 13 14 16 15 15 15 16 17 18 16 16 16 12 12 11 16 13 16 16 18 22 26 28 31 34 37 38 41 43 44 46 48 49
10 7 12 13 12 12 11 5 10 8 12 13 8 6 6 9 9 10 12 15 17 17 18 20 22 24 24 24 17 12 4 11 14 17 19 23 27 30 31 34 35 39 41 43 45 48 50 52 52
10 9 9 11 14 13 11 9 6 5 11 12 13 11 10 9 10 12 14 15 16 16 17 21 24 27 26 17 10 7 5 9 15 19 23 25 27 29 32 36 39 41 43 45 48 50 51 53 55
6 7 6 10 10 13 8 9 8 5 6 15 15 14 13 14 14 16 17 18 19 19 22 27 17 20 14 6 6 10 11 15 17 19 20 24 29 33 36 39 41 44 47 48 49 50 52 53 54
5 4 2 8 15 14 13 11 10 8 10 14 20 18 17 16 18 19 19 20 21 22 24 9 10 8 7 10 11 10 11 14 18 22 26 29 31 32 34 37 40 43 47 50 50 51 53 54 55
4 3 5 5 8 11 10 11 12 13 12 15 22 21 20 20 21 22 17 11 10 13 15 7 7 12 12 10 9 13 18 22 26 30 33 31 31 33 37 41 43 45 46 47 49 51 52 53 52
4 4 3 6 7 4 9 6 13 15 15 16 21 22 21 20 17 10 9 8 10 9 6 4 5 10 16 16 16 20 24 28 32 35 36 34 36 39 41 43 44 46 48 49 50 49 48 47 47
3 4 5 5 7 6 9 5 14 18 20 21 22 23 19 14 10 9 8 8 7 7 2 12 22 27 21 22 23 25 29 32 36 38 36 36 39 40 43 44 46 47 48 48 48 49 50 47 44
3 6 6 5 3 2 9 9 11 16 19 23 22 19 15 12 10 11 5 6 5 8 15 27 18 14 18 23 25 28 32 36 38 37 37 38 40 42 44 46 47 47 48 51 51 50 44 39 44
5 6 1 1 0 3 7 7 17 10 11 14 17 17 16 15 15 11 6 7 13 21 15 17 17 18 23 26 27 30 34 37 37 38 39 41 45 46 47 47 49 51 52 51 49 47 38 40 43
6 10 5 4 3 1 6 6 6 8 11 11 13 15 17 18 15 8 11 14 13 12 15 19 20 24 26 30 28 32 36 37 37 40 43 45 47 47 48 50 51 52 51 48 45 41 37 40 34
6 6 8 3 1 2 5 8 11 11 9 15 19 20 19 17 12 13 13 15 15 19 19 21 23 26 30 29 31 35 38 38 39 42 44 46 47 49 50 50 50 49 47 42 39 37 33 32 31
9 5 3 4 3 3 3 8 10 4 6 14 20 20 20 17 13 14 17 18 20 22 23 24 25 27 33 34 38 37 36 38 41 43 44 46 48 49 49 49 48 45 40 37 37 33 32 30 31
10 10 5 4 3 3 1 5 3 2 6 7 11 16 15 15 16 18 21 23 24 25 25 27 28 33 37 39 35 35 38 40 42 43 45 46 48 49 49 49 45 40 35 32 33 29 27 25 28
11 11 9 5 5 5 2 7 3 3 4 11 13 14 16 19 20 23 25 25 25 28 30 30 37 40 38 32 36 37 38 40 42 43 45 47 49 49 49 46 40 36 33 29 27 22 28 28 28

GFSSGP_700_spd_036.txt.gz
Wind_Speed
12 11 10 8 4 8 13 9 5 4 2 4 8 10 11 14 11 7 9 19 22 21 19 19 18 16 14 10 5 4 3 2 1 5 7 8 3 5 7 7 7 8 8 10 10 11 11 11 10
12 10 10 7 7 12 9 10 5 6 11 15 16 13 8 10 10 9 20 24 20 13 16 18 17 16 13 8 4 4 2 3 6 6 3 4 6 5 6 7 8 9 10 10 11 11 12 12 12
12 11 8 7 11 12 4 6 12 14 16 16 15 14 7 9 19 26 22 16 16 17 21 19 16 16 11 6 5 2 2 2 2 5 8 7 5 7 9 9 10 11 12 13 14 14 14 13 13
9 11 12 8 8 5 3 8 18 13 14 9 3 4 3 2 11 6 16 14 18 24 23 19 16 14 9 7 3 1 2 6 9 8 8 8 8 8 9 10 10 11 12 13 14 15 15 14 13
11 12 10 9 7 4 7 13 15 10 16 2 7 1 2 1 4 6 14 22 23 23 20 18 15 13 10 6 3 3 8 9 9 9 10 8 8 8 9 9 10 11 12 13 15 15 15 14 14
9 12 9 12 7 4 12 11 10 8 5 8 7 6 9 7 9 6 22 19 21 22 21 18 16 13 8 5 5 8 10 10 11 11 8 7 7 7 9 10 12 14 14 16 16 16 16 16 16
10 9 7 6 8 7 14 10 12 10 4 7 11 5 8 9 13 17 12 19 28 25 20 17 15 11 7 7 9 11 11 12 11 9 6 5 5 6 7 8 10 14 16 20 20 20 17 16 16
10 8 9 9 10 10 14 13 12 13 8 7 8 7 13 12 15 20 20 27 25 22 19 17 12 8 8 10 12 13 14 14 11 8 5 3 4 4 4 7 11 14 17 19 20 19 18 17 18
16 10 13 12 12 17 12 6 5 3 9 7 8 7 8 13 15 23 25 24 23 21 18 13 10 9 11 13 14 15 16 13 9 5 3 0 2 3 5 9 12 14 16 19 19 20 20 20 20
14 13 11 9 9 9 4 7 5 9 12 7 10 9 7 15 18 24 22 22 20 16 12 10 10 13 15 16 16 16 15 11 8 6 5 4 5 6 8 11 13 15 18 19 20 21 22 24 25
14 9 9 9 8 6 7 14 10 10 8 8 6 9 8 17 20 20 20 17 13 11 12 13 15 17 17 18 19 18 15 11 7 6 7 8 9 10 11 12 14 17 19 21 23 24 25 26 27
12 11 5 13 18 12 15 9 14 7 5 7 9 8 12 19 20 20 16 12 10 12 13 15 17 19 20 21 19 16 14 10 8 7 9 11 12 13 13 15 17 19 21 24 26 27 28 29 31
14 7 3 6 13 16 11 9 8 9 3 2 13 15 19 21 21 20 17 17 17 15 16 18 18 19 19 19 19 17 14 9 6 10 13 13 14 14 16 18 20 23 26 29 30 32 32 32 33
7 7 8 15 15 12 12 10 10 9 4 7 17 20 20 21 21 19 18 18 18 15 16 18 16 16 17 18 17 15 11 7 9 15 16 15 16 16 19 22 25 28 32 35 37 35 36 36 36
7 8 15 15 13 14 12 10 12 11 8 11 18 21 21 22 20 19 20 19 17 15 13 14 15 17 14 15 18 16 10 5 6 17 15 16 17 18 23 26 29 32 35 38 37 38 41 42 43
8 11 11 13 14 15 15 12 9 15 14 14 15 19 20 19 19 20 20 18 17 15 15 16 18 19 19 20 20 23 24 10 6 12 16 17 20 24 28 31 34 35 37 38 40 43 43 46 47
11 10 10 12 16 17 11 9 10 15 18 18 15 15 17 17 18 19 19 20 19 18 18 20 19 23 21 25 28 21 16 20 11 12 15 19 23 28 31 32 33 35 38 40 42 44 47 47 49
9 7 12 12 12 16 12 5 15 17 20 16 14 15 15 15 16 15 17 19 18 20 21 21 24 27 30 31 14 5 7 6 9 12 17 21 24 27 30 31 34 36 39 41 42 44 46 48 48
7 8 10 10 16 12 11 11 8 9 15 18 18 18 17 16 14 17 19 19 19 21 22 23 26 24 25 14 9 2 3 6 8 12 16 20 25 27 29 32 34 36 39 41 42 43 46 47 50
8 9 8 15 14 13 12 11 14 10 12 18 23 22 21 19 17 16 17 18 21 23 25 24 15 9 5 5 7 4 7 8 10 14 19 24 28 28 30 32 35 38 40 43 44 45 46 47 52
6 5 5 6 19 17 11 12 17 16 13 13 17 26 25 22 21 19 19 20 21 20 17 15 6 2 3 10 15 12 10 13 16 20 25 28 30 33 34 36 37 40 41 43 45 46 47 47 45
6 6 5 5 11 10 17 12 15 19 16 14 17 24 27 24 20 19 17 14 12 12 12 3 2 12 17 16 13 12 16 20 23 27 31 33 34 36 37 38 40 42 42 43 44 46 45 46 45
5 5 5 6 8 6 9 11 7 11 16 18 20 21 26 23 19 15 13 12 10 11 10 8 11 21 16 13 15 19 21 24 27 31 34 34 36 37 38 39 41 43 44 45 47 47 47 45 43
5 5 4 5 5 10 10 10 15 12 12 19 20 20 21 19 15 13 14 12 9 7 11 16 19 15 15 17 21 23 27 27 31 34 36 37 38 38 41 43 44 46 46 48 43 41 41 33 27
6 6 4 4 5 6 4 8 18 12 11 12 13 18 18 16 15 15 13 6 6 11 13 9 11 16 19 21 24 29 29 32 34 38 36 37 38 41 43 45 46 46 46 47 42 27 28 27 29
7 7 5 4 3 2 4 7 3 7 10 15 12 13 17 17 17 15 10 9 11 12 11 13 16 18 22 25 28 29 32 34 37 35 37 39 41 43 44 45 46 46 47 46 44 27 27 29 29
6 6 9 3 5 3 7 8 12 14 11 9 16 19 19 18 18 15 13 13 12 14 16 18 21 24 26 30 32 29 33 37 35 35 38 40 42 44 45 46 46 47 46 44 38 25 30 31 32
9 6 3 6 3 4 4 7 4 4 4 9 14 17 19 20 20 18 16 16 16 18 20 23 25 28 33 31 35 38 37 34 34 37 39 41 42 43 45 45 45 44 42 38 33 27 25 27 28
13 11 9 5 3 2 3 1 2 2 3 4 5 12 18 20 21 21 19 18 21 23 25 26 28 30 33 36 41 39 33 33 35 37 39 41 42 43 44 44 44 43 39 34 31 29 26 31 27
14 11 12 8 5 5 2 5 3 1 5 7 10 13 19 22 23 24 23 23 25 27 28 29 32 37 36 36 40 32 31 33 35 37 39 41 43 44 44 44 43 40 35 31 30 28 27 25 30

GFSSGP_700_spd_039.txt.gz
Wind_Speed
12 10 8 8 8 12 21 21 11 5 7 5 4 8 8 15 11 14 10 17 21 24 24 23 22 19 17 13 9 7 6 5 4 3 4 2 3 4 5 6 7 9 9 10 10 10 11 11 10
13 10 9 7 14 21 21 3 5 11 10 11 10 8 9 11 16 10 12 20 26 23 23 21 21 20 17 12 9 8 5 3 4 4 2 6 5 5 6 7 8 9 9 10 10 11 11 11 11
11 10 7 11 19 22 10 7 11 8 7 6 6 7 12 9 13 12 16 25 25 24 24 22 19 19 16 11 9 5 2 3 3 6 9 7 7 7 7 8 8 9 9 9 9 10 10 11 11
8 9 10 13 19 10 9 5 10 10 7 4 7 3 7 16 20 18 21 21 22 23 22 24 19 18 14 10 7 3 2 5 10 9 8 9 7 7 8 8 9 9 10 12 14 14 14 12 11
10 9 15 16 17 9 7 9 7 12 6 2 5 4 9 14 16 12 19 18 20 21 27 20 19 16 13 10 5 3 7 10 9 9 10 8 7 8 7 8 8 10 12 15 16 17 16 15 13
9 10 18 19 14 8 7 10 9 4 3 1 1 2 7 4 5 6 29 22 23 20 22 19 16 14 12 7 5 7 10 10 10 10 9 7 7 5 5 6 8 10 13 16 17 19 18 16 15
14 15 17 18 2 7 11 8 8 7 4 2 5 8 7 7 4 7 8 24 19 20 20 20 17 14 10 7 9 11 12 12 12 10 8 6 4 2 2 5 8 11 14 17 18 20 20 19 17
13 15 19 14 12 10 11 8 10 7 5 4 5 2 7 6 9 12 8 12 17 20 20 17 15 11 8 8 11 13 14 14 12 9 7 4 1 2 4 6 9 11 13 16 18 20 21 22 21
12 15 20 15 14 14 10 11 7 6 8 9 6 5 7 8 12 15 14 17 21 17 19 18 14 10 8 11 14 15 15 14 11 9 6 4 4 5 6 7 10 11 14 15 18 20 23 24 25
16 15 15 6 13 10 8 6 5 8 10 5 8 9 7 6 12 16 16 21 20 17 17 14 11 11 12 15 16 16 17 14 11 8 6 7 6 7 9 10 11 12 15 17 20 22 25 26 26
16 15 10 9 3 5 6 9 7 11 8 5 7 7 8 9 14 20 20 18 18 16 14 12 10 12 15 16 18 18 16 14 11 9 8 7 8 9 11 12 13 16 18 21 25 26 29 29 29
12 15 7 7 9 7 9 10 8 8 3 5 7 9 5 12 18 20 20 19 16 14 13 12 12 15 17 18 18 19 18 15 11 8 7 9 11 11 13 15 16 18 22 24 27 30 32 32 30
15 6 8 4 12 8 6 7 5 2 1 3 12 8 14 17 21 20 17 15 13 12 12 13 15 16 17 19 19 20 17 13 10 8 10 14 15 13 17 18 20 22 27 30 31 34 35 34 34
11 9 6 8 8 14 9 8 7 6 1 3 9 15 20 21 20 19 16 15 12 11 13 14 16 17 19 19 19 17 16 14 12 11 13 18 20 16 19 21 23 27 31 33 34 36 36 37 39
7 9 7 8 10 12 8 8 6 7 4 8 15 18 18 20 19 17 17 17 16 12 13 16 15 18 19 19 20 21 20 16 8 8 10 19 21 17 19 24 28 32 34 35 36 37 39 39 42
8 8 14 7 12 10 14 12 9 9 10 13 16 17 18 19 19 17 19 19 18 16 13 14 15 16 16 17 19 22 24 24 5 15 30 21 18 19 23 28 30 31 34 36 36 39 41 41 42
13 12 13 12 12 11 13 16 10 13 12 13 15 17 18 19 19 19 23 21 18 19 17 16 15 18 20 23 25 34 27 24 13 27 21 20 19 21 25 27 30 33 34 35 35 38 41 43 44
14 14 15 13 14 14 9 7 11 16 15 16 16 17 19 19 19 21 23 23 17 20 14 16 19 22 24 27 23 28 32 20 10 18 19 19 18 20 25 27 28 30 33 35 39 40 41 43 46
5 8 13 14 12 14 14 9 14 18 18 17 17 17 17 18 18 20 21 23 24 25 17 20 21 25 24 21 11 6 5 4 13 13 14 16 19 23 25 28 31 32 37 40 41 43 43 44 44
7 8 9 9 11 13 13 13 14 16 19 18 18 19 20 20 23 22 23 23 23 24 22 23 21 21 11 6 5 6 4 8 12 15 16 20 23 26 28 28 31 36 36 39 42 43 44 44 45
7 6 5 7 13 12 11 17 18 17 15 19 20 20 20 22 22 23 23 23 23 23 22 20 16 12 8 9 11 12 10 12 16 17 20 23 25 28 30 32 33 36 39 40 43 44 45 46 45
12 7 4 3 14 21 19 21 23 21 22 21 21 23 21 21 19 24 23 23 21 20 17 15 12 10 9 10 12 11 11 14 19 22 26 28 29 32 33 36 38 39 40 42 43 42 43 44 43
3 4 5 9 15 10 13 12 24 19 19 19 19 18 21 20 22 22 22 19 17 16 14 13 10 13 15 12 11 12 16 20 21 23 29 31 36 36 37 38 40 39 41 42 43 44 45 42 39
6 2 5 8 12 11 18 20 9 17 15 16 16 18 19 21 21 22 19 18 18 14 12 12 15 17 14 14 16 17 19 22 26 27 31 34 32 34 37 39 41 43 43 43 43 44 44 32 30
6 9 13 7 5 9 2 8 18 6 4 10 14 14 18 19 20 21 20 19 15 13 12 15 15 16 16 18 20 22 24 26 30 25 34 32 33 36 38 40 41 42 43 44 44 43 39 30 31
9 12 9 6 7 7 4 9 4 7 8 7 13 13 16 18 20 20 19 18 16 14 15 17 18 20 20 21 24 27 30 35 30 35 32 33 35 37 39 41 43 44 44 43 43 42 36 29 29
7 8 5 6 7 8 16 12 7 9 10 8 12 16 16 17 19 20 20 19 18 17 18 18 22 24 23 25 29 30 35 35 40 37 34 36 37 38 40 41 42 42 43 42 41 38 29 25 30
9 4 4 7 3 7 5 8 4 3 6 8 13 16 17 17 19 20 21 20 21 21 21 22 25 29 28 30 32 35 36 37 41 35 34 35 37 38 40 41 42 42 42 41 38 33 30 29 28
7 11 9 6 5 4 4 3 5 2 5 8 12 16 18 19 20 21 24 24 24 25 25 26 29 32 32 34 37 38 35 38 34 32 34 36 37 39 40 41 42 42 41 39 37 34 29 29 31
11 11 12 10 8 7 5 10 4 3 2 4 9 15 18 20 21 22 24 29 28 28 29 31 33 35 36 39 41 38 34 32 33 33 35 36 38 39 41 42 42 41 40 39 37 32 30 30 29

GFSSGP_700_spd_042.txt.gz
Wind_Speed
11 9 6 8 9 12 21 23 24 6 11 11 5 7 1 11 15 9 12 17 14 17 23 23 23 22 20 15 12 11 9 6 4 3 2 1 6 6 6 8 8 9 9 10 10 11 12 12 12
10 11 6 5 16 20 24 4 13 1 8 7 7 11 9 9 7 11 11 14 14 24 27 25 23 22 19 14 11 9 7 5 4 4 2 7 7 7 8 9 9 10 11 11 12 12 11 11 10
9 9 7 11 17 26 22 7 10 4 2 1 6 12 18 11 8 9 13 13 16 27 27 26 24 22 18 13 11 8 5 3 3 6 10 8 8 9 9 9 9 9 10 11 12 12 11 11 11
6 7 11 11 22 23 3 7 13 11 4 7 7 2 3 15 13 13 15 21 25 28 29 27 23 20 17 12 11 6 3 4 10 11 10 10 9 9 9 9 9 10 11 13 14 14 14 14 13
6 9 14 18 18 18 10 6 7 12 7 6 0 2 5 8 10 8 19 20 24 29 33 32 24 19 14 11 9 5 6 11 11 10 11 10 10 10 8 8 9 9 10 12 14 15 16 16 13
11 9 16 23 24 15 5 5 10 10 9 11 3 4 5 5 8 24 15 18 30 29 34 25 25 17 12 11 7 7 11 11 12 13 11 10 9 7 5 7 7 8 10 12 14 16 18 18 17
13 15 20 21 22 14 9 13 14 8 5 5 5 8 3 7 4 3 16 24 20 23 26 23 21 15 15 10 7 10 12 12 12 12 10 8 6 4 4 4 5 7 9 12 14 17 19 21 21
13 15 21 25 25 9 10 9 3 1 10 5 6 1 6 4 4 7 8 25 14 15 23 17 14 13 12 9 9 11 12 12 12 11 9 6 3 1 2 4 6 8 10 12 14 16 19 21 21
13 19 22 21 20 13 16 15 2 5 4 9 8 9 7 6 9 9 2 12 14 25 21 19 18 17 12 9 10 12 12 14 12 10 6 3 2 2 4 5 7 9 11 13 16 18 21 24 24
16 17 20 12 16 13 16 19 5 4 7 8 6 10 2 6 7 9 6 13 17 18 17 20 18 11 8 11 13 14 15 15 12 8 6 5 4 7 6 9 11 13 15 17 18 21 24 25 26
16 22 16 12 11 11 5 9 3 9 10 12 7 5 4 3 8 10 10 14 9 14 12 12 9 8 8 10 13 14 15 15 10 8 8 4 6 7 12 12 13 16 18 20 22 27 28 29 29
17 16 15 8 1 4 5 5 15 3 13 12 17 4 3 8 9 12 13 15 13 14 15 11 9 9 8 12 15 15 16 15 12 8 7 6 9 11 13 17 21 20 23 22 26 31 32 31 32
14 13 12 9 7 4 6 13 5 3 12 10 14 4 6 14 15 10 18 11 14 13 10 10 12 11 13 18 18 20 15 15 10 10 9 11 13 16 16 21 25 23 24 28 30 32 33 33 33
10 14 5 6 8 8 4 6 4 9 8 4 9 8 13 16 18 16 13 12 11 11 11 10 11 12 16 18 17 19 19 16 14 13 9 8 11 12 23 20 21 23 26 30 32 34 35 35 35
9 8 9 6 5 11 9 9 3 4 2 6 6 12 14 17 18 18 17 18 14 6 4 6 10 13 12 13 15 18 19 18 19 17 15 18 21 21 22 23 22 27 30 30 32 35 35 37 36
7 7 6 4 6 8 8 7 6 9 5 11 12 13 16 18 17 15 16 14 12 10 7 7 6 7 8 11 13 16 19 22 28 26 21 30 21 26 23 24 25 26 29 32 32 34 36 38 39
4 8 11 10 12 8 9 12 9 13 12 12 13 13 15 16 16 16 15 13 13 10 10 8 9 10 12 15 16 19 23 22 27 35 29 25 23 20 25 23 23 27 29 31 34 35 38 39 41
11 18 17 12 12 11 11 12 13 15 14 14 14 16 17 17 18 17 15 16 14 12 8 14 15 14 17 20 20 16 14 7 14 13 19 18 20 22 23 23 24 27 30 32 35 37 38 39 41
8 15 14 13 13 12 13 13 12 16 16 16 17 18 20 21 25 25 21 21 20 17 10 14 16 18 21 22 18 9 9 13 8 10 11 16 18 20 23 27 28 28 32 36 39 40 41 41 42
13 8 6 14 10 13 16 14 14 20 22 21 19 18 18 20 21 24 19 24 25 24 19 19 21 21 23 15 9 9 11 9 8 11 14 18 21 23 27 26 30 33 34 35 38 39 40 41 41
8 12 9 4 8 11 13 16 18 18 19 19 20 19 19 20 25 25 22 25 28 30 21 22 23 22 17 13 11 12 12 12 12 12 16 20 21 25 27 30 30 32 35 36 36 38 41 43 42
6 6 8 12 16 12 7 15 27 17 19 23 26 25 25 23 27 31 30 29 30 29 26 25 25 18 16 15 15 13 13 15 18 19 21 20 22 25 30 31 33 34 34 35 37 38 40 41 41
3 11 9 16 12 10 12 12 25 27 28 28 27 25 24 25 30 28 28 28 28 26 27 24 18 16 14 17 16 12 15 16 18 19 25 30 28 35 32 35 37 38 39 40 41 41 41 41 42
3 4 10 11 15 12 18 23 22 26 26 23 20 25 26 29 27 26 25 26 25 22 20 18 15 16 15 16 16 15 18 22 22 26 30 25 31 30 31 35 37 37 39 40 39 39 38 38 39
6 11 6 10 11 4 10 8 9 12 15 15 20 23 18 22 27 26 29 31 22 19 19 16 15 20 17 16 18 19 22 23 27 28 32 37 34 31 33 35 35 36 38 40 40 40 40 39 39
10 13 3 2 5 8 4 6 4 11 7 6 15 16 19 25 25 26 25 22 20 18 17 16 19 22 20 21 21 24 26 27 28 30 34 32 32 31 34 35 36 38 40 40 39 39 39 38 35
6 5 0 10 3 5 11 20 5 3 6 4 10 15 18 16 19 21 22 23 21 20 19 18 22 24 23 24 26 28 28 31 33 36 37 28 30 32 34 36 37 38 39 40 41 40 39 37 34
9 7 5 4 2 4 10 13 14 6 4 6 10 15 16 15 18 20 22 24 23 22 24 22 25 27 26 27 29 31 34 36 36 41 36 30 32 31 34 37 39 39 40 42 41 40 38 36 34
7 9 10 9 7 1 4 4 7 4 4 4 9 14 17 16 18 19 23 25 26 26 28 25 26 30 32 32 32 35 38 39 43 42 32 31 30 33 36 39 40 40 41 41 40 40 37 35 33
10 9 10 11 8 5 5 12 4 3 2 4 7 13 16 18 18 21 22 26 27 29 32 30 28 33 34 34 36 38 43 40 44 39 32 31 31 35 37 39 41 42 43 40 38 38 36 34 30

GFSSGP_700_spd_045.txt.gz
Wind_Speed
8 7 9 8 9 7 10 13 9 14 6 8 19 11 10 6 7 6 7 11 18 18 20 23 24 26 24 21 18 15 13 10 8 5 2 4 8 8 9 10 10 10 10 10 9 9 9 10 9
7 9 10 8 11 12 15 11 14 7 14 14 15 11 12 15 14 14 14 14 16 21 30 29 29 27 24 21 17 14 11 8 6 3 3 10 9 10 10 10 10 9 9 9 9 9 10 9 9
5 9 14 5 12 18 18 9 14 11 5 11 11 12 10 11 17 18 15 18 19 24 29 31 31 29 23 18 15 13 9 6 4 6 12 11 11 11 11 10 10 9 9 9 10 11 12 12 11
6 7 10 14 16 15 22 21 7 8 7 5 5 4 4 6 13 15 13 18 19 28 35 32 29 26 22 17 13 11 7 7 10 15 13 13 12 12 11 10 9 9 9 10 11 13 14 14 12
11 9 11 12 19 19 20 12 13 10 11 6 3 1 3 5 8 9 14 19 23 36 35 32 29 26 23 18 14 9 8 13 15 13 13 13 12 12 11 9 8 6 7 8 10 13 14 15 14
10 4 10 19 17 9 8 12 16 17 11 10 9 7 6 6 10 11 16 21 26 29 36 36 33 32 24 19 13 9 12 14 14 14 13 12 11 9 8 6 4 4 5 8 10 12 14 16 15
8 11 19 23 30 22 18 17 14 9 10 15 9 8 8 10 6 6 19 18 17 26 34 30 28 27 18 13 11 12 15 14 15 15 13 11 9 6 4 3 2 3 5 8 9 11 13 16 16
2 9 17 19 27 19 10 13 17 5 2 3 4 10 12 7 6 5 7 23 20 13 24 15 22 16 11 10 10 13 14 15 16 14 12 9 7 5 1 1 3 5 7 9 11 13 16 18 20
8 18 26 23 22 12 8 15 19 22 5 12 13 12 6 7 8 8 7 11 18 16 18 19 17 17 15 12 11 14 15 16 15 13 10 7 4 2 3 5 7 9 11 12 14 16 19 22 24
10 16 23 18 17 17 16 13 5 5 7 15 13 12 6 2 9 10 6 8 19 26 22 17 13 13 8 9 12 15 15 15 13 11 10 6 4 4 5 9 12 15 16 17 16 17 21 23 25
6 22 15 18 15 11 11 11 12 9 11 14 10 9 5 6 12 11 9 17 18 17 20 21 18 12 9 13 15 15 13 13 14 13 9 6 7 7 10 11 14 17 16 17 19 21 27 29 28
16 17 18 19 2 7 4 6 7 1 4 13 12 9 5 11 13 12 12 8 13 16 17 15 14 13 13 14 14 14 15 15 14 11 8 8 7 9 11 14 17 24 24 21 23 27 29 27 28
13 15 12 5 0 2 8 8 5 6 2 8 25 6 10 11 15 14 10 10 9 13 13 8 6 6 9 12 13 12 12 13 14 12 11 8 14 12 12 17 20 19 23 25 26 28 29 30 30
12 15 10 5 5 10 8 5 4 6 1 2 4 13 12 13 15 18 11 7 8 9 6 6 7 11 11 8 8 9 9 9 14 15 16 13 9 19 16 15 18 17 22 27 28 28 29 31 33
4 7 8 6 8 7 4 3 7 10 7 4 4 10 15 15 10 7 2 3 7 7 10 9 8 3 3 3 4 7 8 11 11 18 21 22 18 29 24 19 19 20 26 28 29 29 31 33 34
4 6 2 4 7 9 5 10 10 10 5 6 11 14 16 16 13 10 10 8 2 5 5 5 4 3 2 2 5 8 10 12 14 22 26 29 29 27 34 22 22 23 27 27 29 30 32 35 37
3 6 7 9 7 6 17 9 11 13 3 7 12 23 24 23 18 15 15 7 4 7 8 4 3 4 4 5 7 9 13 18 19 17 20 25 31 37 27 26 22 25 28 30 32 32 34 36 37
5 8 9 14 12 16 14 6 14 15 11 6 7 10 15 14 10 6 6 5 2 6 4 5 6 6 6 10 14 14 14 14 10 14 17 24 24 25 22 21 22 26 29 31 33 35 37 38 37
4 8 7 16 9 12 19 12 19 15 16 11 9 10 10 9 8 8 11 9 6 3 5 6 8 10 13 17 19 16 11 10 12 12 12 14 16 20 23 24 25 27 30 32 34 37 38 36 35
16 18 20 21 16 14 13 16 18 16 19 17 14 12 12 15 16 16 19 18 13 11 12 12 12 14 19 21 18 12 11 13 12 9 12 13 17 21 23 24 25 28 29 31 34 36 36 36 36
10 11 6 6 5 6 12 16 22 19 18 19 19 15 18 22 23 23 25 27 24 22 19 16 17 20 23 23 15 14 14 15 12 13 15 16 19 22 20 21 27 29 28 31 32 33 35 38 37
13 7 2 1 1 7 8 4 7 22 24 25 22 23 23 21 23 23 20 22 23 26 27 20 23 24 26 19 15 16 16 16 16 18 18 20 20 24 23 29 28 27 29 31 32 34 35 38 40
5 7 8 12 17 22 9 1 16 19 25 22 24 29 27 25 26 26 25 27 29 30 31 26 27 28 25 17 14 17 19 20 20 20 21 22 24 25 28 34 31 31 32 33 35 36 37 37 39
5 3 9 9 5 4 15 16 7 22 26 26 22 25 28 27 26 26 28 31 33 31 28 30 31 26 20 17 16 18 20 21 22 24 24 26 29 35 38 39 34 34 35 36 37 37 38 38 39
6 8 2 4 7 6 16 11 22 12 21 32 30 29 28 25 23 31 33 32 32 29 24 26 25 24 20 17 16 18 21 22 24 25 25 28 33 37 37 29 30 32 33 34 36 38 39 39 40
8 6 4 4 2 7 16 9 5 9 8 17 23 18 27 28 34 34 37 39 34 31 27 25 25 23 17 16 19 21 22 24 25 29 31 38 37 35 38 26 29 32 33 34 36 36 38 38 39
8 2 7 4 6 3 7 3 10 13 12 6 17 25 28 31 27 33 36 36 30 27 21 20 20 23 21 21 20 23 24 24 27 35 32 40 34 45 36 28 30 31 31 35 36 37 38 39 40
7 7 6 4 3 3 5 7 11 9 5 5 15 19 18 17 20 26 28 26 24 20 16 19 24 27 26 26 26 26 26 29 30 42 36 42 37 44 38 28 29 31 33 35 37 39 38 38 37
13 12 9 9 4 4 1 1 5 5 5 0 4 8 8 9 12 15 18 21 21 21 20 23 28 32 33 32 30 31 31 34 34 36 44 45 44 28 27 28 30 33 35 35 36 38 39 38 35
12 8 6 13 6 3 2 8 11 6 7 6 5 8 13 14 14 14 16 19 22 24 24 24 29 31 32 34 36 37 36 37 39 39 48 49 35 25 27 28 31 34 36 37 39 39 38 37 34

GFSSGP_700_spd_048.txt.gz
Wind_Speed
9 8 10 12 8 5 11 13 9 9 10 13 13 17 4 10 14 11 9 11 17 19 24 25 26 23 27 26 23 20 17 15 13 11 6 5 8 8 9 10 10 9 8 7 7 7 7 7 7
8 10 11 10 7 10 14 7 9 11 14 12 13 16 14 14 12 13 9 11 18 21 26 30 26 33 32 27 23 20 18 15 13 10 8 11 11 10 11 10 10 8 8 7 7 7 7 7 7
9 11 12 6 12 16 14 7 11 16 10 14 18 15 11 11 17 17 9 14 19 24 29 31 33 35 30 26 22 19 16 14 11 9 13 14 13 12 11 10 9 8 8 8 9 9 9 9 10
11 12 10 11 16 11 16 20 22 15 13 9 7 8 13 15 15 14 10 15 24 30 32 32 34 33 29 24 21 17 14 11 10 14 16 14 13 11 10 9 8 7 7 7 8 9 10 11 11
12 11 10 16 8 12 15 17 16 12 9 8 7 8 8 7 10 12 14 17 28 31 37 37 36 33 29 26 19 14 12 11 16 18 16 15 14 12 10 8 6 4 5 5 6 7 9 10 12
12 10 9 11 8 9 11 7 13 16 11 4 7 10 8 9 8 9 12 14 28 37 39 38 34 30 31 27 22 14 13 17 17 16 16 14 12 10 7 5 3 1 2 3 4 7 9 11 13
14 10 14 9 13 15 20 22 17 17 3 1 8 9 6 5 8 9 9 16 28 20 26 31 35 33 33 26 16 14 19 18 17 16 15 13 11 8 7 3 1 3 4 5 7 8 9 11 14
7 9 13 9 11 19 11 16 14 9 9 8 6 7 11 8 10 8 8 13 24 34 32 30 29 38 28 16 14 17 16 15 16 16 14 12 9 8 5 3 4 6 6 8 9 10 10 14 17
8 13 12 6 15 22 15 11 14 16 14 16 11 7 9 8 8 8 7 6 17 19 24 32 23 26 24 15 16 17 16 16 16 13 12 13 8 4 5 6 6 9 10 12 12 13 14 19 22
11 16 12 6 9 14 16 8 4 5 10 16 8 9 6 3 7 8 7 9 14 15 11 23 26 23 16 14 15 15 14 14 14 16 11 7 6 8 10 9 10 11 11 12 13 15 18 22 23
9 16 7 4 9 10 12 2 4 8 4 10 7 11 13 8 10 11 6 17 20 28 21 20 19 14 11 10 11 13 14 14 14 13 12 10 9 11 12 12 11 10 14 12 15 20 25 26 27
10 11 11 13 13 7 7 4 4 1 2 6 10 10 13 15 14 12 15 16 17 21 23 18 15 10 10 10 11 13 12 12 14 14 13 14 14 13 13 14 16 15 14 17 18 25 28 27 29
13 13 6 2 8 9 9 6 6 2 3 3 7 3 10 12 12 15 10 14 13 19 21 16 13 11 11 10 11 11 11 12 14 12 12 13 14 17 10 12 18 21 23 22 21 23 25 26 26
9 5 8 10 10 6 3 6 3 8 4 4 8 8 9 11 16 14 13 9 11 14 14 12 10 9 6 6 8 8 7 8 11 11 11 15 21 17 17 21 20 23 27 23 23 24 27 30 30
1 2 4 8 8 8 7 2 7 9 5 8 7 12 16 15 15 8 6 9 8 8 6 7 5 5 5 5 5 5 6 8 7 10 13 18 21 22 24 27 27 29 28 26 24 25 28 31 33
2 5 6 10 7 7 4 7 8 8 6 10 16 16 17 15 12 7 4 8 6 6 7 8 9 9 7 6 4 2 3 6 10 13 18 22 19 26 25 27 30 34 28 24 24 27 31 34 35
1 2 8 4 8 2 10 6 10 11 5 8 16 19 18 15 11 6 1 7 10 8 9 7 7 6 4 3 1 3 7 10 13 16 18 21 23 24 27 29 32 32 26 25 28 31 33 33 36
3 5 5 5 9 12 11 11 17 10 6 6 15 16 15 14 6 4 4 7 8 11 10 7 6 4 2 3 5 9 12 13 15 15 17 20 20 21 24 23 22 26 26 29 33 33 32 35 39
3 3 9 13 15 17 23 12 17 11 10 10 6 10 15 15 11 8 6 7 12 14 11 9 8 7 8 9 11 13 16 14 14 15 18 18 16 17 17 20 24 28 29 29 32 33 34 37 37
13 9 16 19 10 16 19 19 15 14 15 14 7 9 10 15 15 15 13 11 8 9 11 11 9 10 11 13 16 17 16 15 16 16 17 16 16 18 21 25 30 27 25 29 29 32 36 36 35
12 15 13 12 5 8 6 20 20 22 20 17 17 11 11 11 12 16 17 13 13 12 13 14 14 15 16 18 20 19 16 15 15 17 15 17 19 21 25 25 28 25 27 27 29 33 35 34 33
16 15 14 8 1 2 6 4 9 24 24 25 23 19 19 18 18 18 18 16 13 14 16 17 20 19 19 23 20 19 16 18 19 17 17 19 21 22 24 25 25 29 36 33 31 33 34 35 35
12 6 11 11 5 11 10 5 11 12 26 28 27 25 23 25 23 23 22 21 21 21 20 20 21 26 24 25 22 19 17 19 19 18 18 19 21 28 29 30 29 31 35 33 34 34 34 36 35
15 10 12 9 9 3 13 9 19 18 20 26 29 26 29 29 27 28 26 26 25 26 25 21 26 28 28 28 23 19 20 19 18 18 20 24 30 32 33 35 37 44 38 38 36 36 38 38 37
8 7 1 1 1 6 6 5 12 12 16 21 28 31 26 24 30 34 31 29 29 28 26 30 27 23 27 27 21 20 20 18 18 22 25 29 32 36 29 38 37 37 36 32 34 37 39 40 39
12 7 4 4 3 4 2 5 6 10 16 18 27 32 31 28 27 24 26 25 26 28 30 26 24 26 24 22 20 21 20 19 22 25 28 34 32 39 32 46 42 45 35 32 35 38 40 40 39
4 5 1 2 4 2 5 2 12 12 14 12 17 24 26 28 35 30 25 26 28 30 26 26 30 30 25 25 25 22 21 23 28 32 35 33 38 33 43 49 47 44 30 32 35 38 39 37 38
9 5 4 4 2 3 3 5 9 11 7 6 4 14 23 22 23 23 26 29 31 24 27 31 30 25 26 25 27 26 28 30 33 32 33 37 37 47 47 49 49 39 31 32 35 37 38 37 38
12 13 11 11 7 4 1 3 2 8 2 4 4 4 2 12 18 20 20 24 28 29 27 25 24 24 23 26 32 32 33 36 37 38 40 34 39 46 54 42 48 31 34 34 34 35 38 39 37
19 17 17 11 6 5 3 9 10 11 11 11 7 5 3 4 8 7 9 10 12 14 16 17 20 21 23 27 31 34 32 37 38 47 46 41 45 55 47 42 38 32 34 32 32 34 38 37 36

GFSSGP_700_spd_051.txt.gz
Wind_Speed
13 12 12 13 7 7 9 11 7 10 8 9 14 11 12 19 13 9 11 15 16 16 26 31 31 31 31 27 25 25 22 19 16 11 8 6 8 7 8 8 7 6 6 5 5 7 8 10 10
13 11 11 9 7 10 10 10 6 10 12 15 12 8 8 10 14 13 13 13 16 20 29 32 34 34 31 26 30 26 22 18 15 11 8 9 9 9 9 7 6 6 6 5 5 7 9 10 10
12 11 11 4 8 18 5 4 6 10 10 12 13 16 15 14 11 14 12 17 23 27 32 35 35 36 35 34 29 23 19 16 13 12 10 11 11 10 8 7 7 6 6 6 7 9 10 11 12
10 10 9 11 15 8 12 16 19 19 12 9 11 8 11 14 13 12 5 16 18 26 32 34 37 40 35 32 27 24 18 16 13 10 12 13 12 11 9 8 6 6 6 8 8 10 11 14 15
9 9 10 14 10 7 9 14 14 12 17 14 11 7 7 8 8 6 6 10 18 23 38 40 41 39 33 29 24 21 17 12 11 14 15 14 13 11 9 7 5 4 4 4 6 7 10 13 16
11 9 9 11 9 4 11 18 13 11 14 12 8 5 9 11 7 7 7 13 18 27 35 42 39 32 32 29 22 16 17 14 16 17 16 15 13 9 7 5 2 1 1 4 4 6 7 11 17
10 10 9 8 9 8 10 11 8 15 16 15 7 12 9 8 8 8 8 7 17 25 34 34 32 34 28 26 22 20 17 20 19 18 17 15 12 10 7 4 4 2 3 5 6 7 10 12 16
8 12 11 9 5 11 9 13 11 9 7 11 10 16 10 10 8 8 8 7 18 14 17 26 32 34 36 30 27 19 21 19 18 17 15 14 11 9 7 5 6 6 4 5 7 11 13 14 17
9 11 8 8 7 11 9 12 7 10 11 7 7 11 9 11 6 5 6 7 13 18 15 30 28 31 33 32 26 26 22 18 18 17 15 15 11 9 8 7 9 8 7 10 11 11 12 15 18
12 16 10 7 10 14 11 10 5 6 10 14 9 11 9 7 4 6 7 5 11 11 20 24 22 29 33 20 22 21 21 19 18 17 15 12 11 9 8 7 9 11 12 15 15 14 15 18 19
11 16 8 8 11 13 4 5 4 3 5 12 9 7 7 7 2 6 7 8 11 17 17 17 25 30 25 21 19 18 16 17 18 17 14 11 8 10 8 8 10 13 14 14 16 19 20 21 21
12 9 13 9 11 8 7 3 3 3 2 4 6 7 7 6 4 5 13 13 23 28 30 21 17 15 15 14 13 17 16 17 16 14 11 10 10 11 13 13 13 10 12 18 24 25 23 22 24
5 9 7 4 2 5 5 1 3 6 2 1 4 3 6 5 15 15 15 18 15 22 21 19 17 14 11 13 16 15 13 13 14 13 11 11 12 14 17 16 15 19 20 24 27 26 25 24 25
7 6 3 3 5 5 4 3 5 10 7 5 3 4 17 21 24 15 15 16 19 18 18 14 13 12 10 9 11 10 9 10 12 13 13 12 12 16 18 19 21 23 24 25 27 26 23 24 27
7 2 4 7 3 8 6 5 10 11 7 3 2 8 7 20 14 10 10 12 10 8 12 13 13 13 11 8 7 8 9 11 12 13 13 14 14 19 17 21 23 24 27 28 28 27 26 28 30
5 3 8 8 8 6 5 4 6 6 6 3 5 11 11 14 17 12 11 11 10 10 11 13 14 14 13 12 10 9 8 8 9 11 13 15 17 20 21 23 24 26 29 27 24 26 29 32 33
3 6 8 9 8 8 8 6 11 9 5 6 8 12 11 12 12 13 11 11 12 14 13 14 15 14 13 12 9 7 7 9 9 12 13 15 19 22 24 24 23 27 24 22 25 30 33 34 35
9 6 3 3 2 13 12 9 9 9 6 3 9 11 10 10 9 13 11 12 15 17 17 16 14 12 11 10 7 4 5 7 10 12 15 17 21 23 25 23 22 20 22 25 29 33 33 36 36
6 7 6 3 8 21 17 17 17 14 14 9 7 9 9 9 7 9 8 10 13 12 11 9 9 7 6 4 4 6 8 11 12 15 17 18 20 21 21 21 21 23 27 30 34 33 35 36 35
3 9 3 12 14 14 15 11 18 21 14 11 7 7 7 6 7 10 12 12 14 12 10 9 8 8 8 8 10 11 12 14 16 16 15 18 19 20 21 22 23 27 31 33 36 35 37 37 37
12 12 15 16 13 3 10 17 19 23 21 16 16 10 8 5 2 3 5 5 8 10 8 9 9 10 12 13 15 14 14 17 16 16 17 19 18 20 21 22 24 29 30 31 31 38 42 39 37
13 8 14 18 13 6 2 3 15 22 22 23 20 19 17 15 10 7 5 3 3 1 5 10 11 14 17 20 20 19 17 18 15 19 21 18 18 19 22 26 28 27 29 32 37 40 36 36 42
16 18 13 13 10 8 4 4 6 12 22 23 25 26 24 21 17 14 12 8 9 10 11 11 14 17 17 22 24 22 22 17 19 19 20 19 20 23 25 26 32 33 27 32 37 38 37 41 39
13 14 12 9 7 2 7 3 8 10 17 23 27 28 29 26 22 20 18 18 16 17 16 18 19 19 20 20 21 26 24 19 18 19 18 21 24 26 31 34 38 42 32 38 43 43 42 40 40
9 2 3 3 2 5 4 6 17 15 12 14 21 23 27 29 28 25 25 24 22 20 22 20 22 22 22 19 22 24 20 19 18 19 22 27 31 33 35 36 38 41 42 47 51 48 48 42 41
5 3 4 4 2 4 5 6 6 8 13 10 10 14 22 26 26 26 25 25 20 23 24 28 24 24 21 23 25 18 18 20 21 22 26 29 33 38 38 40 47 42 43 45 48 45 45 38 40
2 6 8 4 1 1 4 8 12 12 9 10 12 16 19 21 23 19 19 21 19 22 23 27 26 25 25 29 26 22 22 26 25 26 28 32 36 36 37 37 37 40 47 52 47 45 37 39 44
12 12 6 6 3 2 4 7 11 9 7 5 4 9 13 16 21 20 21 22 19 17 19 24 25 26 29 30 26 25 29 28 29 29 35 35 38 41 42 42 40 51 54 50 54 41 39 43 43
19 16 13 9 4 4 1 5 6 3 4 2 3 3 1 9 17 19 19 19 17 14 19 23 27 28 29 25 22 22 24 26 32 33 31 37 39 47 37 44 43 50 50 58 51 40 42 47 47
20 22 16 7 6 7 6 14 13 13 15 11 8 8 6 2 2 6 3 5 6 9 12 15 19 17 18 20 19 20 27 23 25 29 33 40 42 44 43 46 46 47 53 58 47 45 48 46 39

GFSSGP_700_spd_054.txt.gz
Wind_Speed
13 11 13 13 7 6 5 11 14 11 9 8 7 15 14 13 12 10 5 6 10 19 26 30 33 32 31 28 26 23 19 20 15 10 6 6 7 6 5 4 3 3 3 5 8 9 9 10 10
12 11 12 9 7 7 6 9 12 14 11 15 12 9 10 14 11 14 10 6 10 19 26 32 35 35 33 31 28 20 22 18 15 11 8 8 8 8 6 4 3 3 5 7 8 10 11 12 13
11 10 9 6 10 15 7 4 13 14 11 11 12 10 6 10 12 13 11 13 16 25 30 36 36 39 36 33 31 22 24 19 14 11 8 10 10 9 7 5 4 4 6 7 8 10 12 13 15
10 8 9 12 13 6 6 8 11 13 18 14 11 12 11 8 9 9 8 11 17 23 28 35 40 40 38 35 31 27 22 17 14 8 8 11 11 10 8 6 4 4 6 7 10 12 14 17 19
8 8 12 12 10 6 7 11 14 11 11 16 14 12 10 6 7 8 6 14 15 20 28 35 40 44 41 37 28 24 20 17 10 10 13 13 13 10 9 7 4 5 6 8 9 11 14 16 18
8 9 9 7 9 4 9 7 11 6 7 11 13 8 9 9 4 4 6 11 15 20 26 38 39 46 45 37 30 22 19 15 11 14 17 16 13 11 8 6 5 3 5 7 8 11 14 16 17
8 10 11 7 5 2 8 9 12 10 11 14 9 14 16 8 6 7 8 9 16 19 26 31 25 28 36 36 24 20 20 18 19 19 18 15 12 10 7 4 1 3 4 6 10 12 12 13 16
10 12 10 7 3 7 11 11 10 10 10 14 11 9 18 10 9 9 9 10 9 18 21 21 28 30 34 34 30 26 24 22 23 21 18 16 14 10 6 2 1 3 5 7 10 9 12 14 17
9 10 9 6 5 7 11 13 8 9 11 14 12 11 12 9 9 10 8 9 5 14 27 21 8 16 27 38 33 33 29 25 23 22 20 17 12 8 4 2 2 5 8 8 8 11 14 18 19
10 9 10 7 3 7 15 12 6 9 10 10 13 9 10 3 5 10 9 7 4 12 16 22 20 28 27 36 34 30 28 25 20 20 19 16 10 7 3 3 6 7 8 9 10 14 19 18 19
9 9 8 12 11 10 6 2 4 7 9 7 3 3 4 5 7 5 9 9 7 8 7 19 25 20 22 32 28 28 25 23 21 18 15 11 7 4 3 6 8 9 10 8 14 19 20 19 18
12 5 8 8 4 9 5 2 4 6 7 5 5 6 6 6 4 2 5 6 11 15 16 15 30 29 30 33 29 23 20 19 17 14 12 8 6 4 6 9 11 13 12 14 17 20 21 20 19
5 7 7 1 1 2 3 3 3 6 5 4 6 3 3 3 9 12 14 11 26 32 26 26 30 29 25 22 20 18 16 16 15 13 10 9 7 6 9 12 13 15 19 22 23 24 23 21 22
6 6 4 3 5 3 4 5 5 5 5 3 13 18 10 19 10 13 16 13 24 22 18 20 20 18 17 16 17 16 16 15 13 11 11 10 8 10 12 14 17 18 19 21 23 24 21 21 25
5 5 5 9 6 4 7 6 7 9 5 3 4 16 18 15 15 12 12 15 14 14 13 13 15 16 16 17 16 15 14 13 13 13 11 11 12 14 14 16 17 19 21 22 25 20 21 24 28
8 4 7 8 9 6 9 5 6 3 4 4 4 6 9 8 18 16 14 15 14 13 14 14 15 15 17 17 15 14 12 11 11 11 13 14 14 15 17 19 21 21 22 22 19 20 24 27 30
2 4 6 8 10 7 9 6 7 7 8 6 4 4 10 12 9 15 13 12 13 13 13 15 16 17 17 16 15 14 12 10 10 11 13 14 15 16 18 21 21 21 20 18 20 24 27 30 32
2 4 3 2 3 4 7 12 14 7 7 6 6 4 11 14 9 12 14 16 17 18 18 18 17 16 15 14 12 10 7 5 7 10 12 14 15 16 19 21 21 20 18 20 23 28 33 35 36
1 8 9 4 3 14 21 18 15 13 10 6 2 5 7 11 12 13 14 18 19 18 18 17 16 14 13 10 7 6 4 5 7 9 13 15 15 16 19 20 20 20 21 23 27 31 35 38 37
3 5 3 3 7 17 17 11 10 13 14 11 4 4 14 14 14 15 14 15 17 16 14 13 11 10 11 9 8 8 8 8 10 11 12 14 15 17 19 20 21 22 24 26 30 33 35 33 35
9 8 11 13 12 13 10 11 11 12 17 17 14 9 8 7 11 13 12 11 14 12 9 7 7 8 9 10 11 11 11 10 11 12 12 13 16 19 20 21 22 25 27 28 32 34 36 40 39
11 10 10 14 13 11 10 4 9 15 16 22 21 18 14 13 12 12 13 11 8 10 11 9 10 10 11 13 14 17 16 15 14 15 14 16 20 20 21 23 25 24 26 28 33 35 28 36 38
9 11 15 11 7 9 10 5 7 10 19 21 22 23 21 17 15 11 7 7 8 11 8 6 9 12 12 14 15 17 19 19 19 21 18 18 21 22 24 25 28 32 34 36 39 44 51 48 49
12 9 10 6 4 2 7 6 7 9 11 11 14 19 20 20 18 17 14 13 13 12 10 10 12 15 17 17 17 14 15 21 24 25 21 20 23 24 28 31 33 36 39 39 46 37 40 46 50
8 6 2 2 1 5 5 5 13 14 15 16 15 12 15 23 23 21 20 15 14 13 13 14 11 15 19 19 18 15 17 21 27 24 21 24 25 28 30 33 36 40 41 40 40 42 48 48 52
5 5 3 2 2 4 4 6 7 10 13 12 9 6 8 13 18 24 19 17 14 17 15 16 16 18 22 21 20 17 20 22 21 21 23 25 27 28 32 35 43 38 36 41 41 44 51 47 52
4 3 5 2 2 1 6 9 14 9 12 8 5 7 9 9 12 13 17 18 16 15 14 16 18 21 23 23 23 21 24 22 19 22 26 28 29 32 39 40 46 43 36 33 45 46 51 49 47
10 6 3 3 1 3 4 5 10 11 4 4 4 6 10 11 9 8 12 12 10 12 17 21 21 21 24 24 24 25 23 19 23 25 28 31 31 32 36 41 38 38 43 46 46 47 50 47 41
15 14 11 11 4 3 1 6 7 5 4 4 7 6 9 9 3 5 8 10 13 13 15 16 18 21 24 23 23 24 21 20 21 24 26 25 26 26 36 39 34 40 41 45 49 51 39 41 44
15 20 17 18 6 7 6 20 16 13 14 13 9 7 6 7 5 3 4 4 4 6 9 11 12 15 20 20 21 22 24 23 23 24 26 25 26 29 26 36 37 43 44 51 46 38 42 43 38

GFSSGP_700_spd_057.txt.gz
Wind_Speed
11 11 10 12 7 7 8 11 12 11 7 11 20 22 14 13 13 9 4 11 14 16 19 28 31 31 29 26 24 22 21 19 17 13 9 6 6 5 7 8 8 7 7 8 8 9 10 12 13
10 10 9 10 8 10 11 9 2 7 12 12 10 14 20 14 13 12 13 9 15 19 25 30 34 33 32 28 27 25 23 21 17 14 9 7 7 7 8 8 8 8 8 8 9 10 12 13 14
8 9 8 6 11 14 4 2 9 9 6 7 12 12 12 17 24 16 14 14 18 19 27 31 34 34 34 32 29 26 23 20 17 13 8 7 8 9 8 8 8 8 8 7 8 10 12 13 14
9 9 8 11 12 5 4 6 10 12 4 10 11 9 8 10 12 19 17 12 16 24 29 31 32 34 36 33 30 28 23 18 18 12 10 11 12 10 9 8 8 8 6 6 9 11 13 15 17
9 8 10 11 10 7 6 11 8 3 2 2 10 9 9 6 7 6 8 13 15 29 25 26 31 35 38 36 31 29 23 21 16 13 11 12 13 11 10 9 8 6 6 9 11 13 14 16 18
9 7 7 6 9 5 6 10 8 5 2 3 6 7 11 5 7 3 6 10 15 12 15 22 32 41 37 43 35 31 24 22 15 11 11 14 13 12 11 9 7 5 6 7 10 12 15 16 17
8 8 8 8 8 3 7 9 12 8 8 8 11 13 10 8 6 4 7 12 14 16 16 28 37 42 40 38 30 28 24 22 18 18 17 17 14 11 9 7 4 4 4 6 10 12 13 14 15
8 9 9 8 7 4 2 8 12 9 7 10 12 8 9 11 7 6 6 8 13 19 21 23 17 26 14 25 25 26 28 23 20 19 20 19 16 12 8 4 2 2 5 7 9 10 10 12 16
7 6 7 6 4 5 6 11 13 10 11 12 13 12 10 8 8 7 7 11 10 11 16 19 25 31 14 21 33 29 30 28 23 25 22 20 15 10 7 3 0 3 5 8 9 7 12 15 16
5 6 6 4 4 5 5 6 9 10 9 8 5 8 9 7 7 7 7 9 10 5 11 11 14 17 22 18 34 40 28 32 27 24 24 18 12 8 4 3 2 5 6 8 6 11 14 15 16
6 4 5 4 8 5 6 4 7 6 7 5 1 2 4 9 10 8 9 9 7 12 15 16 20 20 13 25 29 32 36 29 28 26 19 14 11 6 4 3 5 7 7 5 9 14 17 16 15
9 4 6 4 4 9 7 6 4 7 5 5 3 5 12 10 8 8 8 11 10 10 14 14 18 18 12 22 34 27 27 28 24 20 16 12 8 7 6 7 7 7 8 10 14 17 17 16 14
5 4 8 7 5 5 6 7 3 7 4 5 4 4 8 7 6 6 11 16 22 11 17 20 20 27 32 33 28 28 25 23 21 18 16 11 9 8 9 6 7 9 13 15 17 17 16 13 13
6 5 4 10 9 9 5 4 6 6 4 6 9 3 9 6 8 9 19 24 26 25 32 34 35 32 29 28 27 25 22 21 18 17 15 13 11 10 8 7 10 12 14 15 14 15 12 14 17
6 5 8 11 12 6 2 5 7 9 4 6 10 22 12 13 12 12 15 26 21 20 22 26 25 23 22 22 22 22 20 18 18 17 15 13 12 10 9 10 11 15 15 15 15 12 14 18 22
6 6 7 5 4 4 6 3 7 4 2 1 5 9 6 13 15 14 16 15 14 12 13 16 19 20 22 22 22 21 19 18 17 14 13 13 12 10 11 13 15 16 15 15 14 16 18 22 25
4 6 6 5 6 7 6 7 8 10 5 2 3 8 7 6 13 17 17 15 14 12 13 15 16 17 18 19 19 19 18 17 16 16 16 13 13 13 13 15 18 17 17 15 16 19 22 25 27
7 6 6 3 2 4 4 12 14 9 6 4 2 9 9 9 8 11 15 16 17 17 17 17 18 19 20 20 19 18 17 16 14 14 14 13 12 13 15 16 18 17 16 17 18 20 23 25 28
2 3 5 2 2 5 11 13 13 9 6 5 1 8 10 9 10 10 13 17 17 18 19 19 19 19 18 17 15 13 10 9 10 12 14 13 13 14 15 17 18 17 18 18 20 22 25 26 30
2 1 0 3 3 6 13 12 5 7 4 3 2 5 13 16 14 14 17 18 16 16 16 17 17 16 16 15 13 12 11 10 10 10 10 14 13 15 16 18 19 20 20 21 23 26 29 32 34
6 5 5 7 8 8 12 8 7 6 7 9 7 10 16 18 16 16 16 17 17 15 12 12 12 13 14 14 13 11 11 10 9 9 11 12 17 18 17 19 21 22 22 24 25 29 31 32 35
13 10 7 8 9 6 6 4 6 8 11 12 12 15 13 16 17 18 16 15 14 14 15 14 13 13 14 14 14 11 13 14 14 15 17 19 19 18 19 20 23 24 24 27 32 34 35 42 43
11 8 7 11 5 5 7 4 3 6 10 15 14 14 17 17 17 17 17 17 16 18 16 14 13 13 13 14 15 15 13 16 18 20 21 22 23 21 21 24 26 27 29 31 33 36 40 43 45
9 5 7 5 3 2 6 6 5 6 9 11 10 13 14 21 21 19 17 17 18 21 22 19 16 15 15 16 18 18 17 14 16 20 23 25 27 26 24 26 29 30 31 33 39 44 33 37 35
9 6 1 1 2 3 3 4 7 5 7 14 14 14 15 18 24 24 23 22 22 21 19 18 17 11 13 18 19 19 18 18 18 20 24 29 30 27 27 29 31 31 33 36 43 47 37 39 48
10 8 4 3 3 1 4 5 4 10 11 9 10 8 10 12 15 18 23 23 19 17 17 17 15 19 14 17 19 22 22 18 22 21 23 26 25 27 28 27 29 28 34 39 36 37 36 46 43
8 7 6 4 2 0 4 10 13 5 10 5 1 4 5 6 11 15 18 21 20 18 16 16 19 22 19 21 21 23 26 22 25 21 22 25 26 27 26 27 26 30 32 33 33 35 39 42 47
9 7 4 4 3 3 3 4 7 8 1 6 7 6 4 4 9 11 14 18 18 18 16 19 21 22 24 23 25 27 24 25 23 22 24 23 22 24 25 28 25 32 36 37 39 38 36 40 44
14 13 8 4 3 2 2 4 4 6 2 6 8 7 7 4 4 7 12 14 14 17 19 20 22 24 24 23 25 28 26 24 22 21 22 24 25 29 15 27 31 39 29 27 32 37 42 42 39
17 15 15 8 5 7 7 13 16 9 10 6 11 8 5 7 6 5 4 6 6 6 7 8 10 13 16 18 21 24 25 22 21 21 25 26 31 28 18 26 33 30 34 37 42 41 37 39 38

GFSSGP_700_spd_060.txt.gz
Wind_Speed
9 9 9 9 7 12 19 14 14 11 7 9 10 25 20 13 12 11 6 9 15 17 20 24 26 28 27 25 23 20 18 17 14 11 7 5 6 8 9 11 10 9 9 10 11 11 12 13 14
7 8 8 7 11 16 16 10 11 7 8 15 12 20 21 19 21 13 16 15 12 21 23 29 31 31 28 25 23 21 20 18 16 12 8 6 8 10 12 11 11 10 10 11 12 12 12 13 13
5 7 5 8 12 16 11 4 7 8 9 11 14 13 15 18 22 23 20 19 19 17 27 33 32 31 28 26 25 24 22 20 18 15 12 11 12 13 13 13 12 12 11 11 11 11 12 12 13
5 9 8 9 13 10 8 6 10 10 9 10 9 8 11 12 20 17 26 28 22 25 32 31 35 32 31 29 28 25 23 21 20 17 15 13 14 14 14 14 13 11 10 10 10 10 12 13 15
7 8 9 10 10 10 9 8 10 6 5 6 8 9 9 5 12 13 25 20 20 27 36 36 37 38 35 32 28 26 24 22 20 17 15 14 15 15 15 14 11 10 9 9 9 10 12 13 16
5 6 9 10 5 6 6 6 8 6 5 4 5 7 8 10 12 10 14 15 18 26 16 29 27 33 36 38 37 33 26 23 20 19 17 16 17 17 15 13 11 9 8 8 8 9 10 11 15
6 7 10 9 7 3 1 6 10 15 8 7 8 9 10 12 10 9 10 10 15 14 12 28 27 37 42 39 38 34 29 22 22 20 17 18 18 16 13 10 8 6 6 6 6 7 8 13 15
6 6 8 7 4 3 4 7 6 13 8 8 7 8 8 10 11 10 10 11 12 14 15 19 23 19 25 17 13 28 24 24 23 21 19 18 18 15 12 8 6 4 3 4 5 7 11 13 14
7 6 8 5 4 4 7 5 6 16 12 12 11 10 12 9 9 9 10 10 10 15 15 14 19 18 21 18 15 15 29 26 25 22 22 21 18 14 10 7 5 3 2 3 6 6 10 11 12
3 6 4 4 5 7 11 8 3 18 13 10 8 5 9 9 9 9 10 8 7 10 18 19 21 22 22 23 11 26 40 34 35 28 24 19 16 12 8 6 3 1 3 5 5 9 11 13 13
6 5 5 5 7 10 9 10 11 12 8 9 9 6 7 8 7 8 8 9 7 8 10 14 17 16 14 16 15 35 46 40 37 34 23 19 13 10 7 3 1 3 5 5 8 10 12 13 12
8 7 9 6 4 10 10 13 9 9 7 9 10 11 11 8 7 8 10 11 8 15 18 14 20 14 13 16 25 40 39 31 29 24 21 17 15 10 8 5 3 4 7 9 10 12 15 13 10
11 7 10 10 11 10 8 7 8 10 8 10 10 11 12 9 8 10 12 14 12 14 14 13 16 15 19 28 25 30 34 28 23 23 22 19 13 11 8 6 5 7 8 10 12 13 13 9 9
9 8 11 11 14 13 5 5 5 8 8 5 10 8 6 6 3 6 13 18 12 10 14 14 23 34 32 33 38 33 27 24 24 23 20 16 15 13 10 9 8 7 9 11 11 11 9 10 12
9 9 9 8 10 8 3 6 5 8 4 6 3 9 12 13 7 13 18 18 10 16 19 23 34 29 32 24 25 26 26 25 24 22 21 17 15 13 11 10 9 8 12 12 10 9 11 12 15
10 10 10 6 5 5 4 1 5 5 3 3 4 6 12 13 12 17 18 17 19 20 28 29 26 23 24 26 26 24 24 25 24 22 19 18 17 15 12 11 11 13 13 12 10 11 12 15 17
12 12 7 4 6 7 4 3 9 8 4 4 4 6 4 9 14 19 17 15 14 17 19 20 21 22 22 21 23 24 23 23 23 22 20 19 18 16 14 13 13 14 15 13 12 12 14 16 19
10 10 9 6 5 5 7 8 13 9 7 5 4 7 6 4 10 12 14 17 18 17 18 19 18 18 20 23 23 23 23 23 22 21 20 18 17 16 15 15 14 17 17 14 14 15 17 20 21
8 8 6 3 5 7 8 10 10 6 4 5 5 9 10 9 8 10 14 16 16 18 18 18 20 22 23 23 23 22 20 18 15 16 17 19 19 17 17 15 17 19 18 17 17 19 21 22 22
8 10 8 6 7 6 8 10 9 4 4 3 3 5 10 14 14 13 14 16 17 17 17 18 17 17 16 16 16 16 15 15 16 17 16 17 17 18 18 19 20 20 20 19 20 21 23 24 26
8 9 6 4 5 9 10 11 9 11 7 6 7 9 12 16 13 15 18 18 18 18 18 18 17 17 17 17 18 18 18 17 16 15 13 16 18 19 22 22 21 21 22 21 22 23 25 30 31
12 10 8 7 10 11 5 4 5 6 8 10 12 14 14 15 15 17 18 19 19 19 19 19 19 19 19 20 20 19 18 17 16 16 16 17 20 22 23 24 22 24 24 23 25 27 30 31 37
12 10 8 9 10 8 8 9 5 5 6 9 12 15 18 16 16 18 19 19 21 23 22 21 19 20 20 20 20 20 20 19 20 21 23 24 24 26 26 26 28 27 26 27 29 30 33 32 36
11 8 9 6 6 9 5 7 5 8 6 7 11 12 17 22 21 20 22 23 21 23 24 23 21 20 19 18 19 19 20 22 21 23 25 28 28 30 30 30 31 29 30 29 30 30 35 38 34
12 11 9 5 6 4 4 6 11 5 6 8 12 14 14 16 27 26 24 22 24 25 24 24 22 19 18 17 18 19 21 22 28 23 24 27 28 30 30 33 32 31 31 29 30 28 32 32 33
15 13 7 5 4 4 4 6 2 6 9 7 9 14 16 19 24 32 29 26 23 22 23 23 21 22 22 17 18 18 22 27 28 26 22 27 31 32 30 31 30 31 31 33 26 28 35 31 36
13 12 9 3 3 3 6 6 9 2 7 6 3 6 9 10 15 27 31 32 29 28 26 24 24 25 26 25 23 24 27 29 30 24 24 30 33 31 37 32 31 35 33 27 27 38 37 34 39
10 13 7 7 4 5 4 5 6 2 2 7 5 4 1 5 11 17 25 28 30 31 30 29 27 27 28 28 29 30 30 31 31 28 27 31 31 28 32 30 31 34 29 32 31 35 35 37 29
15 10 7 4 4 3 3 5 5 4 2 4 4 4 4 3 1 6 16 21 25 28 29 28 26 27 30 32 32 30 29 31 32 30 29 30 34 29 34 36 42 15 24 35 34 36 31 35 35
15 14 13 10 6 7 5 12 13 15 10 6 7 6 5 7 5 4 4 16 20 23 28 30 31 30 29 29 30 30 30 30 29 30 31 36 27 29 36 38 32 22 28 31 30 34 36 38 39

GFSSGP_700_spd_063.txt.gz
Wind_Speed
10 8 6 5 9 13 22 26 19 12 13 15 12 16 20 24 26 27 23 2 17 23 18 19 22 23 26 25 23 21 17 14 12 9 6 6 8 9 12 14 13 13 13 14 15 16 15 14 13
4 5 5 6 14 21 24 12 7 11 9 17 10 13 17 21 21 23 43 15 14 17 20 25 24 27 27 25 23 20 18 16 14 10 8 7 10 11 13 13 14 15 16 16 15 14 13 12 12
1 3 5 15 18 23 17 5 11 6 10 11 11 14 16 19 26 19 18 26 26 20 21 26 23 26 27 26 23 22 20 18 15 12 10 10 11 13 13 14 14 15 15 14 14 13 13 13 13
2 4 6 10 18 15 11 12 5 11 13 12 10 11 16 19 18 26 27 25 25 28 26 28 30 33 31 29 27 24 21 19 16 14 12 12 15 16 15 15 15 16 14 14 13 12 13 13 14
2 4 11 19 16 11 9 9 8 8 13 8 10 23 13 20 18 20 24 22 28 32 27 35 35 38 37 34 30 28 25 21 19 17 15 15 17 17 16 16 15 14 13 12 11 10 11 11 13
6 7 13 17 6 6 6 7 3 5 8 8 10 14 11 18 18 20 18 15 21 22 26 10 40 39 41 40 37 35 30 26 22 20 17 19 19 17 17 15 13 12 11 9 9 8 8 10 11
7 11 17 15 11 9 6 3 5 6 8 10 10 9 18 14 18 20 19 18 15 22 23 12 24 35 43 40 38 34 31 30 24 21 20 20 17 18 16 14 11 10 8 7 6 6 7 9 10
8 10 13 11 9 4 6 1 2 4 8 14 12 10 12 17 20 18 15 16 14 14 18 9 16 13 26 23 29 24 33 26 22 21 21 20 21 18 15 12 9 8 6 5 5 5 6 7 10
8 9 14 7 8 7 5 3 9 8 17 12 12 12 18 14 16 16 13 12 10 9 8 15 17 14 20 28 5 5 24 35 29 25 24 23 23 20 14 10 7 5 4 3 2 3 6 9 13
7 13 11 6 7 10 10 10 10 13 15 12 11 11 11 12 14 14 11 8 7 8 8 14 19 13 18 27 21 16 15 39 37 32 30 29 23 17 12 9 7 4 2 1 1 5 10 15 14
7 12 9 7 8 10 12 10 10 18 20 6 9 10 12 12 15 13 11 8 7 6 9 15 13 20 19 21 21 15 33 41 35 31 34 25 20 17 12 9 6 4 1 2 6 11 14 14 10
11 10 10 10 10 11 11 12 11 13 12 15 15 12 16 16 14 12 11 9 10 10 10 11 19 25 22 15 14 24 38 37 33 34 30 29 19 15 11 8 6 4 2 6 9 12 11 10 6
11 10 10 11 13 13 11 9 11 9 12 17 14 18 15 11 10 10 11 11 11 10 15 15 14 14 9 11 17 37 39 36 33 38 30 21 18 13 11 9 7 4 6 8 9 10 9 6 5
8 12 13 13 14 14 15 11 9 10 12 11 13 14 6 6 2 9 12 11 12 14 17 15 13 15 14 21 31 35 36 34 36 30 24 19 17 13 12 10 7 7 7 9 9 7 7 7 8
13 14 15 13 10 13 11 16 13 8 6 4 7 6 1 9 6 4 9 5 4 7 10 18 21 22 29 26 22 23 38 38 27 23 21 20 18 16 14 12 9 10 9 11 9 9 10 10 11
14 15 19 10 12 11 11 17 6 3 2 3 2 4 5 6 8 17 15 7 8 9 17 27 29 28 25 26 29 29 26 26 24 22 20 20 19 17 14 12 14 13 12 13 12 11 11 12 13
15 21 12 10 10 11 12 10 9 4 4 2 2 4 3 2 11 6 9 13 15 20 25 25 26 25 23 26 23 23 23 22 21 21 21 21 20 18 16 16 17 15 15 15 13 13 14 14 15
14 15 13 11 7 11 14 13 2 2 3 4 6 8 6 6 11 9 8 8 13 17 19 18 18 17 19 20 20 20 20 21 22 21 22 19 19 20 20 19 19 19 18 17 15 16 16 17 17
11 10 10 8 5 7 11 12 10 4 6 8 9 9 10 10 12 10 10 13 13 17 19 16 13 14 17 19 20 20 20 21 22 21 21 21 21 21 23 22 21 21 20 19 17 17 18 19 19
10 13 12 7 6 7 10 14 7 7 7 9 10 11 12 13 15 14 12 13 13 14 16 18 18 18 18 16 17 18 19 19 19 21 22 20 21 22 23 24 24 23 24 23 20 19 20 23 22
11 15 3 5 9 12 13 19 13 10 9 11 13 14 14 17 16 17 14 14 15 16 17 17 16 17 17 17 18 18 19 19 20 20 21 21 21 22 24 25 27 25 30 27 23 21 23 27 27
14 12 11 9 12 14 15 4 15 12 13 14 13 13 10 16 19 19 15 16 17 18 18 19 18 17 17 18 19 20 20 19 19 20 20 19 23 24 27 28 28 27 30 30 27 26 27 27 34
15 9 9 11 15 18 16 11 12 12 13 14 16 16 17 19 21 22 18 16 18 18 18 18 19 20 21 21 22 21 22 21 21 22 25 23 26 25 27 31 29 31 33 34 32 30 29 31 29
10 11 11 12 14 14 10 15 8 16 12 7 12 16 19 20 21 22 22 20 22 24 23 23 23 22 22 22 22 22 21 23 24 26 23 27 30 33 32 34 34 34 35 37 36 33 35 32 30
13 14 15 10 4 9 7 8 9 8 4 6 8 11 15 20 23 24 25 26 24 24 25 26 25 24 23 22 21 21 21 23 25 28 30 32 30 32 29 34 35 37 34 37 37 33 36 32 33
15 20 12 8 6 3 7 7 6 6 4 5 6 9 15 15 21 26 28 27 26 26 27 27 27 26 25 22 21 23 21 20 25 30 33 26 28 26 28 34 38 40 40 38 31 34 35 37 31
15 22 16 10 3 4 8 9 9 5 4 5 5 4 7 10 12 21 27 30 29 29 28 26 28 28 28 24 25 23 24 26 29 34 33 30 28 26 32 32 38 42 43 33 33 34 35 34 34
12 16 12 12 4 8 8 10 6 6 3 5 3 2 1 2 8 11 19 28 32 31 30 30 28 28 27 28 28 29 31 30 32 36 36 33 32 31 34 34 44 46 28 29 33 23 28 35 34
18 14 16 9 11 5 5 5 5 4 7 6 4 3 1 1 2 5 12 20 26 27 30 35 33 30 29 30 32 31 30 31 32 32 33 34 33 34 34 36 37 35 32 35 32 29 29 32 36
18 21 21 18 15 12 14 18 7 9 12 12 10 7 6 5 5 6 7 12 15 25 30 35 36 33 30 29 30 34 32 32 31 30 31 32 32 30 35 32 32 27 33 32 35 30 37 40 36

GFSSGP_700_spd_066.txt.gz
Wind_Speed
10 6 4 3 8 13 19 22 20 26 16 10 14 11 5 13 26 25 26 23 31 28 8 15 17 21 25 25 24 24 21 18 15 11 9 10 12 13 14 15 14 15 15 18 18 16 14 13 12
4 3 6 6 16 20 23 12 14 10 7 13 17 21 21 22 22 20 22 39 51 59 11 16 19 21 24 25 26 24 22 19 16 12 10 11 12 15 15 15 15 16 18 18 17 15 15 14 12
2 4 6 15 18 23 24 9 11 14 15 16 13 14 13 13 21 24 29 31 25 11 25 15 16 19 23 25 27 26 24 21 18 14 13 12 14 16 16 16 17 18 18 17 16 15 14 14 14
1 6 8 9 14 18 21 19 10 14 14 15 14 16 23 22 28 21 20 22 21 16 19 17 18 24 27 30 31 29 25 22 19 17 15 16 17 17 17 18 18 17 16 16 15 15 14 14 13
4 3 13 18 20 20 11 13 14 15 17 21 25 28 15 8 21 20 21 19 18 17 19 19 23 34 33 35 35 33 30 25 21 19 17 18 18 18 18 19 18 16 15 14 13 13 12 12 12
10 12 17 20 17 13 13 12 12 20 16 19 8 18 20 20 16 18 16 18 12 15 19 20 19 4 40 42 46 41 35 30 24 21 19 20 19 18 20 19 17 16 14 12 11 9 10 11 11
8 11 19 22 20 11 3 7 12 9 10 20 23 20 20 11 10 14 14 16 13 12 12 16 26 27 30 30 45 36 37 32 27 23 21 21 20 21 20 18 15 13 11 10 9 6 8 10 11
10 13 18 17 16 7 11 16 18 14 11 15 17 13 26 27 13 12 14 11 12 15 15 14 18 17 30 16 22 28 31 30 26 24 25 24 23 23 19 16 15 12 9 8 5 4 6 7 9
11 16 19 17 10 3 16 20 17 21 18 13 8 13 22 20 11 13 10 11 9 11 11 15 16 5 7 6 7 12 33 31 28 30 28 24 25 24 21 16 13 10 8 5 4 2 5 7 8
11 16 19 12 12 14 13 15 11 18 16 19 27 13 17 17 14 12 8 10 9 9 9 15 18 11 16 15 17 11 13 34 28 33 30 30 27 21 19 15 13 10 7 4 1 3 5 6 4
13 18 18 14 12 12 15 15 12 13 18 21 9 10 18 19 14 12 9 8 8 8 7 8 8 19 15 21 25 13 28 30 36 33 31 30 28 23 16 10 8 6 4 1 2 4 8 6 7
14 16 16 16 15 14 15 16 18 19 19 10 9 12 18 19 17 13 9 8 9 8 4 2 11 9 21 28 19 21 28 38 38 34 31 28 29 18 17 15 10 7 3 1 4 6 7 6 3
17 17 16 16 17 17 17 14 12 12 10 8 10 13 17 16 13 11 9 10 10 7 7 13 11 20 23 25 18 24 32 43 35 35 34 26 24 21 17 13 10 6 2 3 6 7 5 2 1
17 15 17 18 18 19 18 16 21 20 19 13 9 10 12 7 8 11 9 9 9 9 7 16 14 17 18 12 21 32 38 40 36 30 33 31 26 19 14 11 9 6 4 5 7 6 6 3 4
18 20 19 20 19 18 16 18 15 21 18 8 9 8 9 9 18 11 4 2 5 15 13 15 14 17 17 22 33 34 39 39 28 35 34 29 21 17 14 12 11 8 7 7 8 8 7 6 6
19 19 23 17 12 15 15 20 17 13 6 6 6 5 7 7 13 17 11 5 5 12 10 17 20 25 23 29 34 40 35 37 36 36 28 24 20 16 14 13 10 10 11 12 11 10 10 10 11
19 22 21 18 14 14 15 15 15 19 14 11 3 5 3 4 4 5 7 8 9 6 12 16 20 24 28 23 25 25 34 31 33 29 26 22 19 15 14 14 12 14 14 15 15 13 13 13 14
20 13 24 17 13 13 12 8 17 14 11 17 11 10 3 7 6 6 9 6 11 19 20 23 26 26 20 27 31 32 28 28 27 26 24 22 19 17 17 16 18 16 18 18 17 15 15 16 16
21 16 15 5 5 6 11 13 10 12 15 15 10 10 8 5 15 8 3 10 12 14 16 15 18 20 23 24 24 24 24 24 24 24 21 20 20 20 19 20 20 19 21 20 21 21 19 19 19
15 15 15 8 1 8 10 11 5 7 8 11 10 11 16 11 17 13 10 7 11 15 17 14 13 16 17 17 17 17 18 19 18 18 19 18 18 19 18 21 22 20 23 25 25 25 25 23 22
14 15 11 17 10 16 15 16 13 6 10 10 11 12 16 17 17 18 10 12 11 14 15 15 16 15 16 15 17 17 18 19 20 20 20 18 18 20 20 22 24 24 25 31 29 27 30 29 29
15 13 12 14 13 14 3 15 15 17 14 13 13 15 18 18 18 17 11 11 12 12 13 13 12 13 15 15 17 19 19 19 16 16 17 19 16 19 20 23 25 28 26 31 33 30 32 34 35
17 6 11 11 15 19 16 8 16 13 20 19 18 19 13 14 19 18 9 9 12 14 15 15 15 16 18 18 18 18 18 16 16 16 18 21 17 21 22 25 27 29 30 33 36 38 36 37 36
13 13 12 14 16 15 19 10 13 10 13 16 19 16 15 13 17 20 16 12 14 16 17 19 20 20 19 17 18 17 15 18 20 20 22 23 22 22 25 31 32 36 38 33 35 36 37 41 41
15 14 12 9 11 8 10 12 14 6 16 6 7 17 14 17 21 21 24 21 19 19 18 18 18 18 19 18 17 20 19 19 22 23 26 24 26 22 30 29 37 33 34 36 38 40 41 42 39
19 19 15 6 3 4 7 7 7 5 8 7 7 12 9 18 21 24 25 28 25 22 22 22 22 21 22 22 21 19 23 24 22 25 27 25 29 26 29 29 26 31 36 39 37 44 42 39 35
20 21 22 9 12 7 8 15 7 11 5 5 6 8 10 17 17 22 22 29 31 28 26 25 25 25 26 24 25 27 24 24 29 26 28 29 29 32 31 30 29 30 34 35 41 34 40 28 24
24 15 18 12 4 6 7 9 4 10 7 7 7 7 6 11 13 15 23 24 30 33 30 28 28 28 27 30 30 30 27 27 27 30 32 30 32 35 32 33 32 31 33 36 35 34 31 28 27
21 19 17 21 15 1 4 2 9 2 6 9 8 6 7 5 6 9 17 20 27 28 28 30 30 31 32 33 33 32 32 30 35 29 30 31 32 34 31 30 28 27 33 33 33 23 28 37 36
24 22 19 15 10 11 7 9 5 1 8 12 9 10 8 7 5 9 7 9 22 25 25 31 31 35 36 37 36 37 32 32 28 28 29 29 29 28 29 29 30 33 34 34 32 24 26 31 38

GFSSGP_700_spd_069.txt.gz
Wind_Speed
8 8 7 3 8 8 18 23 20 27 12 11 13 11 13 12 10 10 11 8 9 15 16 29 25 24 29 30 29 27 26 22 19 16 16 17 17 18 19 18 17 17 17 18 18 16 14 13 11
4 5 5 2 10 18 23 22 21 16 11 10 14 16 13 10 5 15 20 21 22 25 31 29 50 34 31 30 30 29 27 24 21 18 18 18 18 20 20 19 18 18 19 19 18 16 15 13 11
2 1 3 5 14 23 24 19 28 13 15 14 12 7 12 8 13 15 20 22 24 32 34 36 46 47 35 32 29 29 28 25 22 20 20 20 20 20 19 19 19 20 19 17 17 16 15 14 12
3 3 7 14 17 19 23 24 15 10 11 17 15 13 14 20 17 17 15 16 22 21 20 21 16 31 31 36 35 34 33 31 28 24 21 20 21 21 20 20 21 19 18 17 16 16 15 13 11
3 2 13 25 31 30 27 17 18 15 19 22 24 28 25 28 24 31 20 16 19 18 16 18 16 33 31 36 38 40 37 32 28 26 24 22 22 21 22 22 21 19 18 17 16 14 11 11 9
3 5 21 32 31 29 14 13 10 10 12 18 23 24 22 20 21 18 20 14 16 15 14 15 13 23 33 29 48 45 41 35 31 27 24 23 22 21 22 22 20 19 17 15 14 12 11 10 9
2 8 20 29 27 25 5 8 13 13 15 14 22 24 12 13 20 22 16 10 14 15 14 11 18 19 27 28 49 52 50 42 33 29 26 25 25 25 25 23 21 19 16 13 10 10 12 8 7
8 14 26 24 22 24 12 18 19 19 16 21 19 11 21 9 10 6 8 13 14 15 15 14 13 16 17 20 6 24 33 38 31 30 29 29 29 28 26 24 21 17 15 13 12 10 6 5 3
4 19 25 23 22 21 18 19 20 10 15 15 18 25 16 15 10 9 8 13 13 13 13 12 12 11 8 8 18 26 28 38 32 30 31 31 31 29 26 23 21 17 13 11 9 5 3 3 4
10 16 22 20 26 20 15 17 20 12 17 13 19 29 12 18 12 11 7 13 14 12 13 10 15 14 10 5 5 25 20 31 34 32 32 31 30 29 25 22 19 15 10 6 5 1 2 4 1
16 24 21 23 22 17 13 14 20 11 8 8 15 20 19 21 14 13 12 12 13 13 10 12 13 13 13 8 8 20 19 31 39 31 34 31 29 26 21 16 13 12 6 4 3 0 3 2 3
19 24 21 24 21 20 22 16 19 22 14 10 15 21 20 22 20 15 12 14 14 11 10 9 11 16 14 12 18 14 24 37 32 39 31 29 28 22 21 19 13 10 9 4 1 2 2 1 4
23 22 21 23 17 23 18 19 22 22 23 29 14 14 18 13 12 13 13 14 14 13 11 5 10 13 21 18 22 20 35 41 36 34 33 28 26 25 21 18 16 11 7 4 1 1 1 2 2
23 21 22 20 21 19 18 20 20 19 22 23 20 10 6 13 14 13 11 11 11 10 8 13 12 17 15 19 21 20 33 34 36 34 30 31 28 27 22 22 15 11 8 3 2 3 2 2 2
18 26 21 23 20 21 19 19 22 20 13 10 8 6 3 8 13 9 3 8 8 9 10 8 13 15 21 22 16 25 32 36 38 36 30 33 31 26 19 15 13 11 7 5 3 5 4 4 4
19 20 24 20 19 18 20 22 22 21 18 15 12 8 5 3 5 9 9 3 8 11 11 12 16 13 18 16 12 30 35 40 37 35 29 33 28 22 19 15 13 12 9 8 8 7 7 6 5
16 25 26 24 24 25 13 19 22 15 16 9 13 7 9 2 1 5 10 10 5 9 13 11 13 8 18 19 29 36 36 36 31 35 37 30 24 21 17 16 14 12 11 11 11 12 12 11 11
17 21 26 20 11 9 12 20 15 8 11 13 13 14 12 4 3 3 4 8 14 16 15 14 11 10 16 21 21 27 29 36 37 34 30 25 23 20 18 17 14 14 13 14 14 16 16 16 17
16 25 20 17 18 13 12 15 16 10 7 22 13 16 10 5 2 4 3 5 9 13 19 22 23 25 26 28 31 37 37 34 32 31 27 25 22 22 19 17 16 15 15 17 17 19 20 20 21
27 27 19 6 4 7 11 14 13 7 4 7 10 10 10 8 6 2 5 4 8 9 14 17 20 21 20 20 25 27 26 25 24 24 26 23 24 21 19 18 18 17 17 21 21 22 24 25 26
25 17 16 17 11 12 16 18 8 8 9 12 14 10 10 11 8 1 5 5 6 10 11 13 14 14 14 15 16 19 21 22 23 23 23 23 23 21 17 17 20 18 19 23 23 23 26 28 33
16 12 16 12 12 15 14 14 16 17 12 14 15 15 15 16 11 4 7 8 10 10 13 14 15 15 15 16 18 20 19 20 19 19 19 20 18 18 15 13 18 19 19 23 27 27 28 29 32
20 17 14 12 13 13 18 8 8 12 21 22 18 20 19 19 11 5 5 8 12 14 14 15 14 13 14 16 15 17 19 19 19 21 21 19 16 14 15 16 20 23 22 25 26 31 36 38 41
18 18 9 11 13 12 21 6 17 14 16 24 18 24 24 22 15 7 5 9 11 15 17 17 18 18 21 21 20 18 18 20 19 19 19 17 16 14 15 17 16 22 29 32 29 30 30 33 32
21 13 4 5 5 6 9 9 22 17 21 21 12 32 21 18 17 14 11 11 14 14 15 16 19 22 21 20 20 17 16 18 18 20 23 20 17 16 18 15 18 18 22 27 32 34 31 31 31
22 24 10 5 3 4 11 8 12 8 18 9 9 22 18 19 15 12 12 12 14 17 16 18 20 19 19 18 17 17 18 18 19 21 21 19 19 19 23 23 23 22 22 24 30 30 33 35 37
23 26 24 8 3 4 7 18 8 16 15 11 10 12 17 20 18 19 17 16 17 19 19 21 22 21 22 22 21 19 20 23 19 23 25 26 26 25 23 27 28 24 26 25 28 32 32 32 24
30 15 17 5 4 3 12 16 9 17 11 10 12 14 14 12 20 22 23 23 22 20 19 19 24 25 25 26 27 27 26 27 27 25 30 31 28 21 23 27 30 28 26 26 27 28 30 32 20
26 29 21 15 13 5 2 1 17 16 14 10 13 15 15 18 18 15 20 29 26 23 24 24 20 23 29 30 31 32 33 32 34 36 33 32 32 24 24 25 25 23 26 29 28 29 30 25 27
31 28 27 20 15 9 8 3 12 4 10 14 16 13 14 14 13 12 18 21 23 32 31 27 26 26 25 29 31 31 33 36 31 43 45 15 18 20 22 24 23 26 28 29 30 31 24 31 29

GFSSGP_700_spd_072.txt.gz
Wind_Speed
10 9 9 8 6 5 12 8 17 23 10 0 2 6 9 9 13 6 3 5 11 7 11 13 23 25 19 32 30 31 31 28 25 21 19 19 19 20 20 20 19 17 15 14 14 13 12 12 12
8 7 5 7 6 8 8 10 14 14 5 2 3 3 8 11 17 16 16 13 14 14 16 16 20 22 36 24 33 36 33 30 26 22 22 20 20 20 20 20 18 17 16 16 15 13 11 12 12
7 5 2 4 8 8 11 19 28 18 6 8 11 15 15 14 14 16 18 19 22 18 17 21 28 30 32 43 40 39 36 32 27 24 24 24 23 22 22 20 19 19 19 17 15 13 12 13 12
6 7 6 9 13 15 22 33 22 8 12 16 19 22 22 22 23 17 24 25 25 35 24 20 26 36 39 38 39 45 41 36 31 29 30 28 26 24 23 22 22 22 20 18 16 14 13 13 11
8 6 7 10 16 21 31 17 5 10 17 20 24 25 27 26 22 23 20 24 27 22 26 18 19 21 27 24 50 54 54 39 33 29 27 26 26 25 23 24 23 21 19 18 17 14 10 11 10
11 9 7 13 20 21 14 5 11 19 22 19 19 24 26 34 16 17 20 15 21 17 17 17 15 15 24 8 10 47 51 43 35 32 31 30 29 27 26 26 24 22 20 19 16 12 9 10 11
9 6 11 16 18 21 22 11 14 19 16 17 18 21 20 23 16 18 10 9 14 13 13 14 12 15 19 26 24 45 44 39 37 37 34 33 31 30 29 26 24 22 20 18 15 11 7 6 8
8 8 13 15 18 22 16 10 16 16 12 15 15 15 25 15 14 14 10 9 16 16 13 13 16 14 15 9 0 37 42 40 39 36 36 34 33 31 29 27 24 22 20 16 14 11 6 2 3
9 13 15 13 16 20 19 11 18 17 15 13 19 15 18 16 18 16 14 13 12 12 12 15 15 16 14 8 16 27 19 35 37 35 35 35 34 32 29 27 24 20 18 15 12 9 5 2 2
15 16 10 13 18 23 24 15 18 13 15 17 18 21 18 17 21 17 14 14 11 11 12 14 13 15 14 12 10 20 33 33 39 34 33 35 34 31 28 24 22 19 16 13 8 5 4 2 2
18 22 14 19 17 20 24 20 19 18 15 20 23 22 25 19 21 18 17 16 12 11 14 13 13 13 11 5 4 22 32 32 45 41 38 36 36 27 25 25 21 17 14 9 5 2 2 2 2
19 17 18 22 27 22 21 21 22 20 23 28 24 28 26 12 16 10 10 15 14 13 12 12 13 14 12 3 13 20 20 27 37 38 37 39 32 32 28 23 18 12 8 7 4 2 3 3 3
18 18 20 21 17 14 19 22 23 24 23 24 22 24 18 15 16 19 13 12 13 12 12 11 13 14 13 9 16 18 19 25 34 33 34 33 30 28 23 18 16 15 15 8 6 4 3 5 6
19 21 23 20 17 19 20 21 24 23 21 20 18 19 14 15 11 14 7 10 12 11 13 13 18 16 14 16 16 16 17 26 35 37 35 31 28 24 23 18 17 20 12 8 4 2 2 5 5
21 23 22 23 23 26 20 28 29 24 21 20 23 24 14 14 11 12 10 10 12 13 14 17 13 16 18 15 16 18 16 31 35 37 36 33 28 26 26 24 24 18 13 9 5 3 2 3 5
21 21 24 5 12 15 18 30 29 24 22 25 22 12 13 11 11 9 11 10 6 10 17 9 17 20 20 21 21 21 17 33 38 40 36 32 33 28 26 29 23 19 13 10 9 6 2 3 5
22 25 20 17 14 22 25 23 19 16 23 17 17 13 8 10 10 4 9 8 3 12 17 20 19 16 21 24 20 20 26 34 34 36 35 35 29 33 29 26 23 18 14 12 12 9 8 6 6
23 18 14 18 15 11 10 18 17 18 15 14 9 12 10 9 9 3 4 7 9 2 18 18 16 14 14 22 22 20 41 37 36 38 41 35 38 33 25 23 19 16 15 14 12 11 12 11 11
22 20 14 14 15 12 15 16 12 15 11 10 12 13 6 5 6 7 2 2 6 12 17 19 17 19 21 23 23 37 36 28 33 35 35 37 35 28 25 23 20 19 16 15 14 13 14 13 17
22 22 21 22 21 19 9 10 14 10 9 7 6 5 6 5 4 5 6 4 4 11 18 22 21 21 23 23 26 29 27 27 33 37 40 36 30 28 25 22 20 18 17 16 15 16 17 17 21
23 21 23 26 16 19 18 16 14 10 9 10 10 10 8 6 6 4 5 4 7 8 11 15 17 19 22 25 28 31 32 37 37 36 35 32 30 27 22 19 19 18 18 18 19 19 19 18 23
26 13 19 21 17 12 11 12 12 14 13 19 13 18 10 6 0 3 6 3 5 8 9 11 10 10 13 16 20 25 29 29 28 28 27 28 26 24 21 20 19 18 18 18 19 20 21 22 21
25 13 17 19 20 16 15 9 11 14 19 23 21 21 13 8 3 6 6 5 6 8 9 11 13 14 14 15 17 20 22 21 22 24 26 27 26 22 19 18 18 18 17 18 21 22 24 26 24
14 16 19 13 16 9 16 15 18 23 18 23 25 22 15 11 8 9 11 12 12 12 12 14 15 15 16 16 17 18 20 21 22 21 22 22 20 19 19 20 19 18 14 16 22 24 27 29 29
25 26 4 4 4 6 8 9 18 15 17 16 25 27 20 17 13 13 16 14 14 14 15 16 16 17 18 18 19 19 19 21 21 21 21 18 17 17 16 21 21 19 21 19 20 22 22 28 25
23 23 13 5 4 5 11 9 14 13 20 20 18 20 23 24 21 11 8 11 14 14 16 17 19 21 21 21 17 18 17 18 18 20 20 20 21 19 19 20 25 24 24 24 22 22 22 25 28
25 29 27 14 3 1 7 19 21 15 11 18 14 21 21 26 23 17 14 12 9 11 14 18 19 19 22 21 22 22 22 22 21 21 21 21 22 21 25 24 26 27 25 28 20 26 25 26 28
24 25 16 10 5 3 8 15 11 15 15 15 14 14 17 18 21 22 22 19 15 14 14 14 14 18 20 22 24 24 25 25 27 27 27 30 29 29 28 29 23 26 29 28 31 29 28 28 27
28 29 15 20 12 4 3 6 12 16 21 17 14 14 15 17 20 25 27 25 24 21 21 21 19 17 18 20 22 24 28 31 33 33 34 32 36 37 36 22 22 21 25 28 25 30 32 28 29
29 33 35 17 9 16 15 8 10 18 16 17 14 15 16 17 15 15 19 20 22 21 25 28 25 25 29 28 26 26 30 31 35 39 34 37 18 36 11 28 26 25 27 28 26 30 28 31 35

GFSSGP_700_spd_075.txt.gz
Wind_Speed
12 12 9 8 5 3 6 3 10 20 14 6 4 8 14 16 12 12 11 16 15 12 11 16 20 26 24 26 30 31 30 31 31 29 25 21 21 18 16 16 15 14 13 11 11 12 14 11 9
11 8 5 7 3 4 4 7 20 26 14 7 7 9 12 16 20 18 12 14 15 14 18 19 25 32 29 29 26 24 32 31 31 29 25 24 23 22 20 19 17 16 14 14 13 14 14 12 9
8 6 3 4 4 4 13 21 25 7 6 9 8 11 9 15 19 23 21 20 19 20 19 21 28 25 36 38 35 32 31 35 33 30 26 26 26 24 21 20 18 17 17 16 16 15 14 13 9
6 5 5 8 8 9 16 21 16 9 6 9 10 9 17 22 23 24 24 23 22 24 19 19 24 28 30 29 31 32 32 29 35 33 28 28 24 25 23 21 20 19 18 16 17 16 14 11 9
8 7 6 8 10 9 12 8 4 6 8 9 10 16 21 17 23 17 18 20 23 23 17 23 28 30 34 44 41 38 38 38 44 32 32 31 29 27 25 24 22 22 20 17 17 17 14 10 9
10 9 7 9 11 8 11 9 10 7 7 11 14 17 18 18 25 20 15 21 17 12 18 23 24 22 32 40 38 37 37 39 46 35 34 32 29 29 26 25 24 22 20 18 19 17 13 10 9
10 10 10 12 9 8 18 22 12 16 14 14 13 18 19 20 13 18 18 12 11 10 13 19 19 17 25 11 16 28 40 46 38 38 35 33 32 29 28 28 25 22 21 19 18 15 13 11 10
10 12 12 15 7 7 15 21 16 15 13 14 14 19 21 21 16 19 18 14 14 13 12 13 11 7 17 19 19 28 34 50 41 42 41 38 33 32 32 29 26 24 20 18 16 15 12 9 9
11 14 15 10 8 13 14 22 16 15 17 15 16 20 24 25 21 20 18 14 12 11 11 11 9 12 19 16 9 6 35 44 56 45 33 35 39 37 32 29 27 23 18 14 13 14 11 7 4
17 16 13 8 12 21 23 24 20 20 20 18 18 20 24 23 24 19 19 20 13 12 11 12 14 12 19 17 13 19 36 43 37 35 39 39 38 36 32 28 24 20 17 13 9 9 6 4 1
21 17 9 13 15 19 22 25 24 19 20 21 16 23 21 23 21 18 17 19 19 13 12 12 11 11 15 15 14 13 47 37 37 42 40 40 38 35 31 26 23 20 17 12 7 3 1 1 6
25 20 20 19 17 17 19 23 18 22 22 24 26 24 24 24 19 19 20 17 19 15 14 12 12 13 12 11 8 23 34 28 41 44 41 41 39 34 29 25 19 17 16 10 3 2 2 4 6
23 21 24 24 20 16 20 20 22 26 26 27 25 22 19 20 15 14 21 12 14 13 13 12 13 13 11 8 9 16 20 38 43 49 42 43 42 39 29 22 23 17 11 7 4 5 7 5 6
21 21 26 25 23 19 22 23 26 24 26 27 25 22 22 15 15 17 18 9 12 12 13 14 15 15 11 12 11 15 16 26 38 40 47 44 32 31 28 24 19 16 10 7 8 8 5 5 6
23 27 29 27 22 22 24 30 30 25 28 30 27 27 22 12 16 17 15 14 10 12 15 15 14 13 15 16 15 16 22 21 31 36 39 37 32 28 26 21 17 15 13 13 10 5 3 4 5
20 22 24 8 7 12 15 30 21 24 22 24 26 25 18 13 13 14 13 14 6 19 14 18 18 16 20 18 15 19 23 33 37 36 35 35 32 28 24 21 16 16 16 14 11 5 4 4 4
23 25 22 13 5 9 19 22 17 20 18 19 21 19 15 11 11 13 10 11 10 11 20 20 21 21 22 21 18 21 26 38 37 36 38 37 33 29 23 21 23 20 18 15 12 9 8 7 6
22 23 21 19 9 16 14 16 12 17 18 18 17 15 14 10 15 10 9 9 12 12 19 20 18 22 21 19 26 24 29 36 38 41 38 36 32 26 27 28 26 21 19 17 14 12 12 11 11
22 16 14 13 9 14 13 15 19 15 17 12 14 9 9 10 13 11 8 3 7 1 22 25 23 22 22 25 27 23 30 37 41 41 38 34 32 32 32 27 24 24 20 17 16 17 14 14 16
26 24 24 19 12 16 17 18 17 17 17 10 11 8 5 8 8 8 7 1 5 10 14 21 23 22 21 23 26 22 26 39 38 33 37 37 36 30 32 27 25 22 20 20 21 19 18 18 19
31 29 22 16 14 18 19 24 21 19 17 11 10 10 10 7 8 5 4 3 6 9 16 19 17 16 27 24 22 25 34 37 34 35 38 39 35 34 35 28 24 23 24 23 22 20 20 20 22
32 24 19 18 23 22 13 9 17 19 16 17 11 16 10 6 4 5 3 2 7 10 12 16 18 18 20 24 28 29 29 32 28 30 34 37 36 37 32 29 25 24 23 22 22 22 23 23 24
30 23 21 18 22 20 18 11 14 13 19 21 19 16 16 8 4 4 3 3 7 8 7 8 11 14 18 21 21 23 26 28 30 34 35 35 33 30 27 25 25 25 23 23 22 24 25 26 25
21 21 20 20 24 9 16 12 19 24 30 29 25 19 16 10 8 7 8 8 7 8 9 9 7 7 8 11 15 17 18 23 27 27 28 28 27 28 25 25 24 24 25 23 23 25 26 26 26
27 23 4 5 5 6 13 13 25 19 17 14 17 18 19 16 10 11 12 8 8 9 9 10 10 8 8 8 10 11 15 18 22 23 24 26 27 25 22 25 26 25 24 26 26 25 24 24 26
30 28 12 5 4 5 16 9 13 13 16 14 21 14 15 20 14 12 10 12 11 9 10 10 11 11 11 10 10 11 13 15 17 19 22 23 24 24 25 24 27 24 28 30 30 31 26 26 25
30 23 20 23 3 1 9 20 31 24 23 19 19 21 18 17 17 16 12 7 6 10 9 10 11 12 14 14 14 15 16 16 17 19 23 24 24 26 27 28 29 30 32 36 35 32 26 23 28
35 23 15 13 5 4 4 11 19 15 12 15 19 17 13 16 17 18 16 14 11 9 8 10 11 12 14 16 17 18 20 21 21 24 26 26 29 30 30 31 28 31 35 34 32 31 27 35 37
30 28 20 18 17 6 1 9 17 9 14 15 14 12 9 7 14 17 17 15 17 17 17 15 18 19 14 18 21 24 27 28 29 29 31 31 33 34 35 38 42 43 38 28 30 28 27 36 37
30 28 29 18 5 6 10 19 8 2 15 19 16 13 9 7 7 8 8 14 17 22 23 21 21 25 29 28 21 19 21 21 32 27 37 32 41 48 25 20 21 23 28 27 29 30 33 38 33

GFSSGP_700_spd_078.txt.gz
Wind_Speed
12 12 9 8 4 2 1 3 12 17 13 7 6 8 9 12 11 10 16 16 17 15 17 22 25 28 24 24 22 22 19 20 19 24 21 18 24 21 17 16 15 14 12 11 12 13 12 12 11
11 10 7 8 3 1 2 7 16 12 6 3 7 9 12 13 17 17 14 13 16 16 17 19 25 29 30 29 25 25 27 27 24 23 27 26 23 20 18 19 16 14 12 12 13 13 12 11 10
9 8 6 4 3 0 7 13 14 6 6 5 8 12 9 14 17 17 20 21 21 22 22 23 25 30 31 24 26 23 29 29 27 27 27 24 22 23 20 21 18 14 13 13 15 13 12 10 9
9 7 5 7 7 4 9 12 10 6 3 8 12 11 12 17 17 21 26 21 21 23 24 24 24 24 29 31 35 30 25 33 32 30 28 24 22 24 22 23 19 17 15 15 15 13 11 10 9
9 9 6 8 8 5 8 9 8 5 6 9 10 12 15 21 19 24 13 18 20 23 25 26 28 28 29 27 21 19 31 26 26 33 38 24 25 27 23 23 21 19 19 18 16 14 13 11 8
11 9 7 11 9 3 6 10 7 9 10 14 14 13 17 23 20 23 15 16 19 22 23 29 28 26 22 18 15 22 27 37 34 34 33 34 28 29 25 27 22 21 20 18 17 15 14 11 9
11 11 11 12 8 4 7 11 11 7 13 15 18 17 21 23 23 23 23 21 15 9 17 24 26 23 18 14 11 20 23 36 40 44 37 34 34 31 28 25 24 23 21 20 18 15 12 11 8
13 13 13 11 8 8 6 12 11 10 12 16 19 20 23 23 24 23 27 22 14 12 14 15 17 18 19 17 14 18 21 32 36 50 44 40 35 32 28 28 26 24 22 20 17 14 12 10 7
15 16 17 15 11 10 11 17 14 13 14 18 20 20 22 25 23 27 25 22 17 15 14 13 14 18 17 11 13 17 27 33 33 44 45 38 38 36 34 30 26 24 22 19 15 13 11 9 7
19 20 16 13 12 11 14 17 20 17 17 16 18 18 23 25 25 27 22 22 21 17 16 11 14 19 16 13 13 16 14 28 43 39 42 42 39 35 32 29 26 23 21 18 15 11 7 6 9
23 23 17 17 14 17 16 18 19 18 16 16 16 22 26 25 24 23 21 20 23 18 17 16 14 15 16 16 12 14 14 30 50 44 45 40 37 36 31 28 25 23 20 17 15 8 5 6 7
25 24 19 17 20 23 20 19 18 20 18 18 20 25 25 27 24 21 19 24 26 20 18 16 14 13 13 12 9 10 26 39 42 44 49 36 35 33 32 26 22 20 18 14 11 5 3 3 3
26 27 25 26 28 26 23 21 23 24 21 22 22 26 26 23 21 18 19 23 24 19 18 15 14 13 10 7 4 6 39 36 35 41 48 40 41 38 32 27 21 18 15 12 8 6 6 3 5
25 25 26 27 29 27 27 28 27 25 27 26 25 28 26 23 17 15 17 20 21 13 16 14 14 12 9 7 9 15 26 39 35 42 41 41 40 37 32 26 20 12 12 10 7 3 1 2 6
26 28 28 27 27 26 23 25 30 22 25 24 28 22 24 20 15 13 16 17 18 11 14 16 13 14 12 12 13 19 25 31 34 44 43 41 40 35 31 31 23 20 15 9 5 1 2 2 4
17 23 25 18 11 11 12 23 14 17 23 23 23 20 20 15 13 11 13 16 16 12 11 15 13 15 16 18 18 17 14 36 41 47 43 40 37 36 30 27 22 20 14 8 5 5 3 3 3
24 29 24 21 10 15 14 23 15 12 11 16 21 18 16 11 11 15 12 13 16 12 16 17 14 22 16 21 20 20 24 40 39 46 49 42 33 32 30 24 23 19 14 10 9 9 8 4 4
20 24 26 22 19 15 13 14 11 11 14 13 18 15 14 9 10 13 10 11 14 15 16 21 20 20 21 15 17 15 20 32 37 37 43 45 38 32 30 27 22 18 13 11 11 10 8 11 11
20 18 17 14 12 16 13 18 14 14 16 15 16 12 8 6 8 10 9 10 10 15 15 21 21 21 18 18 18 20 25 30 36 35 39 39 33 33 30 24 20 17 14 12 14 13 14 14 16
31 30 31 26 18 20 16 21 16 15 16 18 16 12 7 6 6 8 8 6 4 9 10 19 16 19 25 17 18 25 25 29 35 33 35 31 31 29 25 23 20 19 22 17 15 14 19 20 19
33 34 32 27 20 21 22 24 19 17 18 19 17 14 11 6 7 7 4 2 2 3 5 15 22 23 22 20 20 26 29 31 33 33 35 37 34 33 31 25 23 23 21 18 17 21 23 22 23
33 32 27 24 26 19 12 9 20 20 19 20 16 14 11 5 6 6 3 3 7 4 3 5 9 17 22 19 21 25 23 35 34 31 37 37 35 33 30 28 28 25 23 21 22 24 25 26 25
28 30 23 23 24 24 29 11 23 22 24 22 18 16 12 9 8 6 2 4 8 9 6 5 7 7 7 16 21 21 25 24 24 23 26 33 34 34 34 32 32 29 25 23 25 26 26 26 26
4 11 15 17 20 8 26 19 18 18 22 23 20 20 18 14 12 9 8 8 8 10 10 9 8 10 13 14 15 19 22 23 25 26 28 31 33 35 34 32 31 29 27 26 27 29 29 30 30
32 24 3 2 3 7 11 17 28 25 25 22 15 10 10 17 15 14 11 7 7 7 9 9 9 10 11 13 15 18 20 21 22 24 26 29 31 29 29 30 29 29 28 29 30 30 30 31 33
27 35 11 6 5 5 13 9 12 15 15 15 16 10 11 20 15 13 12 10 8 7 8 8 7 9 11 12 13 15 17 20 22 25 27 29 29 29 30 31 32 32 32 33 34 35 35 36 38
18 38 31 8 0 1 9 16 24 26 23 18 17 17 13 15 19 16 12 10 8 8 7 7 9 8 9 10 13 15 17 20 21 23 25 27 29 31 34 35 33 35 36 37 37 36 39 39 41
39 20 16 19 5 4 5 10 16 16 15 15 13 14 14 13 14 15 17 14 11 8 8 9 9 10 12 14 15 16 17 19 21 24 27 28 29 31 33 35 38 40 40 43 41 41 39 37 36
32 39 21 15 19 6 3 8 18 13 10 13 7 8 9 9 15 16 19 17 17 15 14 12 11 10 11 15 18 20 20 20 21 23 25 25 26 28 32 33 35 42 44 39 49 45 43 35 34
27 37 40 20 6 9 13 20 17 15 6 11 12 11 9 5 6 8 12 17 19 16 16 16 17 16 17 19 18 17 19 21 19 22 29 27 29 27 36 35 38 53 27 39 51 45 37 32 36

GFSSGP_700_spd_081.txt.gz
Wind_Speed
11 11 9 8 5 3 6 4 6 8 4 5 5 7 6 7 9 9 14 16 15 15 17 22 27 28 25 25 25 22 18 18 19 22 19 14 15 14 16 13 11 12 12 11 11 13 14 13 13
10 9 7 7 5 6 4 3 7 7 5 7 6 6 8 11 13 15 15 13 13 15 20 21 28 33 31 30 29 28 26 25 25 25 24 18 14 15 15 14 11 13 13 12 13 14 13 12 12
9 8 7 4 5 5 2 6 6 6 6 5 6 7 8 9 15 19 20 23 15 19 25 24 23 29 31 29 31 24 17 30 33 28 27 23 22 19 16 14 12 15 14 14 14 14 13 11 10
9 8 7 8 7 6 2 4 4 1 1 3 7 9 9 11 16 15 20 13 13 15 21 26 24 25 28 27 34 29 27 41 40 32 27 25 24 24 18 13 14 16 15 16 15 13 12 10 8
10 10 9 9 7 8 1 4 6 5 4 5 9 13 11 12 18 19 22 19 18 18 21 22 23 26 26 28 32 29 29 14 34 29 26 25 22 21 18 14 15 16 16 17 15 14 12 9 7
12 11 9 11 10 9 4 1 4 11 9 10 12 14 14 15 18 20 23 23 23 20 22 25 22 24 25 24 24 27 24 25 30 31 30 26 24 21 21 18 17 18 19 17 15 13 11 10 8
14 13 15 13 10 12 7 4 2 8 10 9 12 16 15 15 19 21 23 22 24 22 21 16 20 22 25 25 25 24 25 20 30 37 37 33 26 26 22 19 19 19 19 18 16 14 13 10 8
16 16 18 15 9 12 9 7 6 6 9 11 14 17 16 17 19 22 23 25 21 21 19 18 18 19 24 24 25 23 18 17 10 35 39 37 34 29 26 23 20 21 21 19 17 15 13 11 10
17 18 20 19 14 15 12 11 10 9 11 12 15 16 17 18 21 23 24 22 17 19 19 19 19 18 9 24 30 23 19 16 18 29 43 34 35 35 28 26 23 23 21 20 17 15 11 9 7
21 23 19 15 13 16 17 13 14 13 13 14 18 19 19 21 23 23 23 20 17 18 18 18 20 23 21 19 21 19 18 19 23 37 55 44 40 32 31 29 26 25 23 20 17 13 9 6 6
24 26 18 18 14 16 21 17 17 17 19 15 20 23 22 22 20 23 24 19 19 23 18 18 19 22 19 23 19 17 22 20 27 42 46 42 45 39 37 30 28 27 24 20 17 12 9 5 6
26 25 22 19 18 21 24 20 20 21 23 21 21 25 24 22 21 21 24 18 20 22 18 16 17 17 15 17 17 17 21 27 32 45 35 41 44 37 32 32 30 26 22 17 13 10 7 6 5
25 25 24 23 24 25 29 26 26 29 24 25 25 28 25 25 20 23 21 18 18 22 10 12 14 14 17 21 14 17 18 26 37 51 40 43 39 37 33 32 29 26 21 16 12 10 5 4 4
25 26 26 26 26 26 28 26 26 21 26 24 24 25 25 20 18 22 18 16 16 19 10 12 14 16 13 12 12 10 23 35 49 42 44 42 36 32 33 31 30 23 19 15 9 5 7 7 8
26 29 29 29 25 24 23 26 29 16 14 19 20 21 22 19 18 16 17 13 16 17 10 9 13 15 13 13 9 15 34 40 36 42 43 34 34 32 32 34 31 30 21 14 13 12 8 7 8
21 23 25 20 9 9 16 20 15 15 16 15 14 17 20 16 18 14 15 13 14 16 12 8 11 13 18 12 18 27 31 30 30 47 46 37 36 36 34 33 34 21 19 19 15 11 8 7 6
27 24 28 26 20 13 16 19 11 11 14 9 9 13 16 14 15 13 15 12 12 14 12 8 12 16 13 16 23 29 31 24 29 38 52 49 38 33 33 30 17 22 24 21 15 13 10 5 5
25 26 28 22 14 12 15 18 12 12 13 12 11 15 11 12 12 12 12 11 12 14 12 14 16 17 19 17 21 28 26 29 28 44 36 38 39 33 23 25 30 30 23 17 14 11 9 10 10
22 24 26 24 14 15 16 20 15 16 17 12 12 13 11 11 11 10 11 9 9 12 13 14 16 20 19 22 21 21 30 36 35 44 44 43 37 31 29 35 32 25 17 15 13 10 8 8 12
28 25 34 29 26 21 23 24 20 18 18 16 13 15 13 13 10 9 10 8 7 9 8 17 18 17 21 22 18 15 32 38 37 48 49 52 44 38 38 32 17 16 18 17 16 11 11 12 15
30 30 34 30 26 25 25 27 22 20 20 17 14 13 13 12 11 9 9 6 4 4 6 12 18 14 21 22 17 21 36 41 40 37 31 45 46 41 36 28 26 22 21 20 16 15 14 15 18
36 33 33 32 26 12 7 8 20 21 20 20 15 13 12 12 9 7 8 6 6 1 4 2 13 16 20 24 20 24 24 32 37 33 28 39 45 40 33 28 27 25 23 20 18 18 17 22 21
26 25 25 22 27 19 21 10 15 10 19 19 18 16 13 14 10 6 8 6 7 5 4 3 6 8 18 22 21 23 22 26 22 28 28 35 41 35 33 31 29 28 24 21 21 22 23 23 26
14 15 13 12 14 9 26 12 17 16 14 8 5 10 16 18 13 10 10 8 7 9 7 6 6 6 9 21 26 27 25 24 31 26 26 30 38 39 36 34 31 28 28 28 26 26 27 26 28
22 13 3 4 6 8 13 13 31 12 15 20 9 7 10 16 18 15 14 6 6 7 8 8 8 8 9 10 16 23 24 24 27 27 26 27 35 36 33 33 33 31 31 32 32 31 31 29 33
26 31 9 7 5 6 16 10 20 10 12 14 14 10 9 15 20 19 16 10 7 7 7 8 9 10 11 12 14 16 21 26 28 29 27 25 29 31 33 35 35 35 33 36 36 36 36 37 38
23 29 30 15 8 4 7 8 21 22 22 20 12 11 14 15 23 20 14 12 11 11 8 8 10 11 12 13 14 15 16 18 20 22 23 25 28 31 33 34 35 36 36 36 38 41 42 42 43
28 18 13 21 7 11 5 6 13 6 9 18 14 12 13 17 26 24 19 15 13 12 13 13 14 13 12 14 15 16 17 19 21 23 23 26 27 29 31 32 34 35 37 39 42 43 44 44 44
30 29 18 18 22 8 4 7 13 16 7 9 7 9 13 19 16 18 21 21 19 17 14 14 15 16 18 19 19 19 19 19 20 22 22 23 25 28 29 30 31 33 36 39 41 40 44 44 46
24 32 39 18 7 19 17 19 5 6 16 19 13 9 14 16 13 20 20 23 22 21 20 18 16 15 14 15 18 20 18 18 19 21 23 24 28 29 30 31 33 38 37 44 49 45 45 36 46

GFSSGP_700_spd_084.txt.gz
Wind_Speed
10 9 8 6 2 5 7 8 7 4 4 10 9 7 6 7 6 9 15 18 17 11 13 16 21 23 26 25 22 24 24 22 19 18 17 17 15 15 13 10 9 11 13 12 11 11 11 11 11
10 9 7 4 5 11 8 10 5 7 7 9 8 6 8 7 10 13 16 16 19 17 14 15 21 25 29 29 27 29 31 27 21 20 18 21 15 12 13 13 11 11 14 13 12 12 13 13 12
9 8 4 4 7 10 6 8 8 7 10 7 6 5 7 8 10 13 15 16 13 10 13 18 22 26 33 35 32 33 33 32 28 21 16 25 19 15 13 14 10 12 13 14 13 14 13 13 13
8 8 7 7 11 9 9 7 7 5 5 5 5 8 8 9 11 15 16 18 18 16 13 13 24 26 29 39 30 26 24 22 17 15 32 33 24 22 17 15 11 14 14 13 14 15 15 14 12
9 9 9 10 11 10 11 8 10 7 7 8 7 9 12 12 14 15 17 20 21 20 21 16 18 24 25 28 27 23 28 25 29 33 33 40 29 25 26 17 13 15 13 13 14 15 14 13 12
9 10 10 13 11 10 12 9 8 9 12 11 10 11 11 12 15 17 19 20 21 23 24 21 18 22 28 38 27 27 29 23 28 35 40 34 30 23 19 13 16 16 15 15 16 15 14 13 11
12 11 13 14 13 13 14 12 6 8 12 11 12 11 13 13 14 17 21 22 22 24 23 22 15 21 22 32 31 33 30 31 28 29 37 31 30 26 19 16 14 17 16 16 17 16 14 12 10
13 13 14 13 12 13 15 15 12 7 9 13 13 12 12 15 16 21 25 26 25 24 20 20 18 16 27 28 34 30 30 31 27 28 25 35 34 28 19 17 14 16 17 18 17 16 14 12 9
18 15 16 16 13 11 16 18 13 13 12 13 15 14 15 19 20 21 23 26 26 22 20 20 19 20 23 22 36 28 26 31 29 25 27 41 35 30 23 18 20 20 19 19 18 16 13 11 8
21 18 17 16 12 14 16 21 15 16 14 15 15 16 18 20 23 23 21 25 24 21 20 22 20 22 22 19 25 31 32 32 27 25 29 45 39 33 30 25 24 21 22 21 18 16 13 10 8
19 26 16 18 16 15 16 20 19 20 20 17 17 19 20 21 23 23 22 22 23 20 22 22 21 23 22 23 19 25 27 32 30 29 43 41 43 36 32 32 32 28 26 23 20 16 12 10 8
24 23 21 18 16 19 22 21 23 23 27 20 22 22 22 24 23 23 22 21 22 21 19 24 19 22 22 24 27 25 27 28 30 24 37 44 49 42 37 34 31 29 27 23 20 16 12 10 9
24 21 20 20 21 23 24 28 28 31 27 25 24 22 23 20 22 19 19 22 20 20 18 21 14 18 21 22 25 25 25 28 30 27 45 59 50 43 39 35 32 30 26 23 19 16 13 11 9
13 20 22 21 22 23 25 25 24 23 20 19 17 16 16 16 18 16 19 20 19 18 16 16 12 16 18 24 24 25 26 30 34 33 51 46 37 45 42 35 31 29 27 23 18 16 14 12 10
23 26 24 25 24 24 20 28 29 17 19 17 17 19 19 17 19 16 18 19 16 18 14 15 11 17 18 18 15 19 25 24 21 41 48 48 44 43 37 36 34 33 27 23 18 14 9 8 10
19 20 24 15 13 12 12 23 17 15 16 18 17 11 12 15 18 17 16 18 19 17 14 14 11 18 18 17 15 15 18 32 38 44 46 42 35 36 38 39 37 32 26 22 14 9 12 13 12
25 24 22 17 16 13 18 19 12 15 17 17 13 11 11 14 14 15 14 17 16 15 14 11 10 17 18 17 15 14 25 35 36 29 27 36 39 40 40 41 37 30 28 23 24 20 16 14 11
26 24 22 22 11 10 16 22 20 17 19 16 17 13 12 14 14 16 13 14 14 14 14 10 16 21 22 15 15 21 33 31 29 18 49 45 45 47 47 38 39 35 29 27 24 20 17 14 11
25 19 22 21 12 12 15 18 23 21 22 21 19 16 14 14 17 15 13 13 13 12 14 9 22 19 17 21 22 23 22 21 22 28 41 50 46 37 30 31 34 34 27 28 24 22 18 13 14
26 24 28 23 16 16 20 24 23 22 24 21 18 18 15 15 16 14 14 14 11 10 13 4 18 19 22 21 23 25 25 21 18 24 39 48 45 36 37 35 32 27 29 28 25 19 17 14 12
27 28 29 23 18 21 24 28 28 24 25 26 22 17 16 15 13 14 14 14 10 7 8 2 15 18 19 20 22 27 27 27 25 23 33 40 41 37 29 30 31 31 37 26 20 18 17 15 14
28 25 24 24 22 21 7 15 14 15 20 20 22 21 18 15 13 13 12 13 9 6 2 1 10 18 19 25 20 21 27 30 28 29 40 46 43 40 38 35 30 26 24 21 19 19 18 17 14
25 18 20 17 19 21 22 17 16 16 19 19 20 20 20 15 14 13 13 12 9 7 4 1 4 15 18 20 24 22 25 26 30 33 35 40 40 46 42 37 33 30 23 22 21 21 18 17 17
13 13 10 10 12 13 23 18 19 19 16 11 12 16 17 22 15 15 16 11 9 8 6 3 3 5 13 18 22 19 26 28 34 34 35 26 27 45 43 39 37 30 27 26 24 22 22 20 21
19 13 6 9 8 9 8 15 23 6 10 10 11 12 15 16 23 19 17 8 8 8 9 8 6 6 6 13 19 23 26 22 26 30 30 28 32 48 47 42 38 33 31 29 27 26 25 25 27
23 23 10 9 9 8 7 9 18 9 15 15 11 11 13 14 20 23 19 13 10 10 10 10 10 8 8 9 12 17 23 25 26 31 26 26 28 44 45 43 39 35 32 31 30 30 31 32 34
21 30 23 20 19 11 15 12 15 15 13 12 12 16 16 18 19 25 23 18 13 11 10 11 11 11 10 9 10 12 16 20 22 28 27 26 27 34 42 40 37 34 33 33 34 34 34 36 37
28 10 17 20 7 11 11 14 11 4 6 8 8 11 17 21 20 27 24 20 16 15 14 14 14 13 14 14 13 13 13 15 17 20 22 24 26 31 37 38 36 35 35 35 37 38 37 38 40
20 24 21 17 25 11 11 9 10 17 12 7 13 11 15 19 22 28 25 22 18 18 17 17 18 18 18 17 17 17 17 18 18 18 19 21 24 27 29 32 34 34 35 36 37 37 38 41 43
16 23 26 24 17 19 25 23 3 8 10 9 7 6 7 17 20 26 30 26 25 22 19 16 16 18 19 19 20 20 20 20 21 20 20 21 23 25 27 30 32 34 35 36 38 38 41 44 47

GFSSGP_700_spd_087.txt.gz
Wind_Speed
12 10 6 5 5 10 15 10 10 7 8 7 8 8 7 9 10 10 14 15 16 17 16 10 14 18 23 26 26 23 22 23 22 17 15 15 15 13 10 6 4 5 4 8 11 10 12 12 13
11 9 5 4 11 18 17 6 6 7 8 9 9 8 8 9 8 11 13 12 10 15 13 9 14 19 25 30 27 25 26 26 27 22 19 18 18 14 11 8 7 6 6 11 11 11 10 12 11
11 8 5 13 18 20 13 2 8 10 9 9 7 9 9 8 11 12 12 12 14 13 13 13 12 20 26 31 32 30 28 30 33 29 24 19 21 17 18 11 8 8 10 11 12 13 13 13 13
9 7 9 14 18 14 13 9 9 9 10 10 11 10 11 11 13 13 14 14 15 13 14 18 16 18 24 31 36 35 37 28 40 32 26 23 26 18 16 16 8 6 9 11 13 13 13 14 14
8 7 17 23 19 15 12 12 10 8 9 10 11 12 12 17 14 16 17 15 17 16 16 18 18 20 23 31 36 37 42 40 25 28 13 14 25 26 22 20 12 11 13 14 13 13 15 15 14
10 9 18 21 18 10 13 13 11 9 11 12 12 15 15 17 16 16 15 17 19 20 19 22 19 22 24 29 31 35 31 26 32 38 15 23 30 31 25 23 18 15 15 15 15 15 16 15 13
15 16 21 22 21 17 15 14 12 10 11 13 13 12 13 19 17 15 17 21 21 25 23 24 21 22 23 26 31 31 37 37 21 21 19 28 39 38 22 25 22 16 16 16 16 16 15 14 13
15 17 24 23 20 18 13 14 11 10 9 11 13 13 12 12 20 19 21 22 21 23 24 24 21 23 23 24 27 25 28 22 22 24 19 31 36 40 23 16 22 18 17 18 18 17 15 14 14
15 20 25 20 19 17 13 14 15 12 16 14 14 16 21 23 22 22 24 26 25 24 24 23 21 21 24 26 28 28 25 28 21 13 16 17 31 29 24 22 21 20 18 19 19 17 16 14 13
20 20 23 18 19 16 16 17 16 17 17 16 15 16 24 22 23 24 24 27 27 23 25 23 22 24 25 25 25 22 26 29 32 29 23 22 26 28 27 26 25 20 20 21 20 18 17 14 12
21 27 22 19 19 16 17 19 16 20 23 18 19 18 16 25 23 23 26 26 29 23 25 22 23 26 27 26 21 19 25 32 29 30 25 18 32 28 32 30 30 25 23 23 23 20 18 15 13
26 27 23 24 21 20 22 21 24 23 25 20 23 23 23 23 26 25 24 25 26 23 23 22 23 27 23 25 24 26 15 30 32 30 29 23 32 38 37 35 32 28 25 25 25 22 18 16 15
27 24 24 22 22 23 24 25 26 28 24 24 24 24 26 24 26 21 21 23 23 24 23 21 22 24 22 21 25 26 24 22 28 27 23 26 26 43 38 39 34 30 27 27 24 20 18 15 14
21 23 26 25 26 24 26 27 24 26 21 20 20 21 21 21 19 21 20 22 21 23 21 21 21 20 18 23 22 24 29 28 28 31 30 24 35 44 41 39 33 34 32 28 24 20 18 16 14
23 25 25 28 26 28 24 31 29 27 22 23 21 18 19 21 25 21 23 21 21 22 23 23 20 18 18 22 24 22 27 32 30 30 31 29 37 49 46 42 36 33 32 29 26 22 19 16 15
16 22 27 24 23 24 24 33 21 18 18 20 17 17 19 17 17 19 21 20 20 22 22 20 20 18 20 21 20 23 24 27 28 25 27 35 58 56 56 40 37 35 32 28 26 22 19 17 14
23 29 26 23 20 18 18 21 14 13 14 16 17 16 16 17 17 17 20 18 19 21 20 19 20 19 20 20 20 21 21 21 16 21 22 38 52 54 34 46 39 31 29 27 24 21 16 13 10
26 30 27 26 21 23 21 25 21 19 17 17 17 17 17 17 17 17 20 18 19 20 18 19 20 19 17 18 18 17 15 10 19 30 43 49 47 45 43 33 33 38 39 30 24 17 18 18 16
28 29 29 22 18 13 19 24 23 20 22 22 20 19 19 19 16 20 19 17 17 19 15 17 17 15 15 17 17 15 15 19 27 29 30 37 42 38 40 41 43 43 34 27 24 24 21 20 17
30 33 32 30 25 20 21 26 26 25 25 24 24 20 20 19 18 21 17 15 15 17 13 16 12 18 16 15 16 16 20 21 20 22 19 26 36 42 50 47 45 30 27 28 26 27 26 20 18
33 33 30 31 26 24 21 29 28 29 28 28 25 23 20 21 21 19 16 14 15 15 10 11 9 18 18 19 18 24 23 22 21 15 15 39 42 49 48 43 37 35 34 28 31 30 24 20 18
32 28 27 26 27 26 21 21 23 20 16 21 22 23 21 21 21 19 16 13 12 12 9 8 8 16 19 18 23 23 23 23 19 16 12 20 35 43 42 38 36 30 34 33 31 26 21 20 19
31 21 22 24 28 24 26 25 26 21 24 20 20 21 19 20 22 19 16 13 12 11 10 7 6 14 16 17 21 23 25 19 19 21 16 21 39 39 39 40 35 34 31 31 33 26 26 23 20
17 19 19 17 20 21 25 25 22 21 21 15 14 15 20 20 21 20 19 14 12 11 12 8 5 6 15 18 21 21 27 22 25 27 23 25 39 40 41 36 34 32 31 30 27 27 25 22 22
19 18 12 14 15 13 20 18 21 7 7 9 9 7 14 17 21 22 23 13 11 10 12 9 6 3 7 15 18 22 22 26 26 25 23 30 37 43 42 38 38 34 30 30 27 27 24 24 24
23 25 13 11 10 11 26 12 17 15 16 20 17 12 11 15 19 23 25 16 13 13 13 12 8 5 3 8 16 17 19 16 20 20 24 28 28 25 35 39 38 36 34 33 29 27 27 27 26
22 26 25 29 25 12 13 10 11 14 14 10 12 13 14 16 17 21 25 23 16 15 14 13 12 10 7 6 8 14 18 21 20 19 23 25 26 24 25 34 40 38 37 35 32 31 32 32 30
35 21 20 24 16 17 17 21 24 7 10 12 9 8 12 17 18 21 23 25 20 17 16 15 14 14 12 11 10 10 11 14 18 23 28 23 21 23 29 34 40 37 37 38 37 36 36 34 34
21 33 24 19 24 11 9 9 3 8 10 7 5 8 8 12 19 23 23 27 23 22 20 18 16 15 14 14 13 13 13 13 15 17 21 24 25 25 26 29 35 38 40 41 41 38 37 36 35
18 20 26 25 21 21 25 24 6 3 8 12 2 4 5 12 15 22 24 28 26 24 23 22 19 18 16 16 15 14 14 15 16 16 17 20 22 25 26 29 33 39 41 43 41 38 36 37 38

GFSSGP_700_spd_090.txt.gz
Wind_Speed
11 8 5 5 6 10 20 23 10 1 6 5 10 11 10 8 10 9 8 14 15 17 12 12 13 15 15 20 26 27 21 20 21 19 15 15 14 14 10 7 5 5 8 9 10 10 9 9 10
10 8 4 2 12 17 21 4 1 3 5 7 7 8 4 6 6 9 18 22 21 15 14 9 9 15 17 21 26 30 24 23 22 23 20 18 18 16 15 9 7 4 8 9 11 10 9 11 12
10 5 4 8 16 20 23 9 4 5 11 9 7 9 8 6 13 14 13 15 16 14 12 11 12 13 19 21 25 30 28 25 26 27 25 22 22 21 16 13 9 7 10 12 10 8 11 12 12
8 4 9 14 18 20 23 12 5 9 10 10 9 11 11 15 12 18 14 16 15 12 11 12 13 15 15 20 24 29 34 31 30 14 34 28 26 27 18 15 11 8 10 12 10 10 12 13 15
10 8 16 20 21 22 20 11 12 9 9 10 8 11 13 14 17 18 17 19 17 16 16 16 16 18 19 20 24 29 33 32 46 43 18 22 33 28 26 17 15 10 10 12 13 13 12 14 15
11 8 16 21 21 22 9 13 11 12 10 11 12 12 13 18 20 22 20 16 16 19 21 21 20 22 23 22 23 26 32 35 35 34 43 9 35 23 22 23 15 15 11 13 13 14 13 15 16
16 15 23 22 22 22 19 12 13 13 11 11 16 13 12 19 23 18 17 14 16 19 21 23 22 24 24 24 23 26 31 33 26 29 40 24 21 17 27 20 20 16 16 15 16 16 17 16 14
17 16 23 23 22 22 17 11 10 12 12 7 9 10 10 17 12 20 22 21 20 21 23 26 24 24 23 23 22 26 26 29 29 32 24 21 20 25 26 29 27 21 21 19 18 19 18 16 15
16 23 27 24 20 18 8 6 14 16 14 15 12 14 18 26 28 30 28 25 24 20 23 24 24 24 23 26 25 25 24 30 22 17 23 19 24 30 35 31 21 20 21 20 20 19 19 18 17
24 28 27 22 20 22 16 15 16 17 17 14 15 19 20 24 23 22 27 27 24 20 22 23 23 21 24 28 28 24 24 23 21 16 25 8 6 24 36 34 26 26 25 23 22 22 21 20 18
25 34 27 24 23 21 19 20 16 19 21 19 20 16 16 19 24 27 25 26 29 24 20 24 21 21 22 28 31 23 22 20 19 25 23 13 15 25 31 29 33 29 24 24 25 23 21 19 18
30 30 31 27 24 24 24 21 22 23 23 22 21 23 24 26 26 28 28 26 26 26 20 23 22 21 23 29 25 23 22 19 22 23 21 18 13 30 31 31 31 29 26 25 24 23 22 20 19
28 30 30 30 28 25 24 26 27 26 24 24 26 25 24 25 31 22 30 26 25 29 20 22 23 22 24 26 19 24 24 23 15 25 18 22 22 33 30 33 32 28 28 26 27 25 23 22 20
26 26 30 32 30 28 28 29 26 29 23 25 25 25 23 22 25 25 27 24 26 32 23 21 24 24 23 22 19 21 24 24 20 19 23 18 18 33 35 34 35 33 29 30 27 25 23 21 19
25 31 30 30 28 27 26 31 34 28 25 27 26 25 23 21 21 25 26 27 28 27 25 20 23 24 22 21 18 24 22 24 23 23 24 23 27 24 37 36 37 35 33 33 29 25 23 22 20
21 23 30 30 27 29 28 37 30 24 24 25 24 24 22 19 23 24 21 23 24 26 21 21 22 22 24 20 19 23 25 23 24 28 27 29 29 26 49 43 45 40 35 32 28 25 23 22 19
26 33 31 29 25 25 26 29 24 20 17 18 16 20 18 20 26 21 20 24 22 24 20 21 21 21 23 24 22 25 23 25 23 25 31 32 29 33 48 42 45 42 36 32 28 25 19 21 20
29 32 33 34 26 25 28 31 23 20 21 21 20 20 18 21 21 21 20 22 20 23 19 21 21 21 25 25 22 22 20 19 17 22 25 17 22 35 54 48 46 47 40 34 30 26 30 21 18
31 32 35 32 29 29 30 21 24 22 22 23 24 24 21 21 20 23 25 21 20 21 18 20 19 23 21 19 13 15 17 16 12 10 18 19 41 55 56 46 45 46 36 37 30 31 28 24 24
31 32 39 35 35 33 27 25 25 28 27 25 25 25 25 19 21 25 30 19 18 20 16 17 18 20 15 8 10 12 12 9 4 11 31 31 46 54 51 56 37 46 48 47 38 31 26 27 20
33 35 30 33 34 35 32 36 26 29 30 29 31 28 25 23 25 29 29 18 16 18 14 15 16 17 12 11 12 13 9 10 15 19 32 37 35 44 47 41 33 46 45 31 33 30 21 20 23
35 29 32 30 30 33 27 22 30 28 25 30 35 26 28 24 21 28 29 18 14 17 12 13 13 15 12 13 17 9 9 9 10 17 14 17 24 34 42 40 40 33 38 32 30 21 26 26 29
32 24 24 24 28 35 37 27 25 24 25 23 19 22 23 26 23 28 28 21 14 15 12 11 11 13 12 14 16 14 15 15 12 12 8 4 15 25 32 31 32 37 27 30 27 27 32 32 26
19 19 21 22 27 24 34 33 27 30 29 25 17 20 22 22 21 25 26 25 16 15 11 10 9 10 11 13 14 13 17 14 14 13 11 9 14 23 32 37 37 36 30 30 29 30 35 22 20
23 18 13 7 8 12 24 24 28 23 22 19 20 16 15 22 21 24 27 31 19 14 9 10 10 8 8 10 14 14 18 16 15 16 13 13 16 27 36 43 41 37 34 28 31 28 30 26 25
28 28 15 12 7 5 17 15 27 21 21 10 6 13 9 17 20 23 27 31 20 15 11 10 10 9 7 5 9 13 19 14 18 18 16 14 15 26 34 40 39 37 32 32 31 30 28 27 26
22 33 26 28 34 6 13 18 10 8 13 12 15 20 15 15 17 19 25 30 23 17 13 10 11 11 8 5 7 10 12 15 13 17 17 18 18 21 29 34 37 37 36 32 26 31 31 28 27
27 21 25 26 16 16 15 16 16 19 20 14 12 12 13 13 17 21 25 30 22 20 16 13 13 12 10 7 6 7 8 12 15 19 19 21 22 24 22 27 35 37 34 35 32 34 32 30 30
25 35 26 20 23 10 8 2 5 2 5 13 13 7 9 11 13 22 23 28 22 23 19 16 15 14 11 10 8 7 8 9 11 12 16 19 21 23 25 27 26 33 36 36 36 37 35 36 34
20 22 30 19 17 17 22 14 10 9 11 6 8 3 4 6 16 15 23 26 25 23 23 19 17 16 14 13 13 12 11 11 11 12 13 19 21 21 25 26 30 32 33 38 35 38 38 39 35

GFSSGP_700_spd_093.txt.gz
Wind_Speed
6 6 6 5 5 8 15 11 15 8 5 7 10 10 8 10 6 8 7 9 14 18 17 20 20 14 16 16 19 21 23 20 16 15 16 13 15 14 12 10 8 9 12 12 13 13 12 11 11
7 8 6 6 6 10 12 13 10 3 3 7 12 11 8 7 10 8 12 14 21 23 22 18 13 12 15 17 17 22 26 24 18 18 19 16 18 18 17 14 11 10 13 13 12 11 11 12 12
8 9 11 3 9 20 14 6 4 6 6 10 14 8 5 9 17 18 16 18 19 22 18 15 13 12 12 17 19 20 24 27 26 25 29 26 23 22 20 19 15 13 13 15 14 12 12 13 14
10 10 8 15 14 14 19 18 13 12 7 11 13 7 10 17 19 18 15 14 18 20 15 13 13 13 13 13 18 22 24 26 31 31 31 32 26 26 30 22 18 16 14 16 16 14 13 14 13
13 13 12 14 15 12 10 19 19 16 15 9 9 12 16 17 16 13 13 17 23 18 16 16 16 16 17 17 17 21 23 26 31 35 34 35 30 21 33 32 22 16 14 16 17 16 16 13 12
17 10 12 19 18 18 25 22 27 24 18 12 13 17 18 18 17 19 18 18 21 14 15 17 17 17 18 21 21 21 23 26 30 36 32 33 34 21 35 24 28 19 14 17 17 19 17 14 16
19 14 18 19 21 24 21 19 22 18 15 13 13 17 18 15 15 17 18 17 15 17 20 19 20 20 20 22 21 20 21 25 29 30 31 32 33 39 30 30 25 24 23 17 17 17 17 17 16
17 15 19 26 24 22 5 19 9 14 13 7 7 11 19 17 19 21 20 24 24 22 24 23 21 22 21 21 18 18 20 23 25 28 30 29 38 26 33 28 26 22 22 19 18 19 19 19 20
12 22 25 28 20 17 14 22 14 14 15 18 15 18 23 23 24 24 25 24 22 25 23 23 23 22 23 19 16 19 22 23 25 26 30 28 23 24 23 25 26 26 24 25 22 17 21 19 19
25 29 32 23 19 21 22 17 11 15 18 17 16 13 23 25 26 25 25 23 27 20 20 20 22 22 23 17 17 18 24 24 22 24 22 20 13 16 25 32 34 35 27 26 27 27 24 23 22
22 33 27 26 22 26 27 22 16 20 15 19 20 17 28 24 25 25 28 32 23 22 17 18 21 22 20 20 19 22 26 22 20 19 14 21 14 12 31 34 31 33 29 27 29 28 27 26 24
27 27 27 24 23 23 28 29 27 21 25 21 17 21 21 26 26 30 33 35 28 23 22 18 21 23 21 21 20 25 19 19 17 16 20 16 13 14 30 43 34 32 32 30 28 27 27 25 23
27 28 28 28 27 31 33 33 27 29 30 28 29 26 25 28 26 29 29 34 34 27 25 23 21 25 22 21 21 21 14 19 15 13 22 17 20 14 30 35 34 32 30 29 29 28 28 26 23
25 29 31 30 32 34 35 35 32 32 29 27 26 31 31 31 36 32 31 34 34 29 28 23 21 23 24 22 19 16 17 18 20 16 18 21 12 13 33 30 35 32 29 30 30 29 28 26 24
25 34 36 37 36 32 25 34 34 34 30 32 29 23 25 28 24 25 28 34 32 24 23 19 19 22 23 19 18 16 15 22 21 18 12 20 12 13 38 23 35 33 32 34 32 31 30 28 26
27 26 34 36 36 36 24 47 34 24 24 27 24 25 27 26 25 25 31 30 28 22 21 19 19 22 21 18 19 18 16 21 23 26 23 20 21 21 25 28 27 36 38 36 35 32 30 27 27
32 33 31 27 19 21 24 41 30 29 29 29 27 25 23 25 24 30 32 31 28 22 19 17 20 21 20 18 19 21 20 24 25 24 23 23 29 22 26 25 36 44 42 35 35 34 30 28 27
30 37 37 33 25 22 27 37 32 30 36 32 23 22 21 22 22 28 31 32 27 20 18 17 20 20 17 22 22 19 21 23 25 24 25 25 30 24 28 28 44 44 40 39 38 32 29 27 25
33 28 32 31 26 23 30 36 35 25 33 30 25 27 28 23 26 32 32 33 23 18 17 18 20 19 18 20 16 16 17 19 21 23 25 28 31 35 35 40 52 47 45 42 37 32 31 31 28
27 30 35 33 29 32 35 43 37 25 25 31 30 23 25 26 27 33 34 32 23 18 17 18 19 17 18 14 7 5 8 14 17 18 20 21 24 24 32 55 50 43 51 42 38 40 37 40 34
31 35 32 32 29 23 30 47 43 27 28 28 33 33 30 27 32 35 35 33 23 19 18 18 18 15 16 11 6 9 11 13 18 19 21 18 24 28 36 58 53 51 50 45 42 43 41 32 35
31 25 31 34 27 20 21 20 42 30 25 31 30 32 28 32 30 35 37 33 22 19 19 18 17 14 13 11 6 11 9 11 12 6 6 26 37 48 61 59 52 41 50 47 51 48 34 31 25
26 19 24 26 21 28 25 16 33 37 30 32 32 26 29 33 37 31 34 30 23 21 19 18 16 12 11 11 9 11 13 14 9 9 13 25 37 47 49 51 42 38 43 54 50 33 31 29 27
23 23 14 17 20 11 23 20 16 30 31 30 27 21 21 28 36 33 28 26 25 22 20 18 14 11 8 10 8 10 13 12 12 14 19 14 31 33 40 45 43 40 29 38 38 34 30 30 27
20 19 4 5 7 6 18 18 32 29 26 29 26 22 21 28 32 36 34 33 29 24 18 16 14 10 7 7 7 6 9 13 11 12 17 18 16 22 30 39 41 37 35 40 34 30 26 31 34
25 19 12 6 4 3 13 9 12 18 34 31 19 15 23 24 30 32 29 27 26 20 17 15 12 8 6 4 5 6 13 16 15 16 15 14 11 12 25 29 31 38 38 36 33 28 28 26 32
24 26 31 24 22 5 8 22 34 11 14 19 22 15 20 13 25 28 25 23 25 19 17 14 11 8 6 2 4 5 8 15 16 18 14 16 14 11 19 30 35 40 37 30 28 34 28 28 27
33 20 21 21 4 10 12 20 19 18 15 10 20 11 19 17 19 21 22 24 17 14 17 16 12 9 8 5 2 4 6 10 14 15 19 17 19 16 19 25 34 36 37 34 34 29 25 28 29
23 29 16 14 13 3 2 6 7 20 9 2 5 14 17 18 16 22 27 25 19 14 16 17 15 11 7 7 5 3 4 7 12 13 16 17 25 22 21 23 29 33 35 36 31 29 28 29 34
17 24 35 21 11 20 23 28 13 7 15 4 13 11 10 19 21 18 22 29 21 16 16 20 18 13 11 10 9 7 6 5 6 8 11 16 19 28 27 25 26 29 35 37 37 35 32 33 36

GFSSGP_700_spd_096.txt.gz
Wind_Speed
9 8 7 7 6 9 12 6 9 8 11 11 11 8 10 9 10 11 11 9 9 12 17 17 16 14 11 14 15 17 20 21 18 17 16 17 16 15 13 13 12 13 13 14 15 17 18 17 16
8 8 9 10 8 12 7 9 3 5 13 11 10 10 13 15 15 18 15 14 14 20 22 17 15 13 10 13 16 19 21 24 24 23 21 21 21 20 17 15 13 12 14 16 17 17 17 16 16
10 11 10 8 14 21 7 10 4 6 7 9 13 17 15 11 9 13 16 16 18 17 20 17 14 14 12 11 14 20 24 26 29 28 26 25 25 24 23 19 16 15 15 18 19 18 17 17 16
13 13 13 16 18 16 14 9 8 9 12 15 18 15 13 10 11 14 15 20 20 18 21 18 14 13 13 12 12 16 21 27 29 30 30 27 27 28 29 28 26 19 18 21 21 19 17 17 18
14 15 17 18 19 14 10 11 14 19 27 18 13 15 11 10 12 16 17 17 18 16 18 17 13 14 14 15 16 17 21 23 27 32 30 29 29 33 27 30 35 24 21 21 21 20 20 19 19
18 18 16 21 20 16 14 8 22 17 27 20 15 14 13 16 16 17 19 19 18 17 19 12 13 15 16 17 19 19 22 24 23 27 29 29 30 31 35 37 40 26 23 23 22 22 21 20 18
21 22 24 22 22 19 15 10 18 15 20 17 14 11 15 16 15 14 17 20 19 18 16 18 19 20 21 21 20 21 22 22 23 27 27 31 34 34 33 28 31 28 25 24 23 21 22 22 21
22 24 27 28 24 22 13 5 13 14 18 19 18 19 19 16 16 16 19 21 22 20 22 24 20 20 22 23 21 20 20 21 22 24 28 29 32 34 33 32 35 33 29 26 24 23 22 22 23
23 26 31 33 25 18 8 8 5 12 17 18 17 16 16 16 18 21 22 22 23 24 26 24 18 20 21 21 22 20 19 22 24 25 27 25 27 32 30 34 46 35 32 26 26 24 23 25 20
29 37 36 30 24 21 21 16 13 15 15 20 18 16 18 20 20 23 23 23 25 26 28 19 19 20 20 20 20 20 20 21 24 26 24 23 25 26 22 26 44 37 36 31 27 27 24 23 22
33 41 32 28 24 22 23 22 16 20 23 18 18 20 21 23 23 21 24 24 24 27 26 19 19 20 20 21 20 21 20 23 26 24 21 21 20 19 25 29 33 36 36 36 32 28 27 28 22
37 34 32 28 23 19 25 23 24 23 26 22 18 22 22 23 19 20 20 21 25 32 23 18 19 22 23 22 20 21 21 23 20 20 18 22 19 26 12 25 40 37 33 35 34 31 33 27 25
37 35 31 27 24 23 23 29 30 30 31 28 26 28 30 28 24 24 25 26 32 35 23 22 23 23 24 21 21 22 22 19 18 19 17 22 24 27 14 24 49 37 37 37 36 33 30 30 23
32 30 30 25 25 27 33 35 34 35 30 31 31 35 34 35 34 30 32 34 39 37 26 25 19 23 24 22 22 21 20 15 16 16 13 17 23 21 23 30 44 33 39 38 35 33 33 31 26
25 29 30 31 31 34 33 42 40 34 33 36 32 35 32 30 31 33 32 30 29 28 28 23 20 22 23 22 22 20 18 15 16 19 20 15 19 16 14 28 43 34 37 36 35 35 35 33 27
22 28 33 33 32 33 33 50 40 34 32 32 29 27 27 23 26 30 31 28 27 29 27 24 21 23 23 23 22 19 18 16 18 21 19 13 20 12 16 30 30 37 35 36 36 37 36 34 29
32 36 34 32 27 28 34 45 39 34 28 32 31 28 28 27 28 34 32 29 28 30 27 23 22 23 23 24 21 20 20 20 21 22 26 21 18 17 16 31 27 38 41 37 37 38 34 34 30
32 34 38 36 28 24 28 39 32 31 33 35 34 31 24 24 22 28 33 29 28 30 26 22 21 23 23 22 21 23 23 23 24 28 27 27 26 24 19 32 32 34 38 40 38 36 34 32 29
36 33 33 31 26 24 30 38 34 35 36 37 29 30 30 29 28 27 29 28 26 27 21 20 21 23 22 21 21 21 19 18 24 28 26 30 32 24 32 32 32 32 36 41 41 38 35 33 33
33 35 41 38 33 30 35 46 43 42 37 38 28 27 28 26 28 32 32 29 27 29 24 19 20 22 21 20 18 14 9 15 26 29 30 28 32 28 36 34 44 33 39 46 41 39 40 39 35
31 33 34 36 26 26 29 44 43 44 45 44 35 27 24 33 28 36 36 33 29 28 22 18 20 22 19 19 15 10 9 9 15 22 26 31 32 34 35 41 37 45 47 51 44 41 43 39 40
29 19 22 28 30 24 23 29 36 41 43 40 40 35 28 28 38 35 38 39 33 29 23 19 20 22 19 17 14 11 13 13 16 19 23 25 32 39 40 44 39 48 50 53 46 45 42 42 45
34 22 31 27 32 27 15 12 42 33 45 40 45 38 34 31 32 38 39 35 36 30 24 20 20 22 17 16 15 12 16 14 21 19 21 30 32 31 29 32 44 58 54 52 48 42 44 41 38
22 19 17 14 21 11 17 5 48 24 35 31 33 40 37 30 31 31 38 39 31 31 25 21 20 21 16 15 15 10 12 15 18 19 15 19 23 20 28 34 46 61 55 51 53 45 47 47 39
21 14 5 5 4 6 12 13 36 34 22 31 32 41 36 34 33 36 34 37 28 28 25 20 19 18 15 13 13 7 10 17 14 7 4 4 11 25 42 51 58 54 50 42 47 46 45 37 35
33 23 15 5 5 8 19 11 10 22 34 20 11 29 36 30 35 29 33 34 31 24 22 18 18 15 13 11 11 6 9 15 11 11 10 9 11 26 38 35 38 42 34 46 25 44 45 35 33
38 28 26 22 12 6 11 18 25 16 22 15 7 13 32 31 29 31 35 32 25 20 20 16 17 13 11 9 8 5 10 14 14 14 15 17 16 18 21 27 39 35 37 34 25 29 37 35 29
37 34 14 19 6 13 9 19 19 24 14 9 3 5 15 12 22 25 29 27 20 17 15 14 17 13 11 9 6 4 8 12 14 22 20 18 21 19 20 25 28 38 36 32 39 37 35 31 31
30 22 15 11 16 6 2 4 4 11 16 13 10 4 1 15 25 21 22 21 17 13 10 14 18 14 11 7 6 3 4 9 14 17 20 19 23 21 16 19 28 28 34 38 38 35 35 35 34
13 29 31 20 9 17 17 12 14 18 19 31 15 4 16 11 4 13 23 21 20 19 11 12 20 16 14 11 8 6 4 5 8 13 14 18 20 24 22 20 22 33 37 40 40 35 33 32 34

GFSSGP_700_spd_099.txt.gz
Wind_Speed
11 11 10 10 8 9 10 4 4 8 10 9 8 10 11 13 17 18 15 10 9 10 13 18 18 12 9 8 13 15 16 18 19 19 19 18 17 16 14 13 13 13 14 15 16 16 17 18 19
13 13 11 11 11 13 9 3 1 5 12 9 9 11 13 15 18 20 15 13 16 11 14 18 21 12 10 9 11 17 19 21 21 22 21 21 18 20 18 16 16 15 14 14 18 17 19 20 20
16 14 12 9 18 24 3 9 6 4 6 7 11 15 16 17 19 12 9 11 15 14 18 20 20 14 10 10 11 14 21 23 24 25 24 22 24 23 24 22 19 18 16 15 18 19 19 20 19
16 16 15 19 23 15 15 8 4 6 10 13 14 18 21 16 17 14 13 13 13 17 18 16 17 14 10 11 12 14 16 22 26 27 26 26 26 28 27 25 25 22 19 17 18 20 21 19 18
17 19 21 23 24 20 17 13 10 8 14 19 17 22 18 14 14 14 14 14 15 18 18 16 20 14 10 10 13 16 16 17 21 26 28 29 29 26 25 27 31 25 27 18 19 21 21 21 20
20 22 17 28 23 16 16 10 10 16 18 19 21 20 17 15 15 11 12 14 15 18 17 19 15 11 12 15 18 19 20 21 21 23 24 26 29 28 29 30 34 24 31 38 23 25 23 22 20
24 26 27 27 25 19 17 7 7 2 6 10 21 16 16 19 16 14 13 14 16 16 17 19 18 17 17 18 21 23 23 23 24 24 24 24 27 29 26 28 31 32 37 41 29 28 25 23 20
26 28 29 30 28 25 17 10 6 4 10 15 15 16 18 16 15 15 16 16 17 18 20 22 24 21 17 18 22 24 23 25 23 24 24 24 26 27 31 34 33 32 31 35 30 29 27 24 22
27 32 36 33 29 27 15 13 9 4 10 14 18 18 17 15 16 16 16 16 17 18 20 21 23 15 17 19 21 22 24 25 25 23 24 26 26 28 31 32 29 32 27 33 30 29 28 26 23
32 39 40 32 27 25 28 22 18 14 10 14 17 19 19 20 20 20 21 20 20 21 21 19 20 17 19 21 21 22 23 24 25 24 26 27 29 28 27 29 29 35 39 42 32 31 30 28 24
36 45 36 30 26 25 29 27 25 22 20 15 13 15 22 23 22 22 24 22 23 23 22 18 19 18 20 23 23 23 23 24 26 26 28 30 29 26 26 28 32 35 45 41 39 34 31 27 24
40 42 34 28 29 29 29 30 31 25 23 20 17 20 23 22 22 21 21 19 21 24 22 23 22 19 21 23 25 25 23 24 25 27 31 25 24 22 23 23 27 46 43 38 37 35 30 29 25
41 40 36 32 31 31 29 34 32 32 28 25 20 22 27 27 27 27 25 21 22 27 28 31 28 22 21 22 25 24 23 25 26 26 24 22 21 23 21 20 28 39 42 41 36 34 32 30 27
38 35 37 35 33 33 34 37 33 36 31 31 25 26 29 31 31 28 27 27 32 29 27 26 19 20 21 24 26 24 24 24 23 23 21 21 21 22 26 20 21 33 38 43 37 38 34 31 27
31 37 35 35 31 36 31 44 43 36 36 35 32 30 32 34 32 36 31 29 30 30 27 22 17 21 24 26 27 25 24 23 23 21 20 22 18 21 30 23 26 47 43 37 39 38 37 31 29
28 32 34 35 33 35 30 56 39 34 34 35 35 35 34 34 32 31 33 31 29 32 29 21 22 23 24 27 26 25 25 23 23 20 22 21 21 19 22 28 32 52 42 38 39 41 37 32 29
28 29 27 29 29 28 31 44 39 38 35 36 35 34 35 34 32 28 27 29 30 32 30 26 26 24 23 26 27 27 25 23 23 23 22 23 19 17 15 18 34 44 41 40 40 39 36 33 30
30 26 34 35 31 29 33 42 35 32 33 34 35 35 34 33 28 26 22 26 31 30 30 27 26 23 23 26 27 27 25 27 27 26 23 23 25 18 16 16 33 41 37 39 40 39 37 32 29
37 29 27 27 23 31 37 43 41 38 39 41 39 37 35 30 29 27 25 25 21 28 30 20 24 21 23 25 27 25 26 29 27 27 28 28 30 25 21 14 33 28 32 40 41 40 38 36 35
38 36 35 33 30 31 37 48 42 39 38 37 42 41 39 32 28 29 27 26 23 23 24 24 24 22 22 24 26 25 27 25 23 22 29 32 29 29 23 23 23 33 39 42 41 42 40 38 37
37 35 31 29 24 26 31 49 41 37 37 40 43 42 37 35 28 29 25 26 27 25 26 23 25 23 22 23 25 24 25 22 18 19 26 32 30 26 23 27 28 27 34 35 41 41 39 40 40
35 29 25 22 21 19 14 21 37 32 34 33 33 34 37 44 36 27 29 28 29 27 30 28 27 24 23 22 24 23 24 21 17 12 23 33 33 31 30 29 33 40 43 38 47 41 41 40 40
24 12 18 19 24 27 31 15 17 9 33 37 29 31 30 40 42 34 31 27 28 29 28 32 28 25 23 22 23 23 23 22 20 19 20 25 31 32 31 31 40 38 45 47 44 47 44 42 40
17 17 17 19 18 9 23 19 38 23 18 27 29 26 31 30 44 39 26 29 26 35 29 32 30 26 22 21 22 21 23 22 22 19 19 21 29 34 36 37 43 46 52 52 49 49 50 47 39
15 11 3 3 4 7 11 17 34 21 33 21 30 34 29 24 42 40 36 33 24 28 32 27 29 24 20 21 20 20 21 20 19 17 17 20 24 31 33 39 39 41 52 49 52 51 55 46 43
27 24 13 6 4 9 17 12 22 25 26 28 32 35 26 17 30 35 40 29 29 27 29 26 26 19 19 18 17 17 17 15 17 18 16 15 16 31 34 34 30 35 47 59 55 48 46 44 42
37 33 24 29 22 6 9 18 27 19 27 29 30 26 18 15 23 31 35 30 24 22 25 21 24 18 18 15 14 12 14 13 15 16 13 14 9 14 23 27 22 25 43 59 51 38 32 44 45
26 29 19 17 7 13 4 6 15 22 31 32 28 16 7 9 19 28 33 29 25 24 20 18 21 18 17 15 12 9 10 11 14 14 11 11 10 7 11 13 20 23 50 43 40 31 23 39 38
19 31 28 23 27 8 9 7 9 13 23 24 32 12 13 18 10 9 25 28 28 24 17 18 20 18 15 12 9 6 7 9 11 12 15 14 14 16 19 24 25 25 30 32 30 28 30 26 34
11 23 26 17 8 7 9 15 14 21 28 28 33 23 10 13 11 12 26 28 28 23 19 15 17 18 16 13 10 7 6 7 7 9 11 16 15 21 20 18 23 27 31 33 39 34 35 34 36

GFSSGP_700_spd_102.txt.gz
Wind_Speed
16 13 11 13 9 9 9 3 7 5 4 6 9 11 8 8 9 12 18 10 6 7 9 10 15 18 13 7 8 11 12 13 14 15 17 15 15 13 13 15 15 13 13 12 13 15 14 14 15
16 14 13 15 13 14 9 3 8 13 13 9 10 10 9 9 12 18 14 9 11 10 10 15 19 19 16 7 7 9 13 15 15 15 19 19 17 16 18 17 16 15 14 14 13 14 16 16 15
16 15 16 13 19 26 6 10 9 7 11 10 10 9 9 10 15 14 13 11 10 12 12 15 17 18 17 8 7 7 11 16 17 18 20 19 19 20 20 17 19 17 16 15 15 13 14 17 19
17 18 20 21 23 12 13 12 6 8 11 11 9 9 12 16 15 12 13 13 12 11 12 14 16 19 12 6 7 8 8 12 19 22 23 25 21 22 22 23 27 21 20 17 16 14 14 17 19
19 21 25 23 27 26 18 16 16 10 10 13 16 17 17 14 14 11 12 11 12 11 14 14 14 16 9 8 7 8 9 11 13 17 23 26 25 24 30 32 16 20 22 21 17 15 15 17 21
22 24 21 29 27 24 19 14 13 11 15 17 23 23 19 17 11 12 11 8 11 11 13 13 15 16 12 12 11 13 15 16 17 17 20 24 25 26 27 27 23 21 25 24 26 14 18 19 21
25 27 30 28 27 24 19 14 10 14 11 9 11 17 15 13 11 12 11 9 9 10 13 14 15 17 18 14 15 16 17 19 20 21 22 23 24 26 27 28 27 27 29 30 25 25 21 30 24
27 29 33 31 30 29 23 15 13 12 8 10 13 14 13 9 11 12 13 10 9 12 13 15 15 17 14 12 14 17 18 18 20 22 22 24 25 26 27 30 29 29 29 30 30 29 37 38 25
29 34 39 35 32 27 21 11 18 15 13 13 14 20 14 14 13 11 13 11 11 13 15 17 15 16 13 13 16 19 19 20 21 23 24 24 26 27 28 30 29 31 31 30 30 28 32 30 26
34 41 44 35 30 25 26 25 19 21 17 19 18 16 13 12 17 17 16 15 15 17 17 17 16 17 15 15 19 19 20 22 22 23 23 23 25 27 29 28 29 31 29 29 29 18 41 31 27
38 46 42 35 29 28 29 27 25 29 28 21 18 16 14 17 16 22 18 16 15 17 19 19 17 17 15 15 20 21 21 23 24 24 24 26 29 31 28 32 30 30 28 29 34 28 40 29 28
42 44 41 35 32 34 32 30 32 30 29 26 24 20 18 17 14 19 20 18 16 17 18 21 21 19 19 17 20 23 23 24 24 23 24 27 31 31 30 29 28 32 33 32 42 40 33 30 28
43 42 41 38 34 35 33 34 35 38 26 30 31 26 21 20 19 19 22 21 20 22 22 22 23 21 22 17 19 21 23 25 25 25 24 27 28 29 26 26 31 32 38 40 46 43 38 33 29
41 39 40 41 38 38 38 38 38 39 29 30 33 32 25 23 20 21 25 25 24 23 23 24 22 20 19 18 23 24 24 25 27 27 22 24 25 23 22 25 23 24 32 45 44 41 40 33 33
34 38 39 39 35 38 35 47 44 36 32 33 32 32 29 26 23 26 27 31 30 27 24 24 23 21 20 22 24 25 25 26 27 27 23 23 21 22 19 23 26 21 32 42 36 36 36 35 29
24 31 35 34 36 36 27 56 38 23 27 31 32 32 30 29 29 29 30 31 29 31 28 26 25 23 22 24 26 25 26 27 26 25 22 24 22 23 20 24 25 24 24 35 38 40 39 34 35
26 28 28 28 25 22 26 46 34 32 31 32 31 32 32 30 29 30 31 30 30 27 26 26 26 25 26 25 27 25 26 26 24 24 26 25 24 21 19 23 26 27 35 33 42 43 41 37 32
31 24 31 31 22 19 26 41 36 30 32 33 32 31 32 32 32 33 31 28 27 26 30 30 28 26 25 26 25 24 25 25 23 25 27 28 26 22 21 20 22 28 35 47 45 45 40 34 31
32 22 26 27 18 23 31 42 39 34 36 37 36 35 35 31 28 30 30 26 27 23 20 23 24 23 23 24 21 23 24 24 23 26 27 26 24 21 26 18 20 25 30 57 52 45 38 36 38
32 34 36 34 30 30 35 49 42 38 36 36 36 35 36 38 37 37 33 30 29 28 23 20 21 27 25 24 21 23 24 24 24 26 26 25 29 28 25 21 20 16 40 44 43 43 38 39 35
34 33 33 31 27 27 31 49 38 31 31 31 31 28 29 33 37 35 35 33 29 31 25 23 20 25 23 24 21 22 24 23 23 24 22 22 29 30 31 25 28 21 34 39 40 41 40 41 40
33 31 28 26 24 20 13 12 25 24 20 17 19 19 22 29 33 35 38 35 31 28 28 25 22 25 23 25 23 23 24 23 22 22 20 18 28 31 29 29 25 31 20 26 31 37 41 38 37
21 19 13 10 15 19 21 14 2 5 19 27 19 15 26 27 31 30 39 39 31 31 28 26 26 29 26 26 23 23 24 22 23 22 21 19 25 28 28 29 26 24 34 24 32 39 40 39 39
17 9 7 11 14 7 15 14 10 11 9 6 24 28 20 29 30 29 36 42 35 29 30 26 26 31 29 25 22 23 23 22 23 20 20 20 20 31 29 28 27 30 30 36 38 39 41 40 39
13 12 3 3 3 5 6 12 27 6 17 26 25 27 30 31 33 31 33 36 37 27 26 28 29 31 31 25 21 22 21 21 22 18 18 21 22 25 28 33 31 33 34 34 46 45 45 43 42
23 21 9 5 4 3 9 9 11 13 21 28 27 23 23 31 35 34 31 32 39 27 26 25 26 31 29 22 20 20 18 19 18 14 15 19 20 24 28 34 37 35 35 38 52 46 45 50 48
28 25 24 22 21 4 9 21 26 27 28 27 26 32 34 36 27 29 31 28 38 30 27 29 28 27 26 20 20 16 16 15 14 11 15 18 20 22 25 28 29 38 34 26 42 46 46 47 52
17 11 12 10 3 5 5 8 14 21 25 26 26 28 34 28 25 20 26 26 27 30 33 26 23 23 23 19 17 14 12 11 11 9 11 17 18 15 14 21 30 29 23 15 33 42 49 50 40
1 22 15 9 18 4 7 8 11 13 19 22 30 34 43 32 16 7 14 25 30 35 32 26 25 25 24 20 15 12 10 8 7 6 9 11 10 9 14 15 19 22 23 22 25 41 48 34 22
19 15 15 11 4 7 14 24 24 24 24 24 29 34 34 29 18 12 10 27 31 39 31 27 24 27 22 18 14 11 8 5 4 4 5 9 11 11 8 8 11 14 16 15 28 38 33 35 27

GFSSGP_700_spd_105.txt.gz
Wind_Speed
16 15 15 13 8 9 10 6 10 8 6 8 11 15 8 6 4 5 12 8 6 8 8 10 11 14 16 8 4 8 10 9 9 9 9 9 12 14 12 10 10 11 12 10 10 10 11 11 12
16 17 16 15 12 15 12 10 11 14 12 12 11 13 8 7 5 11 12 9 4 6 9 9 13 17 17 6 3 4 8 10 10 10 11 11 13 15 14 12 13 15 13 13 10 10 10 11 13
17 17 17 12 18 24 10 10 10 16 16 14 14 13 11 7 7 12 9 7 6 8 8 10 12 15 13 4 1 2 4 8 11 11 13 15 17 16 15 16 15 13 15 17 11 10 12 12 13
17 18 21 20 22 13 13 12 13 9 9 13 13 12 14 6 7 10 7 8 8 8 7 9 10 16 15 11 2 2 2 3 8 14 16 18 17 19 19 19 17 18 15 15 17 12 12 14 16
19 22 24 24 27 28 14 17 15 8 11 12 16 17 15 10 7 8 7 7 7 9 6 7 8 13 15 8 6 1 3 4 5 8 13 19 21 23 21 21 23 15 22 15 18 14 15 15 17
22 24 20 30 28 25 20 18 23 21 17 19 19 17 19 14 9 7 8 7 7 8 6 7 10 11 15 11 5 6 8 9 11 13 15 16 19 23 23 23 25 20 18 15 19 18 16 18 14
26 28 31 31 27 26 22 18 18 19 20 21 21 16 19 12 8 7 9 10 8 7 6 7 9 10 11 11 7 6 9 11 14 15 16 18 20 22 22 25 25 22 23 17 21 24 13 22 14
28 29 30 33 29 33 25 20 13 16 19 16 15 12 14 14 8 7 9 10 9 8 8 7 8 9 12 9 8 8 10 13 15 16 19 21 21 22 24 24 25 25 25 24 26 25 22 26 26
29 34 33 36 31 30 21 11 15 21 18 15 16 17 19 19 13 10 8 9 10 9 9 9 11 11 12 11 10 11 12 13 16 17 18 22 23 24 25 26 25 26 25 26 27 24 24 31 33
35 43 44 37 30 29 27 21 16 17 21 15 16 21 23 21 19 16 12 10 12 12 13 12 13 12 14 13 12 13 14 15 18 18 19 22 24 25 25 27 28 29 28 28 26 27 27 28 25
39 48 42 39 29 29 31 32 30 26 28 20 19 18 22 24 21 18 14 13 12 14 15 16 16 15 16 17 14 14 17 16 18 20 20 21 23 25 26 27 29 29 28 26 32 29 30 27 22
42 44 42 37 31 33 35 32 33 30 28 26 27 26 23 25 23 22 19 12 12 13 16 17 19 19 19 19 19 17 15 16 17 19 20 21 25 26 27 27 32 27 32 28 33 31 30 24 26
45 44 41 38 34 35 34 36 33 38 29 24 28 33 28 25 24 23 19 18 15 16 17 18 20 21 20 21 18 17 17 18 18 19 20 22 25 28 26 30 29 26 30 30 33 34 34 32 29
42 38 38 40 37 37 38 38 37 40 27 25 29 29 30 31 28 26 22 22 20 18 20 19 19 21 21 19 19 19 20 20 19 20 21 22 23 25 27 24 29 27 28 37 38 40 41 35 37
39 42 40 41 35 34 33 44 44 35 32 33 31 28 27 31 32 30 25 26 25 25 23 26 23 23 23 20 21 21 23 22 21 22 22 22 21 21 24 23 23 28 25 31 38 42 44 38 39
32 34 33 27 29 35 30 49 24 17 16 22 22 23 25 26 29 31 29 29 30 29 28 27 29 27 24 22 23 23 25 25 23 23 22 20 19 20 20 22 20 27 26 25 28 43 48 43 43
25 20 20 19 19 17 23 36 23 25 27 26 26 24 23 24 25 24 26 29 31 29 28 31 30 30 25 23 25 24 26 25 24 24 22 21 20 23 22 24 20 24 29 19 34 43 42 40 37
24 21 23 20 13 14 24 33 27 23 25 27 27 26 27 27 27 26 30 33 31 31 28 28 27 29 27 24 25 25 25 24 23 24 22 22 22 23 19 24 21 21 22 22 33 35 34 40 35
22 20 24 18 15 20 30 35 33 30 31 31 28 28 29 29 27 29 34 31 30 31 29 31 29 34 31 25 23 22 23 23 23 24 22 22 22 22 21 23 25 26 25 26 37 33 29 42 41
31 33 30 21 19 22 31 40 39 34 32 29 28 27 27 28 31 36 36 35 33 31 31 31 27 25 26 28 24 24 24 23 23 24 22 22 20 20 22 26 29 22 21 31 41 42 36 50 49
31 33 29 27 25 27 30 39 31 20 14 18 17 18 20 24 30 30 33 35 36 34 33 34 31 26 28 26 26 25 24 21 23 24 22 21 21 20 20 28 26 27 25 24 32 48 44 48 49
35 34 30 28 18 14 12 11 16 19 19 7 3 8 14 18 19 21 26 30 36 37 37 35 35 32 30 26 26 26 23 22 22 24 23 23 21 20 21 26 25 21 24 15 30 49 42 42 49
26 22 19 17 23 21 16 11 5 9 9 14 10 6 14 16 18 21 21 23 30 37 37 36 36 34 29 27 27 26 24 22 23 24 23 22 20 19 20 26 28 26 19 26 20 36 37 36 47
7 8 9 9 12 8 15 16 8 10 9 10 5 16 20 22 24 25 25 25 26 34 34 38 37 35 31 28 29 26 22 21 23 23 22 21 19 19 19 28 24 27 23 30 27 19 24 30 45
18 15 3 4 5 6 6 14 16 6 8 9 14 21 24 25 26 31 32 25 25 25 30 38 40 34 32 27 29 24 21 21 22 21 20 19 18 18 21 24 23 27 21 33 29 30 25 31 41
22 24 7 6 5 1 11 8 6 7 8 13 19 18 21 24 31 35 33 35 29 27 28 38 35 34 34 30 24 23 21 22 19 19 16 15 14 16 19 20 26 30 28 30 29 33 29 35 40
23 26 19 5 2 2 8 9 11 17 15 14 13 19 24 28 31 37 42 37 34 29 28 38 33 28 29 31 23 22 21 20 17 17 13 11 13 16 18 22 27 30 34 29 34 33 37 39 43
25 17 13 13 4 6 6 9 9 9 12 16 14 21 30 32 32 36 39 40 41 31 32 40 33 27 22 28 24 21 22 18 14 12 9 10 13 15 18 22 25 31 35 32 33 30 38 39 43
22 17 9 12 14 3 3 3 2 4 10 20 23 21 30 38 38 44 30 36 39 32 36 41 34 27 24 30 24 21 21 16 11 8 7 9 10 6 8 13 14 22 23 24 23 24 24 38 36
5 9 13 10 5 12 12 12 12 12 13 15 22 27 32 34 35 36 25 25 32 33 39 40 33 24 29 31 25 23 19 15 11 6 5 7 7 8 7 10 10 16 26 29 26 28 27 28 32

GFSSGP_700_spd_108.txt.gz
Wind_Speed
16 15 14 13 6 9 13 10 13 7 7 12 15 15 12 6 6 4 6 7 8 0 8 9 12 12 12 10 4 7 9 8 8 8 8 7 7 7 9 9 7 7 7 8 8 7 8 9 10
16 15 14 13 11 18 15 13 11 11 11 11 11 19 12 9 8 4 6 8 7 2 6 7 9 12 13 5 4 4 5 8 9 8 8 9 9 9 10 12 9 11 10 9 9 8 7 8 11
16 16 12 10 17 23 12 11 11 16 19 12 10 16 13 10 7 4 5 6 5 2 4 5 7 13 12 5 3 6 6 7 9 10 10 10 11 13 12 14 13 12 11 10 10 9 10 9 10
17 18 19 18 22 15 12 9 13 15 17 15 14 9 18 13 7 5 4 4 3 3 4 5 6 13 13 9 3 4 5 5 6 10 11 12 13 12 15 15 15 14 14 12 14 11 11 11 10
18 19 18 20 26 21 14 11 17 16 12 14 20 13 11 14 8 6 5 4 4 4 4 3 6 11 12 10 6 5 5 3 1 3 7 12 15 16 17 18 18 17 19 16 15 14 10 11 12
19 20 19 27 25 20 21 17 22 20 13 17 21 19 14 17 12 8 6 6 6 5 4 2 4 7 9 8 2 3 3 2 4 6 8 10 13 17 20 20 18 20 21 20 14 15 11 7 12
25 21 28 25 23 20 19 18 23 24 16 17 22 19 17 20 18 10 9 8 7 6 4 3 3 5 6 7 5 3 5 5 6 8 11 11 13 16 19 21 20 24 24 19 19 17 16 10 11
26 24 27 28 27 25 19 18 15 19 18 26 23 16 13 23 20 14 12 11 8 8 7 7 6 5 5 6 6 6 7 7 9 10 12 13 14 17 19 21 23 24 23 20 19 16 18 17 19
30 28 33 29 23 23 21 12 13 21 20 21 20 22 25 22 22 18 14 12 10 10 9 9 10 10 8 8 8 9 10 10 11 13 13 14 16 18 19 21 23 24 22 21 22 22 23 23 24
38 34 35 26 25 20 22 20 12 12 19 16 18 21 21 25 25 22 17 14 13 12 13 13 12 12 13 12 11 10 13 14 15 15 15 16 17 19 21 23 25 25 25 26 26 24 23 23 26
34 44 27 26 28 26 24 20 19 19 20 18 17 17 24 23 28 25 23 20 16 16 17 15 15 16 17 16 15 12 12 15 16 18 17 16 18 20 22 23 26 27 30 30 29 27 26 25 31
38 33 32 29 30 31 33 25 25 24 24 22 25 27 25 28 29 27 25 22 21 19 19 19 19 19 20 20 18 17 15 13 13 16 17 17 18 20 22 22 26 29 31 30 30 30 26 29 29
36 32 29 34 38 36 34 34 32 29 23 23 27 34 31 28 29 29 29 27 26 24 21 20 20 21 22 23 21 21 17 15 14 16 18 18 18 20 21 24 27 28 27 28 31 29 31 30 32
24 25 33 30 32 35 37 37 34 28 32 25 27 30 33 32 31 30 30 29 27 25 25 23 21 21 20 21 22 22 21 19 17 17 18 20 20 21 20 23 25 26 28 33 29 29 29 30 33
29 32 25 24 23 30 33 41 41 36 33 30 29 30 30 29 29 33 31 31 30 29 28 27 26 27 27 24 23 23 24 23 20 19 20 21 21 21 19 22 23 32 29 31 27 26 34 35 33
21 27 33 29 28 30 27 43 16 13 17 19 22 25 30 30 29 30 35 35 32 32 31 29 29 29 29 30 27 26 26 25 23 21 21 23 22 20 19 20 23 27 28 30 31 31 30 33 43
27 29 25 22 22 18 26 28 20 22 22 19 16 21 18 21 25 27 29 34 37 36 35 35 34 31 30 31 32 27 27 25 25 22 22 24 23 22 22 23 24 24 24 27 33 36 31 38 42
29 22 23 18 10 16 22 25 19 13 12 14 14 14 17 20 23 22 25 32 33 34 34 35 34 32 33 34 33 30 27 24 24 21 23 25 24 23 24 23 21 26 27 28 29 24 30 42 44
26 19 22 20 16 21 24 27 25 24 24 23 23 23 23 24 23 24 33 32 34 35 35 35 35 33 32 31 31 29 25 23 22 22 24 25 24 24 24 22 21 27 27 24 24 27 25 41 48
27 27 29 22 16 17 22 29 26 27 28 26 25 25 25 25 25 32 34 34 33 33 35 36 36 35 34 33 34 32 27 26 24 25 24 24 24 24 24 22 23 29 29 24 24 23 30 34 39
26 34 38 25 18 21 24 35 32 30 27 25 25 27 26 27 30 31 30 29 30 33 36 36 36 37 36 34 31 33 32 30 27 23 22 24 25 25 24 23 26 30 29 24 27 27 34 36 32
31 27 22 19 15 23 13 14 8 7 10 12 13 15 18 21 21 20 18 22 27 30 33 37 38 39 38 36 30 30 31 29 25 24 24 25 25 26 26 24 24 32 30 31 31 31 35 41 40
22 21 21 20 23 21 25 15 18 16 19 13 14 12 11 10 10 13 17 20 24 26 31 34 35 40 39 37 31 30 31 30 29 25 25 26 25 26 27 24 25 28 33 24 27 22 36 47 45
13 11 10 10 14 15 25 22 16 16 16 10 12 9 7 11 13 15 17 19 21 26 29 32 35 38 39 38 34 32 32 31 28 26 26 27 26 27 26 22 22 29 26 25 24 21 24 49 43
16 20 8 8 8 10 8 17 20 9 12 15 9 6 14 17 16 16 21 23 23 22 28 30 35 35 39 36 36 33 32 31 27 25 26 26 26 27 22 22 22 23 21 27 25 22 18 41 35
28 25 10 8 9 11 11 10 9 16 17 13 13 15 14 14 20 23 27 32 30 29 26 29 31 35 39 35 37 36 32 30 26 24 25 25 25 23 18 19 18 22 21 25 23 25 20 21 17
18 23 16 7 0 3 12 7 6 15 16 12 11 9 14 16 22 31 30 35 35 31 28 30 29 36 38 38 37 35 32 29 25 23 24 24 23 17 17 17 18 26 23 24 21 23 29 27 24
16 19 15 15 6 8 9 13 9 13 12 10 10 9 18 23 25 31 31 28 37 34 30 30 31 37 38 38 40 36 32 29 25 22 22 21 21 15 18 19 18 22 25 31 28 30 33 31 36
26 19 17 14 15 4 2 4 6 10 9 9 10 17 20 26 26 30 32 33 32 32 32 32 33 37 38 37 40 36 33 28 24 20 20 19 17 13 16 17 16 18 25 32 34 34 34 38 34
17 22 19 14 11 18 15 8 8 8 9 9 13 20 21 23 27 31 36 36 36 37 25 25 28 31 38 34 33 36 33 28 23 20 18 17 13 12 12 10 11 12 15 19 24 35 29 32 31

GFSSGP_700_spd_111.txt.gz
Wind_Speed
14 13 11 9 7 12 20 20 14 9 10 10 12 12 10 9 8 3 4 4 6 4 2 6 10 14 15 12 9 9 9 9 10 10 9 5 6 5 4 3 4 4 4 4 4 4 5 6 6
13 12 11 7 14 22 20 16 12 13 11 9 14 15 14 10 9 12 5 5 4 3 3 8 9 9 8 2 4 7 9 10 11 10 8 7 6 5 5 7 7 6 6 6 5 6 5 4 6
13 12 8 10 22 26 20 5 12 12 15 8 7 13 11 11 10 8 8 4 3 2 4 6 7 8 9 4 6 8 10 10 11 10 9 7 8 7 9 8 9 10 9 8 7 7 7 7 6
13 14 16 20 23 20 19 14 11 13 10 13 11 10 14 15 9 9 7 3 2 3 4 5 3 8 10 9 6 8 8 9 9 9 9 9 9 10 11 11 11 11 11 11 9 8 14 7 6
14 13 20 22 27 25 18 15 12 13 12 11 16 13 9 18 13 12 8 5 4 4 4 3 2 7 10 9 7 7 7 8 7 6 6 7 10 12 13 13 13 13 16 13 15 14 12 10 6
16 16 25 26 28 23 20 18 16 17 15 12 16 18 13 12 20 15 10 9 7 6 5 4 1 4 8 8 4 5 5 5 5 6 6 8 10 13 14 15 17 18 16 13 16 16 12 13 9
23 24 29 28 27 23 21 20 21 20 19 16 14 18 19 15 18 19 14 13 9 8 7 6 3 0 4 5 3 2 5 6 6 6 9 10 13 15 15 15 17 18 18 18 16 17 18 19 12
23 26 34 32 29 29 21 17 17 20 22 19 15 16 17 21 25 21 18 16 13 11 10 8 6 4 2 2 1 3 5 7 8 9 9 12 14 14 16 17 19 20 21 21 20 19 21 15 15
21 31 39 34 29 27 21 17 14 14 19 20 19 18 23 31 24 25 24 20 17 14 13 10 9 8 7 7 6 6 8 9 10 11 11 12 15 15 16 17 19 21 22 22 20 20 19 18 17
33 35 38 28 25 26 25 19 16 17 18 20 18 20 28 31 28 28 27 22 20 17 15 13 13 11 11 11 11 10 10 12 12 13 14 14 15 17 18 19 20 22 24 23 23 22 22 22 21
34 47 32 28 27 27 27 24 21 21 19 22 20 17 15 15 21 24 22 22 22 19 20 18 16 15 14 15 15 14 12 12 13 14 16 16 16 18 17 18 20 22 26 27 27 26 25 25 22
38 38 33 32 29 25 30 26 27 25 23 20 19 22 20 18 21 21 22 22 21 24 24 23 21 20 18 19 19 20 16 15 13 13 14 16 16 19 19 21 21 25 26 28 29 26 26 27 26
42 36 35 30 30 33 28 30 28 30 27 26 26 25 24 27 26 23 23 22 22 24 26 27 24 22 22 21 22 23 18 18 16 14 15 15 17 19 21 21 22 24 28 27 29 28 29 28 29
34 36 36 34 31 27 31 33 30 30 27 31 28 27 27 30 29 26 26 28 26 25 25 30 28 24 25 22 23 24 25 19 20 19 17 17 18 19 19 20 22 22 24 25 27 29 25 27 26
37 37 31 34 32 36 27 36 38 30 30 30 29 29 28 28 27 28 28 27 29 29 26 32 31 29 28 26 25 25 26 24 22 23 22 20 19 20 21 21 21 22 25 26 30 29 32 31 23
24 34 42 41 31 26 26 43 27 17 25 33 33 31 30 29 29 29 29 30 28 27 28 35 36 33 30 30 30 28 29 26 27 24 24 23 21 21 22 22 21 22 27 28 32 35 31 30 28
34 40 40 34 32 32 33 38 29 23 24 20 20 24 26 27 27 27 27 27 29 28 27 30 38 38 34 31 31 31 32 29 29 26 25 25 22 22 22 22 23 24 27 30 36 35 32 29 33
47 36 34 33 26 32 34 32 25 20 23 24 22 21 19 19 20 19 21 22 23 25 27 35 41 42 39 35 34 35 33 30 31 27 24 25 24 24 23 23 24 26 30 33 30 28 28 30 34
41 22 31 25 28 20 23 27 28 22 23 22 20 21 20 20 20 20 20 29 35 33 34 37 40 40 42 38 36 37 32 32 31 29 25 25 26 25 25 24 26 25 27 29 28 29 26 30 29
35 31 32 29 20 18 22 25 24 25 29 28 29 27 24 23 22 22 26 29 39 34 36 37 39 40 42 41 37 36 32 30 31 29 28 28 26 26 27 27 26 25 27 28 30 27 24 26 24
37 37 34 28 20 21 23 30 28 28 29 30 31 29 26 24 24 24 24 19 24 30 34 36 37 39 41 41 42 37 34 34 33 31 31 29 26 28 28 28 28 27 28 29 29 30 29 20 21
37 32 27 27 23 33 27 25 27 27 20 27 30 28 26 24 24 22 19 14 15 27 31 33 36 40 42 42 44 39 35 34 35 33 32 29 29 28 29 30 30 29 28 29 30 26 20 25 15
29 23 23 22 25 23 22 23 28 21 17 17 16 16 17 17 14 15 14 13 13 19 28 30 33 36 38 42 43 39 35 33 34 35 33 32 30 29 30 31 31 30 28 27 29 27 30 30 33
19 15 16 18 21 21 30 26 17 22 19 24 21 20 17 14 10 9 9 11 12 15 25 29 31 32 34 37 39 39 36 34 35 36 34 32 30 30 31 31 32 29 28 30 31 25 30 27 34
21 22 8 7 10 15 24 27 26 11 18 21 22 18 15 11 7 6 8 10 14 20 25 24 29 32 34 34 38 39 37 37 37 36 34 31 31 30 30 31 30 26 25 26 28 25 27 23 28
29 28 9 6 10 13 18 12 19 27 16 14 17 14 11 5 5 6 9 13 20 21 28 29 27 30 35 35 36 39 39 39 39 36 34 30 30 29 30 29 27 23 23 23 27 29 28 21 22
27 29 19 6 8 5 13 15 4 17 21 16 14 11 9 7 7 10 13 22 29 28 28 30 29 33 35 37 36 40 40 40 40 36 34 29 30 28 28 28 24 20 20 26 25 24 23 20 18
19 21 20 13 5 6 9 14 9 20 19 16 13 11 8 7 10 13 15 26 27 27 26 31 32 35 36 38 38 41 40 39 40 36 31 29 28 27 28 25 22 20 21 23 22 25 20 23 23
22 20 22 17 18 5 7 1 10 18 17 12 9 8 8 12 13 15 21 27 28 29 28 28 32 38 39 37 38 42 41 40 39 35 30 29 27 25 26 24 23 24 23 26 27 29 23 23 25
32 23 24 17 17 17 15 3 9 15 13 9 8 7 9 12 18 22 28 28 33 34 30 28 32 30 32 35 37 40 38 41 40 34 31 28 26 24 24 21 19 18 22 27 30 29 29 26 29

GFSSGP_700_spd_114.txt.gz
Wind_Speed
12 11 10 9 7 11 18 22 20 12 6 12 9 8 10 4 4 7 15 9 4 7 13 8 8 9 11 12 13 13 11 10 10 10 10 11 10 9 7 4 1 1 1 3 2 2 3 2 3
11 11 9 5 14 19 21 21 20 11 9 14 15 12 14 2 7 10 9 10 7 10 15 8 9 9 8 8 6 6 8 10 11 10 11 10 10 7 6 4 2 4 4 4 3 2 2 2 3
10 11 5 9 21 29 22 20 7 6 12 14 5 9 11 10 7 11 18 11 11 11 10 7 8 8 7 3 3 7 9 11 12 11 11 10 8 6 7 5 4 4 6 6 6 5 4 2 3
14 12 13 21 27 23 26 19 8 7 10 16 11 7 11 17 12 16 19 12 11 9 6 6 6 6 6 6 4 6 8 11 12 13 11 10 9 8 8 7 8 8 6 7 7 6 6 9 5
17 11 19 21 26 27 27 25 15 11 9 9 12 13 11 19 9 15 17 12 11 8 5 6 5 4 5 7 8 7 8 9 9 10 10 8 9 10 10 9 9 11 8 9 8 10 12 8 5
20 18 23 28 28 26 25 23 18 14 13 12 13 15 12 17 21 18 17 13 11 8 7 5 3 1 4 7 7 7 7 8 7 7 7 8 8 11 11 11 12 13 13 10 10 11 12 9 11
24 23 30 28 28 27 24 22 22 20 17 17 13 15 17 15 16 22 21 16 12 10 8 7 5 3 3 6 5 4 4 5 5 6 6 8 11 11 12 11 13 13 12 13 13 13 14 12 14
24 27 35 34 31 30 24 19 17 17 19 18 14 17 15 22 22 25 25 19 15 14 11 10 9 6 3 2 3 2 2 3 5 6 7 8 11 11 12 13 14 15 15 16 16 16 17 16 18
22 33 43 36 31 30 23 25 20 17 17 20 21 21 18 21 23 23 25 24 21 19 15 14 13 10 7 5 4 1 1 4 6 7 8 8 10 11 12 14 14 15 17 17 18 18 18 15 14
32 39 45 31 30 30 26 28 22 13 17 19 23 18 24 28 26 25 25 27 26 22 18 18 15 13 11 10 9 7 5 5 7 10 11 12 12 13 13 15 16 17 19 20 19 19 19 18 18
33 54 37 33 30 32 29 28 23 24 21 19 22 30 26 24 34 29 27 26 29 24 22 22 19 17 15 15 12 12 10 9 8 10 11 13 14 15 16 17 15 17 20 20 19 20 22 21 19
38 45 38 36 33 30 30 30 31 21 22 21 18 27 23 27 22 23 25 21 22 25 26 25 22 21 19 19 17 15 16 13 11 10 10 11 13 14 15 17 18 19 21 22 21 21 24 24 22
43 40 36 37 36 34 33 32 29 34 28 20 27 20 19 21 21 21 21 24 23 25 25 27 25 23 22 23 21 21 15 17 16 13 12 12 12 13 14 17 19 19 22 22 25 23 23 25 24
37 37 40 37 39 37 33 34 33 35 33 33 28 34 31 23 25 30 25 26 26 25 27 29 30 25 24 24 24 23 23 18 22 17 16 16 15 14 15 17 18 20 21 23 21 20 23 25 25
34 38 39 43 47 39 34 37 47 36 32 34 45 36 34 34 32 31 28 27 32 32 29 27 32 34 25 25 25 26 27 22 23 23 22 20 19 19 16 18 18 19 21 23 22 21 25 28 25
32 34 44 56 37 37 36 54 46 31 30 36 35 34 36 37 33 30 31 32 28 29 32 31 33 38 33 28 28 26 28 29 27 24 25 24 22 21 19 20 19 19 21 24 24 25 26 30 27
34 46 53 42 36 38 33 53 34 33 29 32 31 34 34 32 28 30 31 29 30 31 25 29 35 41 39 31 31 31 29 31 31 30 26 26 24 23 20 22 21 21 22 24 25 26 29 31 32
60 48 37 38 30 36 43 50 33 26 25 39 26 24 27 29 25 27 26 28 31 29 28 30 32 37 43 37 33 34 33 33 31 31 30 27 26 23 22 22 24 23 23 25 27 28 30 32 32
44 39 36 36 33 35 41 44 40 35 32 29 27 29 23 21 20 25 31 35 30 29 37 36 33 35 42 41 36 36 36 36 32 31 32 30 29 24 24 23 25 24 24 24 28 28 32 31 26
42 41 40 28 28 17 23 28 21 28 30 32 26 28 28 24 23 22 21 27 32 36 39 43 45 43 43 41 38 36 35 37 33 31 32 34 30 27 27 25 26 25 25 25 28 30 30 30 27
41 41 37 39 22 5 14 27 22 23 25 29 30 27 28 28 24 22 22 33 34 39 39 42 41 40 40 40 41 42 42 39 35 32 32 34 31 30 29 28 27 27 27 27 28 31 26 27 24
42 35 36 32 23 7 13 11 24 23 27 28 32 33 26 29 26 23 26 34 30 32 40 44 42 39 38 41 41 45 42 38 35 35 32 36 34 32 30 31 28 28 30 29 28 30 27 29 27
38 30 32 23 15 11 16 17 38 30 30 29 38 32 38 30 25 25 24 22 15 12 18 26 28 32 36 38 41 45 42 40 37 37 36 37 38 35 31 33 30 29 31 31 30 29 29 28 25
30 12 13 13 11 10 31 25 28 31 38 25 24 25 27 28 28 27 22 16 16 12 22 28 26 28 32 34 36 41 39 39 38 37 38 36 39 36 33 33 30 31 32 33 29 29 29 25 31
20 19 6 5 9 13 17 24 37 15 20 29 21 24 27 24 19 17 14 11 19 21 16 21 26 27 29 32 36 39 38 37 36 37 38 37 38 37 32 33 31 32 32 33 28 28 27 29 26
23 27 10 7 7 10 23 15 37 31 13 23 23 30 23 19 17 14 15 20 22 28 27 25 27 28 29 32 35 38 39 35 36 37 40 37 37 34 31 33 31 32 32 31 26 27 25 24 25
28 32 21 3 8 5 13 20 3 25 13 22 19 23 21 16 11 15 11 20 29 24 25 27 30 33 29 33 37 40 35 38 37 39 40 38 36 34 31 32 30 32 31 28 25 23 24 24 22
24 24 22 11 3 3 6 21 5 12 23 19 20 15 15 14 12 11 16 23 25 25 26 29 31 34 32 34 36 43 34 38 38 40 40 39 37 34 31 31 29 30 28 26 25 23 23 23 21
14 24 21 16 16 2 1 2 11 15 19 25 17 12 14 14 14 15 22 27 25 31 27 27 29 32 33 34 36 42 36 38 38 41 40 40 37 34 32 30 28 28 26 26 26 23 23 24 18
16 16 22 14 12 11 2 3 6 14 22 19 16 18 21 14 15 18 25 28 30 29 27 25 25 29 30 33 34 35 35 38 39 40 39 40 35 33 31 28 26 26 24 27 28 24 25 26 21

GFSSGP_700_spd_117.txt.gz
Wind_Speed
11 12 13 12 9 10 15 14 7 4 13 13 9 11 5 6 10 9 11 6 5 4 7 11 17 12 10 11 11 14 13 11 11 13 13 15 15 13 10 8 5 4 2 2 2 3 3 2 2
9 12 14 13 12 16 20 14 15 23 18 17 14 12 14 7 9 7 8 12 10 7 9 13 14 11 9 9 9 10 9 10 12 12 14 15 15 13 10 8 6 5 3 2 0 0 1 2 1
11 13 15 14 17 25 21 9 12 9 9 8 11 10 16 10 12 10 9 13 13 11 12 13 14 11 7 7 5 5 7 11 13 14 15 16 16 14 12 8 5 5 5 4 2 2 1 1 2
12 16 18 22 24 19 19 9 12 15 17 12 10 9 15 21 14 14 17 18 16 17 14 12 13 9 7 5 1 2 6 9 12 14 14 16 15 13 11 8 7 6 8 6 5 5 3 4 11
18 18 22 26 30 26 20 20 23 20 11 10 13 11 11 20 22 16 17 19 20 17 13 11 9 8 4 3 3 5 6 8 10 12 13 14 14 13 10 9 6 8 7 5 6 7 7 5 9
23 21 19 30 32 27 20 13 13 22 20 10 8 13 12 24 26 27 24 22 17 14 12 10 8 6 3 2 5 7 7 7 8 9 10 11 12 12 10 9 9 11 9 10 8 8 9 6 8
28 28 34 33 30 27 18 12 22 28 26 12 11 15 11 20 22 22 22 19 19 15 12 9 7 6 3 2 4 6 7 7 7 6 6 7 8 8 10 10 10 11 11 11 9 10 9 9 8
28 30 39 36 30 31 21 18 20 17 14 18 11 14 20 23 25 24 24 21 19 17 13 11 9 8 6 3 3 4 5 6 6 5 3 5 5 6 8 10 11 11 12 12 13 13 12 12 10
26 33 49 43 35 33 24 27 19 20 23 21 18 19 22 20 25 25 23 21 21 20 16 14 12 11 9 7 5 4 3 4 5 5 4 5 5 4 6 8 9 11 13 14 15 15 14 14 12
34 43 53 43 37 35 29 29 24 27 25 24 20 22 27 27 26 26 27 23 20 22 20 18 16 15 13 11 9 7 5 4 5 6 7 7 8 8 9 9 11 13 15 16 15 17 16 15 13
36 59 43 41 34 31 29 31 29 30 26 25 22 32 29 33 29 24 27 28 24 21 23 22 20 19 16 15 13 11 9 8 6 7 8 8 9 10 10 11 11 13 14 15 15 15 17 16 14
40 51 45 46 40 34 37 29 38 36 30 22 19 27 28 34 36 36 32 30 31 30 26 25 24 22 20 18 17 15 14 12 11 9 9 9 7 9 9 9 11 13 16 17 16 16 17 18 16
47 43 42 43 38 43 40 42 40 44 33 23 26 26 20 34 31 33 30 27 25 24 22 20 24 22 22 22 20 18 16 16 15 14 13 11 10 9 9 11 11 12 15 18 18 17 17 18 16
38 44 46 42 47 44 42 44 40 50 38 30 30 35 25 25 31 31 28 26 27 26 26 23 22 22 21 25 24 22 18 19 18 18 17 17 15 13 12 12 12 14 15 18 19 16 16 16 18
37 39 42 50 55 49 42 45 52 49 41 36 40 39 36 28 24 24 27 32 31 29 27 28 24 23 23 24 24 26 22 20 19 19 20 21 21 18 17 14 14 14 16 18 18 16 17 19 18
32 31 46 65 53 48 39 54 56 42 40 47 44 48 44 45 40 35 31 32 27 34 33 31 25 25 27 26 27 28 26 23 22 21 22 23 24 23 21 18 16 15 17 19 18 19 19 21 19
46 54 58 58 42 43 45 50 50 45 40 45 42 47 48 51 51 48 43 43 32 33 36 40 38 34 34 34 32 30 31 29 26 24 24 24 25 26 25 21 19 17 17 19 20 21 21 23 23
51 49 39 38 35 38 40 52 41 38 38 46 42 38 33 31 32 34 44 37 31 29 35 31 31 30 32 34 36 36 34 35 31 28 26 25 26 27 28 25 22 20 18 19 20 22 21 24 25
41 32 40 41 36 31 41 53 47 34 34 33 41 38 37 31 30 25 23 33 33 31 31 38 39 35 34 35 39 41 33 33 36 33 28 27 25 26 29 29 26 22 20 20 22 23 24 24 25
44 43 37 36 31 38 44 30 47 44 39 42 34 33 37 30 25 25 26 28 29 36 37 37 39 39 37 39 42 45 40 31 35 34 34 30 27 27 31 32 29 27 22 21 22 25 26 25 25
48 43 36 33 30 17 21 29 32 30 38 34 40 34 28 30 30 21 25 28 35 41 38 36 40 40 40 41 42 46 44 37 34 34 32 31 30 28 30 32 31 30 26 24 24 25 28 28 25
41 45 36 39 36 14 15 6 23 41 33 22 25 28 32 30 31 30 26 27 31 35 37 41 44 45 42 43 44 47 45 41 36 34 33 34 32 31 30 33 33 32 29 26 25 26 28 31 26
41 40 34 38 35 15 7 6 26 24 39 36 29 32 29 21 31 34 30 27 26 37 42 44 46 47 48 48 49 51 49 42 37 36 34 34 35 32 31 34 35 34 31 28 27 29 29 30 29
37 41 30 22 15 3 17 18 18 24 42 36 31 36 30 22 18 25 24 22 33 32 36 44 47 47 47 50 45 42 40 40 39 38 36 35 37 36 34 35 36 35 32 30 29 31 31 30 30
36 31 9 2 2 4 14 16 30 11 30 32 34 29 26 28 34 24 32 36 29 27 26 32 35 34 34 33 36 40 42 40 40 39 36 36 38 38 34 35 37 37 33 30 30 32 31 28 27
31 27 9 2 5 4 9 11 20 17 22 14 21 28 28 30 35 36 37 33 28 27 24 20 25 25 26 29 32 35 38 41 42 39 36 36 38 37 34 34 37 36 33 31 31 31 29 24 25
24 23 18 1 3 3 11 13 8 14 13 14 22 32 27 29 29 27 31 35 29 29 23 27 29 30 31 34 34 37 41 42 41 40 39 37 36 37 35 33 36 35 33 30 31 29 26 22 22
21 26 13 4 1 4 5 9 10 7 21 29 35 33 25 27 31 31 28 26 26 30 30 32 31 30 31 35 37 38 41 45 40 37 40 39 35 37 37 32 36 35 32 29 30 27 23 20 20
13 19 7 5 7 1 2 4 10 9 28 23 29 29 24 22 21 20 24 28 26 27 28 28 27 28 30 34 36 37 37 42 37 38 38 39 35 39 37 32 35 35 31 29 28 24 23 20 22
7 20 17 8 5 4 9 3 9 9 25 26 32 22 16 19 18 18 18 19 21 26 30 29 28 29 29 31 33 36 36 37 36 38 39 36 37 38 38 33 35 33 30 28 26 23 23 22 24

GFSSGP_700_spd_120.txt.gz
Wind_Speed
11 13 15 17 12 12 15 17 12 9 15 5 6 12 17 16 14 6 12 15 10 9 5 4 8 12 13 12 12 14 16 15 14 14 15 14 16 15 12 10 7 5 4 4 4 3 3 4 4
13 13 15 18 16 18 21 16 12 8 8 3 12 12 16 19 18 11 5 10 8 7 6 6 9 12 12 11 11 12 13 12 13 16 16 16 17 17 15 11 8 7 4 4 4 3 3 3 4
15 13 14 11 23 30 24 10 8 4 3 7 14 12 15 19 22 21 8 6 8 9 8 9 9 12 11 9 8 8 8 10 14 16 17 18 19 18 16 12 10 9 8 5 5 5 4 4 4
17 17 18 24 24 19 18 13 7 6 5 4 16 16 14 18 23 19 14 11 12 10 10 10 8 10 11 9 6 5 5 9 12 15 17 20 19 18 17 14 12 11 9 9 8 6 5 6 7
19 22 28 30 33 29 23 17 12 10 11 14 15 16 18 18 19 21 19 17 13 16 18 15 8 7 10 8 4 2 5 8 10 13 15 18 19 19 17 17 15 13 11 8 8 7 7 7 8
22 25 32 38 39 31 28 19 21 17 20 14 21 21 23 22 19 16 13 17 18 18 16 13 8 6 7 5 2 3 5 8 10 11 12 15 16 17 16 14 15 12 11 10 9 10 8 8 8
28 31 42 43 40 36 26 20 24 14 17 19 26 24 25 20 21 19 18 18 18 16 17 15 10 6 5 6 2 4 7 7 8 9 10 11 10 11 13 13 12 11 11 11 10 9 8 8 7
29 35 46 45 42 42 26 25 24 10 8 10 20 23 27 23 22 19 19 19 20 18 18 17 12 8 5 6 4 5 7 8 8 8 8 8 7 8 10 12 12 11 11 10 11 10 10 10 11
30 42 50 48 43 40 25 28 27 15 12 15 22 20 20 25 23 24 25 24 24 19 20 19 14 11 8 8 7 6 7 7 8 8 8 7 7 6 7 8 9 10 11 11 12 11 11 11 12
36 48 51 49 44 41 32 32 29 27 22 17 24 25 22 27 28 28 28 23 25 22 20 19 17 14 13 11 10 8 7 7 7 8 8 8 8 8 8 9 9 11 11 12 12 13 12 13 12
40 58 48 44 35 33 38 37 32 34 34 21 22 32 32 32 34 31 27 25 23 19 22 19 18 19 17 14 13 12 10 8 8 7 8 10 9 9 9 9 9 10 11 11 12 12 12 13 13
43 47 48 49 47 47 47 38 40 39 40 26 24 27 31 34 36 36 32 30 30 28 24 23 22 23 21 19 16 15 14 12 11 9 9 10 9 8 8 8 9 9 11 13 14 13 14 14 14
44 43 44 47 50 51 47 51 43 46 42 29 22 14 29 30 30 32 34 31 31 31 31 29 26 27 26 22 20 18 16 16 14 14 11 11 10 9 8 9 10 10 11 12 14 14 16 15 16
41 39 46 47 53 51 49 52 43 56 45 39 32 27 22 34 33 33 36 37 34 35 34 28 25 26 25 22 21 20 19 18 18 18 16 15 14 13 11 11 11 12 11 12 13 14 15 16 16
44 42 48 54 56 56 47 48 55 55 47 45 42 37 31 27 33 30 32 35 33 33 25 24 23 22 22 21 21 22 23 23 22 20 20 19 18 18 17 16 15 14 13 13 12 12 13 16 17
39 36 50 61 51 55 38 58 62 50 46 52 46 42 39 37 28 27 26 30 32 28 27 28 28 27 26 26 25 25 22 23 23 23 22 22 20 20 21 20 19 17 16 15 13 12 13 16 18
45 41 43 58 46 31 31 56 63 52 46 50 49 46 46 43 40 35 34 33 34 35 34 36 34 30 31 28 28 27 28 29 27 26 25 23 22 21 22 23 23 21 20 16 15 13 13 14 17
49 35 44 41 58 37 33 44 59 47 42 47 49 49 50 51 49 44 39 38 38 39 38 37 39 33 33 30 30 29 31 30 28 28 28 26 24 22 23 25 25 26 23 19 17 16 16 16 16
42 42 38 48 48 35 44 38 46 44 48 37 41 49 48 51 54 52 50 46 45 44 45 41 43 35 33 33 32 33 33 31 29 27 28 30 28 25 23 24 25 28 26 23 21 19 19 18 17
40 41 44 43 48 31 31 44 39 41 44 51 39 43 41 42 42 38 37 36 34 40 48 45 40 38 36 33 31 33 32 31 30 28 26 31 32 29 27 27 26 29 29 27 24 21 22 22 21
44 53 44 36 39 41 29 37 41 43 37 46 43 41 38 31 33 32 27 33 30 34 39 38 37 38 40 37 33 33 37 36 35 35 31 29 31 29 29 29 29 31 32 30 28 24 24 25 24
48 40 40 35 33 23 21 10 33 32 37 33 44 43 36 38 30 31 32 32 32 35 35 38 38 38 39 40 39 41 41 40 38 38 36 34 32 31 32 32 32 29 33 32 31 28 26 27 27
42 31 34 29 36 29 31 11 31 20 37 40 37 35 37 35 34 29 33 32 36 43 48 43 44 42 41 44 42 41 42 42 41 43 44 43 36 33 32 32 33 30 32 34 33 31 28 28 30
20 8 19 26 22 17 32 21 25 21 26 39 37 28 24 23 25 31 33 34 36 42 42 41 40 38 38 39 37 41 44 47 48 49 51 47 39 35 32 33 33 33 32 36 35 33 31 30 31
9 11 1 6 7 7 29 18 34 7 19 26 43 35 22 17 19 28 35 33 33 34 37 38 34 32 31 30 36 35 40 45 49 51 46 43 38 37 35 36 34 35 33 36 37 35 33 31 32
11 19 8 4 3 4 16 12 17 8 12 15 17 30 15 32 25 27 29 35 34 32 32 37 42 43 43 39 42 46 45 49 46 44 44 42 41 40 36 38 37 36 37 36 37 36 35 32 32
8 20 18 11 12 2 12 8 5 9 7 8 18 19 24 26 29 36 29 28 34 36 32 30 30 34 39 39 39 43 44 43 42 42 44 43 39 37 38 37 36 36 38 36 38 36 35 33 32
10 20 9 8 2 3 0 5 8 11 20 24 24 32 35 41 40 34 33 34 29 25 21 18 20 24 31 38 39 42 47 46 43 46 47 44 41 38 36 36 36 35 36 37 37 36 34 32 31
8 9 3 5 3 3 3 3 2 10 29 35 39 37 35 36 34 26 25 26 23 22 25 29 31 32 36 36 40 44 46 45 43 45 47 43 39 38 35 37 34 35 34 37 37 35 32 32 29
9 7 7 1 3 3 3 4 15 22 27 34 33 32 36 33 25 18 13 15 14 20 27 31 34 31 32 33 34 36 38 40 41 42 40 39 40 39 35 37 35 37 32 36 36 34 32 31 28